GEFSGL_500_meanwind_000.txt.gz
Wind_Speed
52 52 57 54 52 51 52 45 43 44 46 48 45 45 45 43 41 41 43 47 46 44 36 37 38 39 39 39 39 40 41 42 43 41 40 39 40 40 41 42 44 48 51
53 53 56 53 54 59 53 46 42 40 41 44 44 43 41 41 41 40 41 42 40 39 37 38 37 38 38 37 37 37 38 39 39 38 39 37 37 39 39 41 44 45 46
48 51 52 51 49 52 53 45 40 38 37 40 42 39 36 36 38 37 40 38 33 35 37 37 35 37 36 35 35 35 36 36 37 40 39 35 35 38 38 39 41 41 41
39 45 43 47 50 43 42 39 38 36 38 41 42 40 34 32 33 33 35 37 36 33 34 35 37 36 36 36 37 37 37 38 39 40 40 38 37 37 38 38 39 40 38
34 38 41 39 42 40 41 38 39 44 43 39 43 41 36 35 34 34 36 38 36 34 34 37 38 37 36 37 39 39 40 42 42 41 41 41 40 39 40 39 39 38 36
27 30 33 36 36 35 39 40 40 40 34 39 44 42 38 35 33 35 36 36 34 34 35 37 39 41 41 39 39 40 42 43 44 44 44 43 42 41 41 42 40 37 36
18 21 26 27 30 32 34 36 40 36 35 37 37 35 33 34 33 32 32 32 34 36 37 38 39 41 43 43 41 41 42 43 45 46 47 46 44 44 43 42 41 37 35
12 12 19 18 17 19 20 23 26 29 32 30 31 33 33 33 31 29 31 33 34 35 37 39 40 42 42 42 42 42 43 45 47 47 48 48 47 46 45 43 41 37 35
11 9 13 13 14 16 20 23 24 27 30 31 31 30 30 29 29 30 33 36 37 38 40 42 43 43 43 42 43 44 45 46 47 48 49 49 48 48 47 46 43 39 36
14 10 12 16 21 26 27 26 27 29 32 33 30 27 27 28 30 32 33 37 40 43 45 45 45 44 44 45 46 46 47 47 48 48 49 49 48 49 49 48 45 42 38
17 16 17 19 22 25 27 28 29 31 32 32 29 27 28 30 30 33 38 41 43 44 46 49 49 47 47 48 48 48 49 49 50 50 50 50 50 50 51 51 50 47 42
19 21 25 27 28 28 29 30 31 32 33 32 31 30 29 31 33 36 41 44 46 47 46 47 50 50 49 50 49 50 50 50 50 51 51 52 52 53 53 53 54 52 46
25 26 28 32 34 33 33 33 34 34 34 35 36 37 37 36 37 40 43 46 47 47 47 48 49 48 48 48 48 49 49 50 51 50 50 52 53 54 54 54 55 54 50
30 33 35 36 38 40 40 40 39 38 38 39 41 43 44 43 42 44 46 46 47 46 44 45 46 46 47 47 47 48 49 51 51 51 51 52 53 54 54 53 54 54 51
34 37 39 41 43 43 44 46 46 45 46 47 47 47 47 47 48 48 47 47 46 46 45 46 46 48 48 49 49 50 51 52 52 52 53 52 52 52 52 52 52 53 52
35 36 38 41 42 44 45 46 48 49 50 50 51 52 51 51 51 50 51 50 48 49 48 48 50 51 51 51 52 52 53 53 53 53 53 53 52 51 51 51 51 51 52
36 37 38 39 40 42 44 47 49 50 51 52 52 53 54 53 52 52 53 52 52 53 52 52 53 53 53 54 54 54 55 55 56 56 56 56 55 54 53 53 53 53 54
36 37 39 40 42 43 45 46 48 49 51 52 53 54 55 56 56 56 57 56 57 57 56 56 56 56 57 57 57 57 57 57 57 57 56 56 56 55 55 56 56 57 58
38 39 40 42 43 45 46 48 49 51 53 55 57 58 59 60 60 61 62 61 61 61 61 62 61 61 61 61 61 60 60 60 60 60 59 59 59 59 59 60 60 61 62
43 44 45 47 48 49 51 52 54 56 57 59 61 62 64 65 66 66 67 67 67 67 67 67 67 67 66 66 65 65 65 66 66 66 66 66 66 66 66 66 66 67 68
50 52 53 55 56 58 59 60 62 63 65 66 68 69 70 72 72 73 74 74 75 75 75 74 74 74 74 74 73 73 73 73 73 73 72 72 72 72 72 71 71 72 72
61 62 63 64 65 66 67 68 69 70 71 72 73 74 76 77 77 78 78 79 79 80 80 79 79 79 80 79 79 79 78 78 77 77 76 76 76 75 74 73 72 71 70
66 66 66 67 67 67 68 69 69 69 70 71 72 72 73 74 75 76 76 77 77 78 78 78 78 78 78 78 77 76 74 73 72 72 70 68 66 64 62 59 57 56 55
59 58 57 56 56 56 55 55 55 55 56 56 56 57 58 59 60 62 63 64 65 67 68 68 69 70 70 70 69 67 64 61 57 55 53 50 48 45 42 40 38 37 37
43 41 40 39 38 37 36 35 34 34 35 35 36 37 38 39 40 41 42 43 45 46 47 48 49 50 51 51 50 47 45 42 41 40 39 37 34 31 28 25 23 22 21
34 33 32 30 29 28 27 27 26 26 26 26 26 26 26 26 26 26 26 26 26 27 27 28 28 29 29 30 30 29 28 27 27 27 27 25 23 20 18 15 14 14 14

GEFSGL_500_meanwind_006.txt.gz
Wind_Speed
62 60 59 57 56 55 54 54 53 52 52 53 51 50 50 48 45 43 41 41 43 44 47 48 49 51 53 54 56 56 57 57 57 56 56 56 55 53 51 51 51 49 47
46 42 40 38 39 41 44 47 48 47 48 50 50 47 46 45 41 38 37 39 41 44 46 49 51 52 53 52 52 53 55 56 55 54 54 54 53 50 50 50 49 47 45
38 35 34 33 32 32 33 36 39 40 40 42 43 42 41 39 38 37 38 38 39 41 43 46 49 51 51 50 51 52 54 55 55 54 53 52 49 47 48 48 47 45 44
36 35 35 34 30 28 27 28 29 31 33 35 36 37 37 36 35 37 38 38 38 38 38 40 43 45 47 47 48 49 51 51 49 47 47 46 45 44 44 46 45 43 43
34 35 36 34 27 22 20 20 21 23 26 29 29 29 30 31 33 35 37 39 37 36 36 36 37 39 40 41 43 44 44 44 43 42 42 43 43 42 42 42 42 41 40
33 34 36 33 23 15 11 11 14 17 20 24 26 27 29 29 30 33 37 39 37 36 37 37 36 36 38 38 38 40 41 41 41 41 41 40 40 41 40 41 40 39 39
31 30 32 30 22 14 9 9 12 16 19 22 25 27 29 29 30 33 37 37 35 36 36 35 34 33 35 36 37 39 40 41 41 41 39 38 38 39 40 41 40 39 40
30 27 27 26 21 14 11 10 12 15 18 21 22 24 27 30 32 34 35 34 34 34 33 31 30 30 33 38 38 38 39 40 41 40 40 39 40 41 41 41 40 40 42
30 28 26 24 20 16 13 12 13 14 17 19 22 24 26 28 30 32 33 33 33 34 33 31 29 28 30 34 36 37 38 39 40 41 41 42 43 43 43 42 41 42 43
32 30 28 26 23 20 17 15 15 16 18 20 21 23 25 28 30 32 33 34 36 35 33 31 31 30 29 30 31 33 35 37 39 40 42 43 43 44 44 44 44 45 45
33 32 31 30 28 25 23 22 21 22 23 24 26 29 31 32 32 33 35 37 37 37 34 33 33 32 31 30 30 32 33 35 38 40 42 43 45 46 47 47 48 47 47
36 34 33 32 32 31 30 29 29 29 30 31 32 33 35 35 35 35 36 38 38 37 36 35 35 34 33 32 32 33 34 36 39 41 43 45 47 49 50 50 50 50 50
37 35 34 34 34 34 34 35 35 36 37 38 38 39 39 39 39 39 39 39 41 41 39 38 38 38 38 38 37 37 37 38 40 43 46 48 50 51 52 53 53 53 53
37 35 34 34 34 35 36 37 38 39 41 42 43 44 45 46 46 45 45 44 44 45 45 45 44 43 43 43 43 42 42 42 43 45 47 50 52 53 53 53 54 54 55
40 38 36 36 36 36 38 39 40 41 43 44 46 47 48 50 52 53 53 52 51 51 51 51 51 50 49 49 48 48 47 46 46 48 49 50 52 53 54 53 54 54 55
43 42 41 41 40 41 41 42 43 44 45 46 47 48 49 51 53 55 57 58 58 58 58 57 57 57 57 55 55 54 53 52 50 50 50 51 51 51 52 53 54 54 55
50 49 48 48 47 46 47 47 48 49 50 50 51 51 52 52 53 55 56 57 59 61 63 64 64 63 63 62 61 60 58 57 56 55 54 54 54 53 52 53 53 54 54
58 58 58 57 57 57 56 56 56 56 56 57 57 57 57 57 58 58 60 60 61 62 63 65 66 67 66 66 66 65 63 62 60 59 58 58 57 57 56 55 55 55 55
58 57 57 57 58 59 61 62 63 64 65 65 65 65 65 64 64 64 65 65 65 65 66 67 67 68 68 68 68 67 66 65 64 63 63 62 61 61 60 58 57 56 55
45 44 43 43 43 44 46 48 51 55 59 63 66 68 70 70 70 71 71 71 71 70 70 70 70 71 71 71 70 69 69 68 68 67 67 65 64 63 62 60 59 57 56
39 38 37 36 35 35 34 34 35 36 38 42 46 51 56 61 65 68 72 74 75 76 76 75 75 74 74 74 73 73 72 72 71 70 69 67 66 64 63 61 60 58 57
42 40 39 38 37 36 34 33 31 30 29 29 30 31 34 38 43 48 54 59 65 70 73 76 77 78 79 78 78 77 76 75 74 73 71 70 68 67 65 64 62 60 58
46 44 43 41 40 39 37 35 33 31 30 29 28 27 26 27 28 30 33 37 42 47 53 59 65 69 73 76 78 79 78 78 77 76 75 74 72 71 69 68 66 64 62
48 47 45 43 42 40 39 37 35 33 32 31 31 30 28 26 24 23 24 25 27 29 32 36 41 47 53 59 64 68 72 74 75 76 76 75 74 74 72 70 69 67 66
51 50 48 47 45 43 42 39 37 35 34 33 32 32 32 30 27 24 23 22 21 21 22 23 25 28 31 36 41 46 51 55 59 63 65 67 67 68 67 67 67 67 67
54 53 52 51 50 48 46 43 40 37 35 33 31 30 30 30 29 26 24 22 21 19 19 18 17 16 17 18 21 24 28 31 34 36 39 41 44 47 50 52 54 56 57

GEFSGL_500_meanwind_012.txt.gz
Wind_Speed
30 31 33 35 36 37 39 41 42 41 39 37 38 44 52 54 53 52 50 49 49 48 48 49 52 55 57 59 61 62 64 64 64 65 65 64 64 64 65 64 64 63 63
28 29 32 34 35 36 37 38 38 35 32 30 29 32 40 48 51 52 50 47 46 46 46 47 51 54 55 56 58 60 61 62 62 63 64 64 64 64 64 64 63 62 61
28 30 32 34 34 34 34 34 33 30 25 23 22 24 31 39 44 48 50 50 47 45 45 46 48 53 57 57 58 58 58 59 58 58 60 61 61 61 61 61 61 60 60
31 32 33 34 34 32 31 30 28 25 21 19 19 20 25 31 38 44 47 48 47 45 43 44 44 47 51 53 54 53 53 52 53 54 56 57 58 59 59 60 60 60 61
34 35 34 34 34 32 29 27 25 23 19 17 17 20 25 28 32 37 40 42 44 43 41 40 40 41 44 47 49 49 49 50 51 53 55 56 57 58 58 58 59 59 60
38 38 37 35 34 32 30 26 23 21 18 17 16 20 24 27 29 32 35 37 39 39 39 38 37 39 42 43 45 46 47 48 49 51 53 55 57 58 58 58 58 59 60
41 41 40 38 36 33 31 27 24 21 19 18 18 19 23 27 29 30 32 33 35 36 36 36 36 38 40 42 43 45 46 46 47 48 49 51 54 56 57 58 57 56 56
44 43 42 40 38 35 33 30 26 23 21 21 20 20 23 25 27 27 28 29 31 31 32 34 35 37 39 42 43 44 45 46 47 48 48 48 49 51 54 56 57 56 55
47 45 43 41 39 36 34 32 30 27 25 24 23 23 24 26 27 28 28 30 30 31 33 35 36 37 38 40 41 42 43 45 47 48 48 48 48 48 50 52 52 52 51
49 46 44 41 39 36 34 33 32 31 29 28 27 27 27 27 29 30 31 31 32 34 35 36 37 38 38 38 39 39 40 41 43 44 45 46 46 46 47 47 47 47 46
52 49 47 44 41 38 35 33 33 32 32 32 32 32 31 31 31 32 33 34 35 36 36 37 38 39 39 39 38 37 37 38 39 40 41 41 43 43 44 44 44 44 43
53 51 49 46 44 42 39 36 35 34 34 34 35 36 37 37 36 36 36 36 37 37 38 38 38 39 39 39 38 37 37 36 37 38 39 40 41 41 43 43 43 43 43
47 46 46 45 44 44 43 41 39 38 37 36 37 38 40 41 42 42 42 41 41 41 40 40 40 40 41 40 40 39 39 39 39 39 39 40 41 41 42 42 43 44 44
45 43 41 39 39 39 41 43 43 43 42 41 41 41 42 44 46 47 47 47 47 47 46 45 44 43 43 43 43 42 41 41 41 40 40 41 42 43 43 43 44 44 44
47 45 42 39 36 34 34 35 39 43 46 47 46 46 46 47 49 50 51 51 52 52 52 51 50 49 48 46 45 45 44 43 43 42 42 42 43 43 43 43 43 42 42
48 46 43 40 37 34 32 31 31 33 37 42 47 50 51 51 52 53 54 55 55 56 56 56 55 54 54 52 50 49 48 47 47 46 45 45 45 45 44 44 43 43 42
49 47 44 41 38 35 32 30 29 29 29 31 36 42 48 53 56 57 57 58 58 58 58 59 59 59 58 57 56 55 53 52 51 51 50 49 49 48 48 47 45 45 44
51 49 46 43 40 37 34 32 29 27 27 27 28 30 35 41 47 54 59 61 62 62 62 62 62 63 62 62 61 60 59 58 57 56 55 54 54 53 52 52 51 50 48
53 50 48 45 43 40 37 34 32 30 28 27 27 26 27 30 34 39 47 54 60 64 65 65 65 65 65 65 65 65 64 64 63 62 61 60 59 59 58 57 56 55 54
55 53 51 49 46 43 40 37 35 33 31 29 28 28 27 27 27 29 33 38 46 53 60 65 68 69 69 68 68 68 68 68 67 67 67 66 65 64 64 63 62 60 59
56 53 51 49 48 46 43 40 37 34 32 31 30 29 28 27 27 26 27 28 32 37 44 52 60 66 70 71 72 71 70 70 70 70 70 69 70 69 68 67 66 65 64
58 54 52 52 52 49 45 41 37 35 33 31 30 29 28 27 26 26 25 25 26 27 31 36 42 50 59 66 71 73 74 74 73 72 72 72 71 71 71 70 69 68 67
62 61 59 57 55 51 46 42 38 35 32 29 27 26 26 26 25 24 24 24 24 24 25 27 30 35 40 48 57 65 70 74 76 76 75 74 73 73 72 71 70 69 68
65 63 60 59 56 51 47 43 40 35 31 27 24 22 21 22 22 22 22 23 23 22 22 22 23 25 28 32 37 45 53 62 69 74 76 77 76 75 73 71 70 68 66
63 62 61 60 58 54 50 46 42 37 32 27 23 19 17 17 17 18 19 19 20 20 19 17 17 18 19 21 24 28 33 40 49 57 65 71 74 76 75 74 71 69 66
61 60 60 60 61 59 56 53 48 43 37 31 25 20 16 15 14 13 14 14 15 15 14 12 11 10 9 10 12 15 18 23 28 35 43 51 58 64 69 71 71 70 68

GEFSGL_500_meanwind_018.txt.gz
Wind_Speed
48 46 44 42 39 37 34 32 32 31 31 32 33 34 36 37 38 38 40 43 47 50 53 57 57 57 57 60 64 68 73 78 81 81 80 78 77 76 75 74 73 71 70
52 50 48 46 44 42 40 38 37 36 36 35 35 36 36 36 35 35 35 37 39 40 43 47 50 52 54 56 58 60 63 66 70 73 76 77 76 75 75 74 74 73 72
57 55 53 51 48 46 44 43 41 40 39 38 37 36 35 34 32 31 30 28 30 33 38 42 47 50 53 54 53 54 55 57 59 61 63 66 69 70 71 72 72 72 72
60 58 57 55 52 50 48 46 44 43 41 39 37 36 35 32 29 27 24 22 26 31 35 39 44 48 50 51 51 50 51 52 53 54 56 58 60 62 64 67 68 69 70
59 57 56 54 53 51 49 47 46 44 42 40 38 36 34 31 28 25 23 24 26 31 35 39 42 45 46 47 49 49 49 50 49 50 52 53 54 56 58 60 63 64 66
54 53 52 51 49 47 46 46 45 44 42 40 39 36 34 31 29 27 26 27 30 31 34 37 39 42 42 43 45 46 47 48 49 50 52 52 53 54 55 57 59 61 63
52 51 51 49 47 45 43 42 42 42 41 40 38 36 34 33 32 30 31 32 33 33 34 35 36 39 40 41 41 42 44 46 47 49 51 52 53 54 54 54 55 57 58
55 54 53 51 48 45 42 39 38 38 39 38 37 37 35 35 34 33 33 36 37 37 37 36 36 38 40 41 41 41 42 44 45 47 49 51 52 53 53 53 53 53 54
57 57 55 53 49 45 41 37 35 34 35 37 37 37 37 37 37 37 36 37 39 39 39 39 38 39 40 41 42 43 43 44 45 45 46 47 48 49 50 51 51 51 50
58 58 56 53 50 45 41 36 33 31 30 33 36 38 38 38 39 39 39 38 39 40 40 40 40 41 42 43 44 45 46 46 47 47 46 46 47 48 49 49 49 49 49
60 59 57 54 50 46 42 38 33 29 27 28 32 36 39 40 41 41 42 40 39 40 41 42 42 43 44 45 45 47 48 48 49 49 48 48 48 49 49 48 48 47 47
62 60 57 54 50 46 42 39 35 31 27 25 26 31 37 40 42 43 43 43 42 40 40 41 43 43 44 45 47 48 49 49 50 50 49 49 49 49 49 49 48 47 47
62 60 57 53 50 47 43 40 37 33 28 25 23 25 31 37 41 43 44 45 44 43 42 41 42 43 44 45 46 48 49 49 50 49 49 48 49 49 49 49 49 48 48
62 60 58 54 51 48 46 42 38 34 30 26 23 22 24 30 37 42 44 45 46 45 45 44 43 42 43 44 46 47 48 48 49 48 47 47 47 47 47 47 47 47 47
61 61 60 58 54 50 46 44 40 35 31 27 23 21 20 23 28 36 42 45 47 47 47 47 46 45 44 45 46 47 48 48 48 48 47 46 46 45 45 45 45 44 44
60 61 62 61 59 55 49 44 40 37 32 28 25 22 20 19 21 26 33 41 46 49 49 49 49 49 48 47 47 48 48 49 49 48 48 47 46 45 45 44 43 43 42
60 61 63 64 63 59 54 46 39 34 32 28 24 22 21 19 19 20 23 30 38 45 48 50 51 52 52 51 51 50 50 50 50 49 49 48 47 46 45 44 43 43 42
58 59 61 63 65 64 59 51 42 34 28 26 23 21 20 19 19 18 19 21 26 34 42 48 52 54 54 55 54 54 54 53 52 51 50 49 48 47 46 45 44 43 42
58 58 59 62 65 67 65 58 48 37 29 23 20 18 18 18 18 18 18 18 20 23 30 38 46 52 56 57 58 58 57 57 56 55 54 52 51 50 49 47 46 45 44
57 59 61 62 63 66 67 65 56 44 33 24 19 16 14 14 15 16 16 17 17 19 22 27 34 43 51 56 59 61 61 61 60 59 58 57 55 54 52 50 49 47 46
57 59 61 61 62 63 66 67 63 54 42 30 22 17 13 11 11 11 12 13 15 16 18 21 25 31 39 48 55 60 63 64 64 63 63 62 60 59 57 55 53 51 49
60 59 59 60 60 62 64 66 66 63 55 43 32 24 18 14 10 8 9 10 12 14 15 17 20 24 29 36 44 53 59 63 65 66 66 66 65 64 62 60 58 56 54
61 59 58 58 59 60 61 63 64 64 63 57 48 37 29 22 16 12 9 9 10 11 13 14 15 18 21 26 32 39 48 55 61 66 67 68 68 68 67 65 64 62 59
61 60 58 57 57 59 60 61 61 62 62 61 59 54 48 40 32 25 19 15 12 11 10 10 10 11 14 17 22 27 34 41 50 57 64 67 69 70 70 70 69 67 65
59 60 59 58 58 58 59 59 59 59 59 59 58 57 56 53 50 46 41 36 31 27 22 18 14 9 6 7 11 17 22 27 34 42 51 59 65 69 71 72 71 71 69
57 59 60 60 60 59 59 58 57 57 56 56 55 55 54 53 52 50 49 46 44 41 38 35 31 26 21 15 8 4 8 14 20 27 34 43 52 60 66 70 71 72 71

GEFSGL_500_meanwind_024.txt.gz
Wind_Speed
50 50 50 49 49 49 49 47 46 44 43 43 42 41 39 37 36 34 34 35 37 39 42 47 53 59 65 71 77 83 86 88 90 89 89 85 83 81 80 79 77 76 75
51 51 51 51 50 50 49 47 46 44 42 40 40 41 41 40 38 37 36 36 37 38 39 41 44 49 54 60 66 72 78 82 86 87 89 88 86 84 83 82 80 78 76
53 53 53 53 52 50 49 46 44 41 40 39 38 39 41 42 41 40 39 38 38 37 38 38 40 43 47 51 55 61 67 72 76 79 83 85 86 85 85 84 84 82 80
55 54 54 52 51 50 47 45 42 39 36 35 35 36 38 42 43 42 41 40 39 39 38 38 38 40 42 45 48 52 57 61 65 69 72 76 79 80 81 83 85 85 83
55 53 52 52 51 50 47 44 40 37 34 31 31 32 35 39 42 43 42 41 40 39 38 37 37 37 38 39 42 45 48 51 55 59 62 66 68 70 72 75 78 82 83
54 52 52 52 52 51 48 44 41 37 33 30 28 28 31 35 39 42 42 41 40 39 38 37 36 35 35 35 37 40 44 47 49 51 55 57 59 62 63 66 69 73 77
53 52 52 53 53 53 51 47 43 38 33 30 27 26 28 31 36 40 41 41 41 40 39 38 37 35 34 36 38 40 42 44 48 50 52 55 56 58 59 60 62 66 69
53 52 53 53 53 54 54 52 48 41 35 30 26 25 25 28 32 37 39 40 41 41 40 39 39 38 36 37 39 41 43 44 47 48 51 53 53 54 56 56 57 59 61
53 53 54 54 55 55 56 56 53 44 36 30 26 24 24 26 30 34 38 39 41 42 42 42 42 41 40 40 41 43 45 45 46 47 47 49 50 51 52 53 55 55 55
54 54 55 56 57 57 59 59 55 47 37 30 25 23 22 24 27 32 36 38 41 43 44 45 45 44 43 43 42 42 43 44 45 45 45 45 47 48 51 53 53 52 52
54 55 56 57 58 60 62 61 56 47 36 28 24 21 20 22 25 29 33 37 40 43 45 46 47 47 46 45 44 42 42 42 44 44 44 45 46 47 49 51 53 53 53
55 55 57 59 60 63 64 63 58 46 32 24 21 18 18 19 22 26 30 34 39 42 45 47 48 48 48 47 46 44 43 43 43 44 45 45 46 48 49 50 51 51 52
56 56 57 59 62 65 67 65 58 44 29 20 16 15 16 17 19 22 27 32 36 40 44 46 47 48 48 49 49 47 46 45 44 45 46 46 47 48 49 49 50 50 51
56 56 57 59 62 65 69 68 61 45 29 18 12 12 13 14 16 18 22 28 33 38 42 44 45 47 48 49 49 49 49 48 47 47 47 48 48 49 49 50 50 50 51
56 56 58 60 61 65 69 71 64 50 34 21 12 8 9 11 12 14 17 21 28 34 39 42 44 45 47 48 49 49 50 50 50 50 50 50 50 51 50 50 50 50 50
56 57 58 60 61 63 67 70 68 58 42 28 17 10 7 8 10 11 13 15 20 27 34 39 42 44 46 47 48 49 49 50 51 52 53 53 53 53 53 53 52 51 50
58 58 59 60 61 62 65 67 68 64 53 38 26 16 10 7 7 9 11 12 15 20 26 34 40 42 44 46 47 48 49 49 49 50 52 53 54 54 55 55 54 53 52
59 60 61 61 62 62 63 65 66 66 61 51 38 26 16 10 6 7 9 10 12 15 19 25 33 39 43 45 47 48 48 48 48 49 50 52 53 54 54 55 55 54 53
58 60 61 62 62 62 63 63 63 63 63 60 52 41 29 19 11 8 7 9 10 12 14 18 24 32 39 44 46 47 48 49 48 48 48 49 51 52 53 53 54 53 53
57 60 61 61 61 62 62 62 61 60 60 59 58 54 46 35 25 16 10 9 9 11 12 15 18 23 31 39 44 47 49 50 50 49 48 48 48 49 50 51 51 51 51
56 58 59 59 60 61 62 62 62 60 58 57 56 55 54 50 42 34 25 17 11 10 11 13 15 19 23 30 38 44 49 51 51 51 50 49 48 48 49 49 50 50 50
54 56 57 57 58 60 61 62 62 61 60 57 55 54 53 51 49 47 41 34 26 18 12 10 12 15 19 23 29 37 44 49 52 53 53 52 51 50 49 49 49 49 49
51 53 54 55 57 58 59 60 61 61 61 59 57 55 52 50 49 48 46 43 40 35 27 19 12 8 12 17 22 27 35 43 49 53 54 55 54 53 52 52 51 50 50
48 50 51 53 54 55 57 58 59 60 60 60 59 57 55 52 50 48 46 45 43 40 37 33 27 19 10 6 12 19 25 32 40 48 53 56 57 57 56 55 54 53 52
45 47 48 50 52 53 54 55 56 58 59 59 59 58 57 55 52 50 47 45 44 42 40 38 35 31 25 17 8 5 13 22 29 37 45 52 56 59 60 59 59 58 56
42 44 45 47 49 50 52 53 54 55 56 57 58 58 58 57 55 53 50 47 45 43 41 39 37 34 31 28 22 15 7 6 15 24 33 42 50 56 60 62 62 62 61

GEFSGL_500_meanwind_030.txt.gz
Wind_Speed
62 59 56 54 51 50 49 49 48 47 46 44 42 39 35 34 34 35 37 40 44 46 46 45 43 42 42 48 58 73 86 92 92 89 87 85 82 75 72 72 73 72 71
61 58 55 53 52 51 50 50 50 49 47 46 43 39 35 32 31 32 34 36 40 43 44 43 42 40 40 42 48 59 73 86 91 90 88 86 84 80 75 73 72 72 71
60 57 54 53 52 52 52 52 52 51 50 48 44 40 35 32 30 30 31 33 36 40 42 42 41 39 38 39 42 49 60 73 85 89 88 86 85 82 78 74 73 73 72
59 56 55 54 55 56 56 56 56 55 54 51 47 42 36 31 29 28 28 30 33 36 40 41 40 39 37 37 38 42 49 59 71 80 84 84 84 83 81 77 75 74 73
59 57 56 57 58 59 59 59 60 61 59 53 46 39 33 28 26 26 26 27 30 34 38 39 40 38 37 37 37 39 43 50 59 67 74 78 81 82 80 77 76 75 74
59 58 58 59 60 60 61 62 64 62 57 49 39 31 26 23 23 23 24 25 28 32 36 38 39 38 37 36 36 37 40 44 50 57 63 68 74 77 78 76 74 74 74
59 58 59 61 61 62 63 66 67 62 52 40 29 20 17 18 19 20 22 23 26 31 35 38 38 38 37 36 36 36 37 40 45 50 55 60 65 71 73 73 73 72 71
59 59 61 63 63 64 66 69 68 59 46 32 20 11 9 13 16 18 20 21 24 30 34 37 38 38 37 36 35 35 36 38 42 46 49 52 56 60 64 67 67 68 68
59 61 63 64 65 66 68 71 68 57 43 30 17 6 4 9 13 15 18 19 22 28 33 37 38 38 38 37 35 35 34 35 37 40 44 48 52 54 58 61 63 64 64
60 62 64 66 67 68 69 72 68 57 44 31 18 8 0 6 9 12 15 17 21 26 32 36 39 39 39 37 36 35 35 34 34 35 38 42 47 52 56 58 59 59 60
61 63 65 66 68 68 69 72 69 59 46 33 21 12 5 1 5 8 11 15 19 25 30 35 38 40 40 39 37 36 35 35 34 33 35 36 39 44 49 54 55 57 56
61 62 64 66 67 68 68 69 69 61 50 36 25 16 9 4 1 3 6 11 16 22 28 33 38 40 41 41 39 38 36 35 35 36 35 36 37 40 43 46 51 53 52
60 61 62 65 67 68 68 68 68 65 56 44 31 22 14 9 5 3 3 7 12 19 25 31 36 40 42 43 42 40 39 37 37 38 38 38 40 42 44 47 49 51 53
59 60 61 63 66 68 68 68 68 67 63 53 42 29 20 14 9 5 3 4 8 14 21 28 34 39 42 43 43 42 41 40 39 39 40 40 41 43 46 47 49 50 51
57 58 60 62 64 66 68 69 68 67 66 62 52 42 30 20 14 9 5 3 5 10 17 23 30 36 40 43 44 44 44 42 42 41 41 41 42 43 45 46 47 49 50
55 56 58 60 62 64 66 67 68 67 65 63 60 53 44 34 24 16 11 6 4 6 12 19 25 33 38 42 44 45 45 45 44 43 43 43 43 44 45 46 47 47 48
53 55 56 58 60 62 64 65 66 65 64 63 60 58 54 47 38 28 19 12 7 4 8 14 21 28 35 40 43 45 46 47 46 46 45 44 44 45 45 46 47 46 47
51 53 54 56 58 59 61 63 64 64 64 63 61 59 57 54 49 42 33 23 14 8 5 9 15 23 31 37 41 44 46 47 48 48 47 47 46 46 46 47 47 47 47
49 50 52 53 55 57 58 60 61 63 63 63 62 60 58 55 53 50 45 37 27 17 9 6 10 17 24 33 38 42 45 47 49 49 50 49 48 48 48 48 48 48 48
47 48 49 51 52 54 55 57 58 60 61 62 61 60 59 56 54 52 49 45 40 32 22 12 6 10 17 25 33 39 43 46 48 50 50 51 51 50 50 49 49 49 49
45 46 47 49 50 51 53 54 56 57 58 59 60 60 60 58 56 53 51 48 45 41 35 27 17 7 9 17 25 33 40 44 47 49 51 52 52 52 52 52 51 51 51
44 44 45 46 48 49 50 52 53 54 56 57 58 58 58 58 57 55 53 50 47 44 42 37 31 22 11 7 15 25 33 40 45 49 50 52 52 53 53 53 53 53 53
42 43 44 45 46 47 48 49 51 52 53 55 55 56 56 56 56 56 54 52 49 46 43 40 37 32 25 15 6 12 23 32 40 46 50 52 53 53 54 53 53 52 53
41 42 43 44 45 46 47 48 49 50 51 52 53 54 54 54 54 54 54 53 51 48 45 41 38 35 32 26 18 9 9 19 30 39 46 50 53 54 54 54 54 52 52
39 40 41 43 44 45 46 47 48 48 49 50 51 51 52 52 52 52 52 52 51 50 47 43 40 37 34 30 26 20 12 7 15 26 37 45 50 54 55 55 54 53 52
37 39 40 41 43 44 45 46 47 47 48 48 49 49 49 50 50 50 50 50 50 50 48 45 42 39 35 32 29 25 20 14 8 12 22 33 43 49 53 55 55 55 53

GEFSGL_500_meanwind_036.txt.gz
Wind_Speed
66 64 62 61 62 64 66 68 68 69 67 61 55 49 45 43 41 38 37 35 34 34 36 41 47 52 59 65 67 65 64 62 63 70 83 92 97 97 93 92 89 82 77
65 64 63 63 65 67 68 70 72 71 65 56 47 39 33 32 34 35 34 32 30 30 32 36 42 47 53 60 64 65 63 62 60 63 73 84 92 94 92 90 89 87 81
65 64 64 65 66 68 70 73 74 68 60 49 38 28 19 15 18 24 27 28 27 27 28 32 37 42 47 54 60 63 61 61 59 59 65 76 84 88 89 87 85 86 84
65 64 65 65 67 70 73 75 73 66 55 42 32 23 15 7 5 11 17 22 23 23 25 28 33 38 42 48 54 59 59 58 57 56 61 69 76 81 85 85 81 82 82
64 64 65 66 69 71 74 75 71 63 51 39 29 22 16 10 4 4 9 15 18 20 22 25 29 33 37 42 48 53 55 55 55 54 58 66 72 78 81 82 82 81 81
63 64 65 67 69 71 74 75 71 62 50 36 26 20 16 12 7 2 5 9 13 16 19 23 26 30 33 37 42 47 49 50 51 52 55 63 71 76 79 81 81 81 81
62 63 65 67 69 71 73 74 71 63 52 38 26 19 14 9 5 2 2 5 8 13 17 21 25 28 30 34 37 41 44 46 48 48 50 58 68 74 79 80 80 79 79
61 62 64 66 68 70 72 73 72 65 55 44 32 23 16 11 7 5 2 2 6 11 15 20 24 27 29 32 34 37 39 41 43 44 45 51 61 71 79 83 82 79 77
60 61 63 65 66 68 70 71 71 67 59 50 39 29 22 16 11 8 5 2 5 9 14 19 23 27 29 31 33 34 35 36 38 40 41 45 53 65 77 82 84 82 77
58 60 61 63 65 67 69 70 70 69 64 56 47 36 27 20 15 11 7 3 3 8 13 18 23 27 29 31 32 32 32 33 33 35 37 40 46 55 69 79 83 83 79
57 58 60 61 63 66 68 69 69 68 66 61 53 45 35 26 19 14 10 5 2 6 12 17 22 26 29 30 31 31 30 30 30 30 33 37 41 47 59 71 79 81 79
55 56 58 59 61 63 65 66 66 66 65 63 58 52 44 34 25 18 13 8 3 4 9 15 21 26 29 30 30 30 30 28 27 28 30 33 37 43 51 60 70 75 75
53 54 55 57 59 60 62 63 64 64 63 62 60 56 50 44 35 25 18 11 6 1 7 14 19 25 28 30 31 30 30 28 27 26 27 30 34 39 46 54 60 67 69
51 51 53 54 56 57 59 60 61 61 62 61 60 59 55 50 43 35 26 18 10 3 4 11 17 23 28 30 31 31 30 29 28 27 27 28 31 35 41 48 55 61 64
49 49 50 52 54 56 57 58 59 60 60 60 60 58 57 54 50 44 36 27 17 9 1 7 14 20 26 30 31 31 31 30 29 28 27 28 30 31 37 45 51 56 59
48 48 49 50 51 53 55 56 57 58 59 59 59 58 57 55 53 49 43 36 27 17 7 3 10 17 23 28 31 32 32 32 31 30 29 30 30 30 32 39 46 52 56
47 47 48 49 50 51 52 53 54 55 56 56 56 56 56 54 53 51 48 43 36 27 17 5 5 12 19 25 30 33 33 33 33 32 32 32 32 32 32 35 41 46 51
46 46 47 48 49 50 51 51 52 52 53 53 54 53 53 53 52 50 49 46 42 35 27 17 5 6 15 21 27 32 34 35 35 35 34 34 34 34 34 35 39 43 47
45 45 46 47 48 49 49 50 50 50 51 51 51 51 51 50 50 49 48 46 44 40 34 27 17 5 7 16 23 29 33 36 36 36 37 37 37 36 36 37 39 42 45
44 44 45 46 47 47 48 48 48 48 49 49 48 48 48 47 47 47 46 45 43 41 38 33 26 17 6 7 16 24 30 35 38 38 39 39 39 39 39 39 40 42 45
44 44 44 45 46 46 47 47 47 47 47 47 47 47 47 46 46 45 44 43 42 40 38 36 32 26 17 7 7 16 25 32 37 40 41 42 42 42 42 42 42 43 44
43 43 44 44 45 45 46 46 46 45 45 45 44 44 45 45 44 43 43 42 41 39 38 36 33 30 24 16 8 6 16 25 33 39 42 44 45 45 45 45 45 45 46
43 43 43 43 44 44 45 45 44 44 43 43 43 42 42 42 42 42 41 41 40 39 37 35 33 30 28 23 16 9 7 16 26 35 41 45 46 48 48 48 48 48 48
42 42 42 43 43 43 44 43 43 42 41 41 41 41 40 40 41 40 40 40 39 38 37 36 34 31 28 25 21 15 9 8 16 27 36 43 47 50 51 51 51 51 50
41 42 42 42 42 42 43 43 42 42 40 39 39 39 39 39 39 39 39 38 38 38 37 36 35 33 30 26 23 19 14 9 9 17 27 37 44 50 53 54 54 54 54
40 41 41 41 42 42 42 42 41 41 40 38 38 38 38 37 38 38 38 37 37 37 36 36 35 34 32 29 25 21 17 13 10 11 18 28 37 45 51 55 57 57 57

GEFSGL_500_meanwind_042.txt.gz
Wind_Speed
71 70 70 70 71 72 72 74 74 73 69 63 56 50 44 39 32 22 11 2 10 16 22 26 29 31 33 35 39 44 51 59 64 67 69 72 79 90 100 103 99 96 95
69 68 68 69 70 71 71 72 73 71 67 62 55 47 41 36 31 24 15 6 2 10 15 20 23 26 29 32 36 41 48 55 61 65 67 68 73 83 94 101 100 95 93
67 66 67 67 68 69 70 71 72 70 66 61 53 46 39 34 28 23 16 9 3 5 10 15 19 22 25 28 32 37 44 52 59 62 65 66 69 76 87 97 100 97 93
66 65 65 66 67 68 69 70 70 70 66 61 54 45 38 32 28 23 17 11 5 3 7 12 16 19 21 24 28 34 40 48 55 60 62 64 65 70 78 91 98 99 94
64 64 64 64 65 67 68 69 69 69 67 63 56 47 39 32 27 22 17 12 7 4 6 9 13 16 18 21 25 30 37 45 52 58 60 61 62 64 71 83 93 98 95
63 63 62 62 63 65 66 67 68 67 67 64 59 52 43 34 27 22 17 13 8 4 4 7 10 13 15 18 22 27 34 41 49 55 58 59 59 59 64 73 86 96 96
62 61 61 61 62 63 64 65 66 66 66 65 61 55 48 39 31 24 19 15 10 6 3 5 8 11 13 16 20 25 31 38 45 51 55 58 57 56 58 65 76 87 93
61 60 60 60 61 62 63 63 64 65 65 64 62 58 52 45 37 29 23 18 13 8 4 3 5 8 11 14 18 23 28 35 42 47 52 54 54 53 53 58 66 76 85
60 59 59 59 60 60 61 62 63 63 64 64 62 60 55 50 43 35 27 21 16 11 5 1 3 7 10 13 17 21 26 32 38 45 49 51 52 51 50 53 58 66 75
59 58 58 58 59 59 60 60 61 62 62 63 62 61 58 53 48 41 32 24 18 13 8 3 3 6 10 13 16 20 24 29 36 42 46 49 49 49 48 50 53 59 66
58 57 57 57 58 58 59 59 59 60 61 61 61 61 59 56 51 45 38 29 21 14 9 5 3 5 9 12 16 19 23 28 33 39 44 47 47 47 47 47 50 54 60
58 57 56 56 57 57 57 57 57 57 58 58 58 58 58 57 54 49 43 35 26 18 11 6 3 5 9 12 15 19 23 26 31 36 40 44 45 46 46 46 49 52 58
57 56 56 56 56 56 56 55 55 55 55 55 56 56 56 55 54 51 46 40 32 23 14 8 4 5 8 12 15 19 22 25 28 32 37 40 42 43 45 46 48 52 59
56 55 55 55 55 56 55 54 53 53 53 53 54 54 54 53 53 52 49 44 37 29 19 11 6 4 8 12 15 18 21 23 26 30 33 36 39 40 43 45 48 52 59
55 54 54 54 54 54 55 54 53 52 53 52 52 52 52 51 52 52 50 46 41 34 26 16 8 4 6 11 15 17 20 22 25 27 30 32 35 37 40 42 46 52 58
54 53 52 52 52 53 53 54 54 52 51 51 50 50 50 50 50 49 48 47 43 38 31 22 13 5 4 9 13 16 19 21 23 25 27 29 31 33 36 40 44 50 56
54 52 51 51 51 51 51 51 51 50 50 49 48 48 48 47 47 47 46 45 44 40 35 27 18 10 3 6 11 15 18 20 21 23 25 26 27 29 31 36 40 46 52
53 52 50 50 50 50 50 50 50 49 47 47 47 46 46 45 44 44 43 43 42 41 37 32 24 15 7 2 9 14 17 19 21 22 23 25 26 26 28 31 35 40 46
53 51 50 49 49 49 49 49 49 49 47 45 44 44 44 43 42 42 41 40 39 39 37 34 29 22 13 4 5 11 16 19 21 22 23 24 25 25 26 27 31 36 41
52 50 49 48 48 48 48 48 48 47 47 45 43 42 41 41 40 40 39 38 37 37 36 35 32 27 21 12 2 7 14 19 22 23 24 25 26 26 25 26 29 33 38
51 50 48 47 46 47 47 47 46 46 46 45 43 42 41 40 40 39 38 37 36 35 34 34 32 30 25 19 10 3 10 17 22 25 26 27 28 27 26 27 28 30 34
50 49 48 47 46 45 46 46 45 45 44 44 42 41 41 40 39 38 37 36 35 34 33 32 32 30 28 24 17 9 5 12 19 25 28 29 30 30 29 28 29 31 33
49 49 48 46 45 44 44 45 44 44 43 43 41 40 39 39 38 37 36 35 34 33 32 32 31 30 29 26 22 15 8 8 15 22 28 31 33 33 32 31 32 32 33
48 48 47 46 45 44 43 43 43 43 42 42 41 39 39 38 37 37 36 35 34 33 32 32 31 31 30 29 25 20 14 8 10 18 26 31 34 36 36 35 35 35 34
47 47 46 45 44 43 42 42 42 42 41 41 40 38 38 38 37 36 35 34 34 33 32 32 32 32 32 31 29 24 18 12 9 13 22 29 34 37 39 39 39 38 37
45 46 46 45 43 42 41 40 40 40 40 39 39 38 37 37 37 36 35 34 33 32 32 32 33 33 34 34 32 28 22 16 11 10 17 26 33 38 41 42 43 43 42

GEFSGL_500_meanwind_048.txt.gz
Wind_Speed
73 74 74 73 70 69 67 66 65 65 65 65 64 63 59 54 46 37 30 26 21 16 12 8 7 10 17 23 29 33 37 40 42 46 50 57 65 75 85 94 102 109 114
72 73 73 71 69 68 66 65 64 64 64 64 63 62 60 54 47 39 31 25 21 16 12 8 7 10 14 19 24 29 33 36 39 42 47 52 60 69 77 86 94 102 110
71 72 71 70 68 67 65 63 63 63 63 63 62 61 60 56 50 42 34 27 21 17 13 9 8 10 13 17 21 25 29 33 36 39 44 49 55 63 71 80 88 96 104
70 71 70 69 67 66 64 63 62 62 62 61 62 61 60 57 52 45 37 30 23 18 14 10 8 9 12 15 19 22 26 29 33 37 41 46 52 59 65 73 82 91 99
69 70 70 68 67 65 63 62 61 61 61 60 60 60 59 57 54 48 41 33 26 20 15 10 7 7 10 13 16 19 22 26 30 34 39 44 49 55 61 68 77 86 94
68 69 69 67 66 64 63 61 60 59 59 59 59 59 58 56 53 50 44 36 28 21 15 10 6 5 7 10 13 16 19 23 28 32 37 42 47 52 58 63 71 81 89
68 68 68 67 65 64 62 60 59 58 58 58 57 57 57 56 53 50 45 38 30 23 17 11 7 4 5 8 11 14 17 20 25 30 34 40 45 50 55 60 67 75 84
67 68 67 66 65 63 61 60 59 58 57 56 56 56 56 55 54 51 47 41 33 26 19 13 9 5 3 5 9 12 15 19 24 28 33 38 43 48 53 57 62 70 78
66 67 67 65 64 62 60 59 58 57 56 55 55 54 55 55 53 51 47 42 35 29 22 16 11 7 2 2 6 10 13 17 22 26 31 37 41 46 51 54 58 66 74
66 66 67 65 63 61 60 58 57 56 56 55 54 53 53 53 52 51 48 44 37 31 24 19 14 10 5 2 4 7 11 16 20 25 30 35 40 45 49 51 54 60 67
65 66 66 65 62 61 59 57 56 55 55 54 53 52 51 51 51 50 48 44 39 32 26 20 15 12 8 4 4 5 9 14 19 24 29 35 39 43 47 49 50 54 60
64 65 65 65 62 60 58 56 55 54 53 52 51 50 49 49 49 49 47 44 39 34 28 21 16 13 9 7 5 5 8 13 17 22 28 34 39 43 45 47 48 50 55
63 64 64 64 63 60 57 55 54 53 52 51 49 48 48 47 47 46 46 44 40 35 29 23 17 13 10 8 7 7 8 11 16 21 27 33 38 41 44 45 46 48 51
62 63 63 63 63 60 57 54 53 51 50 49 49 48 47 46 45 45 45 43 41 36 30 25 19 14 11 8 8 7 8 10 14 19 25 31 36 39 42 43 44 46 48
61 61 62 62 62 60 58 54 52 51 49 48 48 47 46 45 44 44 44 43 41 39 33 27 21 16 11 8 7 7 8 10 13 18 24 30 34 38 40 42 43 44 46
60 60 61 61 61 59 56 54 52 50 49 48 47 47 45 44 43 42 41 41 40 39 36 30 23 17 11 8 6 6 8 10 12 17 23 28 33 36 38 40 42 44 46
59 59 59 60 60 58 55 52 51 50 49 47 46 45 44 43 42 40 39 39 39 38 36 33 27 20 12 8 5 5 7 9 12 16 21 27 32 35 37 39 41 44 46
58 58 58 58 59 58 55 52 49 47 46 46 45 44 43 42 40 39 38 37 37 36 36 33 29 24 16 8 4 4 6 9 12 16 20 25 30 33 36 38 40 42 45
57 56 57 57 58 57 55 52 49 46 45 44 43 43 42 41 40 38 36 35 34 34 34 34 32 27 20 12 5 2 6 9 12 16 19 24 28 31 34 36 38 41 43
56 55 55 56 56 56 55 52 49 46 43 42 41 41 40 40 39 37 36 34 33 32 32 32 32 30 24 17 9 1 5 9 13 16 19 23 26 30 33 35 37 40 42
54 53 53 54 55 55 54 52 49 45 43 41 40 39 39 38 38 37 35 33 32 31 31 31 31 30 28 22 14 5 3 9 14 17 19 22 25 28 31 34 36 38 41
53 51 51 52 53 54 53 52 49 45 42 40 39 39 38 37 37 36 35 33 31 30 30 30 30 30 29 27 21 12 4 8 14 19 21 23 25 28 30 33 35 37 40
51 50 49 50 51 52 52 51 49 45 41 39 38 38 37 36 36 35 34 33 31 30 30 30 30 30 30 29 26 19 10 6 13 19 24 26 27 28 30 32 34 36 39
49 48 47 48 49 50 51 50 48 45 41 39 37 36 36 35 35 35 34 33 32 31 30 30 30 30 30 30 28 24 16 8 9 18 24 28 30 31 32 32 33 35 38
47 45 45 46 47 49 49 49 48 45 41 38 37 35 35 35 34 34 34 33 32 31 31 30 30 31 31 31 30 27 21 13 6 13 22 28 32 34 35 35 35 35 37
45 43 43 44 45 47 48 48 47 44 41 38 36 34 34 34 33 33 33 33 32 32 31 31 31 31 32 32 31 29 24 18 10 8 16 26 32 35 37 37 37 37 38

GEFSGL_500_meanwind_054.txt.gz
Wind_Speed
73 73 73 73 74 75 76 76 74 72 69 67 65 65 64 62 60 59 58 56 52 46 40 33 28 23 19 16 14 12 15 20 26 34 41 46 48 51 55 60 69 82 96
73 74 74 74 74 74 75 75 73 71 68 66 65 64 63 62 60 58 57 55 51 46 40 33 27 23 18 16 13 12 14 17 23 30 36 41 45 47 50 54 61 72 87
74 75 75 74 74 74 75 74 72 70 67 65 64 63 62 61 59 58 56 54 51 46 40 33 27 22 18 15 12 11 12 15 20 26 32 37 40 43 45 49 55 64 77
74 75 75 74 74 74 74 74 71 69 66 64 63 62 61 60 59 57 55 53 50 46 41 34 28 23 19 15 12 10 11 14 17 22 28 33 36 39 42 45 50 58 69
74 75 76 75 74 74 74 73 71 68 66 63 62 61 60 59 58 56 54 53 50 46 41 35 29 24 19 16 13 11 10 12 15 19 24 29 32 35 39 41 45 52 62
74 75 76 75 74 73 73 73 70 67 65 62 61 60 59 58 57 56 54 52 49 46 41 35 30 26 21 17 13 11 9 10 13 17 21 25 29 33 36 38 42 48 56
73 74 75 75 74 73 73 72 70 67 64 61 59 59 58 57 56 55 53 51 48 45 40 36 32 27 23 18 14 11 9 9 10 14 18 22 26 30 33 36 39 45 52
72 73 75 75 73 72 72 71 70 67 64 61 58 58 57 56 55 54 52 50 47 44 40 36 32 28 24 19 15 11 9 7 8 10 14 18 22 26 30 34 37 42 49
71 72 74 74 73 72 71 71 69 67 64 61 58 57 56 55 54 52 51 49 46 43 40 36 31 27 23 20 16 12 9 7 6 7 11 15 19 23 27 31 36 42 48
70 71 72 73 73 71 70 70 69 67 64 61 58 56 55 54 53 52 50 49 46 43 40 36 31 27 24 21 17 14 10 7 4 4 8 12 16 20 24 29 35 41 46
69 70 71 72 72 70 69 69 68 66 63 60 57 56 54 53 52 50 49 48 47 43 39 35 31 27 24 21 18 15 12 7 4 2 4 9 14 18 23 28 34 39 44
67 68 69 70 71 69 68 67 67 65 62 59 56 54 53 52 51 49 48 47 46 43 40 35 31 27 24 21 19 16 13 9 6 3 2 7 13 18 23 28 33 37 42
66 67 68 69 69 68 66 66 65 64 62 59 55 53 51 50 49 48 46 45 44 43 41 37 32 27 24 20 18 17 14 11 8 6 4 6 12 18 24 29 32 36 40
65 65 66 67 67 67 65 64 64 63 61 58 55 52 50 49 47 46 44 43 43 42 40 38 34 28 24 21 17 16 14 12 10 7 6 7 12 19 24 29 31 35 39
63 64 64 65 66 65 64 63 63 63 62 59 55 51 48 47 46 46 44 43 42 41 40 38 36 30 24 20 17 14 13 12 10 8 7 8 13 19 25 28 31 35 39
62 62 62 63 63 63 62 61 61 62 61 58 55 50 47 46 45 45 44 42 41 40 40 38 36 32 26 20 16 13 11 10 9 8 8 9 14 20 24 28 31 34 39
61 60 60 60 61 61 60 59 59 60 60 58 54 50 46 45 44 44 43 41 39 39 39 37 35 33 28 21 16 12 10 9 7 6 7 10 14 19 23 27 31 34 39
59 58 58 58 58 58 58 57 56 57 57 56 53 49 45 43 43 42 42 41 39 38 37 36 35 33 29 24 17 12 8 6 5 5 7 10 14 18 22 26 30 34 38
56 56 56 55 56 56 55 54 54 55 55 55 52 49 45 42 41 41 40 39 38 36 35 35 35 34 31 26 20 13 8 4 2 3 7 11 15 18 22 25 29 33 37
54 53 53 53 53 53 53 52 52 52 53 53 51 48 44 41 40 40 39 38 37 36 35 34 34 34 32 29 23 16 9 3 1 4 7 11 15 18 21 24 27 31 36
51 50 50 50 50 50 50 49 49 50 51 51 50 47 43 40 39 38 38 37 37 36 34 34 33 33 32 31 26 19 11 4 3 7 9 13 16 19 21 24 27 31 34
49 48 48 47 47 47 47 46 46 47 49 50 49 46 43 39 37 37 36 36 36 35 34 33 33 32 32 31 28 22 14 6 4 9 12 15 18 21 22 24 27 30 33
47 46 45 44 44 44 44 44 44 45 46 48 47 45 42 39 37 36 35 35 35 34 34 34 33 32 32 31 30 25 18 9 4 9 14 17 20 22 24 25 27 30 33
45 43 42 41 41 41 41 41 41 42 44 45 46 44 41 38 36 35 34 34 33 34 34 34 33 33 32 31 30 28 22 13 5 8 15 19 22 24 26 28 29 31 33
42 41 39 38 38 38 38 38 39 40 41 43 44 43 41 38 35 34 33 33 33 33 34 34 33 33 33 32 30 29 25 18 8 6 13 19 23 26 28 30 31 32 34
39 37 36 36 35 35 35 36 36 37 39 41 42 42 40 37 35 33 33 32 32 32 33 34 33 33 33 32 31 29 26 20 12 4 10 18 24 27 30 32 33 34 35

GEFSGL_500_meanwind_060.txt.gz
Wind_Speed
55 57 60 62 65 68 69 72 73 74 74 74 74 73 71 69 67 64 62 62 59 57 56 55 52 48 45 41 37 34 31 27 20 16 17 19 21 26 34 43 55 66 77
56 58 60 62 65 68 70 72 73 73 73 74 73 72 70 68 66 63 61 60 58 56 54 53 50 46 43 40 36 33 30 26 21 16 15 17 19 23 29 37 47 58 69
56 58 60 63 65 68 70 72 73 73 73 73 72 71 69 67 65 62 59 59 58 55 53 51 48 44 42 39 35 32 28 25 21 16 14 16 17 21 26 33 41 50 60
57 59 61 63 65 68 70 72 73 72 72 72 71 70 68 66 63 61 58 57 56 54 52 50 47 43 40 38 34 31 28 24 21 17 14 14 16 19 24 31 37 45 53
58 59 61 63 66 68 70 72 72 72 71 71 70 69 67 65 62 60 57 56 55 53 51 48 46 42 39 37 34 30 27 24 21 17 14 13 15 18 23 29 35 41 47
59 60 62 64 66 68 70 71 71 70 70 70 69 68 66 64 61 59 57 56 55 53 50 47 45 41 38 36 33 30 27 24 21 17 14 13 14 17 22 28 33 38 43
60 61 62 64 66 68 70 71 70 69 69 68 68 67 65 62 59 57 55 54 54 52 50 47 44 40 37 34 32 29 26 24 21 17 14 13 13 16 21 27 32 36 41
61 62 64 65 67 68 69 69 69 68 67 66 66 65 63 61 58 56 53 53 52 51 49 46 43 40 36 33 31 28 26 23 20 17 13 12 13 16 20 25 31 35 39
62 63 64 65 67 68 68 68 67 67 66 65 65 64 62 60 57 55 52 51 50 50 48 46 44 40 35 31 29 28 25 23 20 17 14 11 11 14 19 24 29 34 37
62 63 64 65 66 67 66 66 66 65 64 63 63 62 60 58 56 54 51 50 48 47 46 45 44 40 35 30 28 26 24 22 20 17 13 10 9 12 16 22 28 32 36
63 63 63 64 64 65 64 64 64 63 62 61 61 61 59 57 55 53 50 49 47 46 45 43 42 40 35 30 26 25 24 22 20 17 13 9 8 9 14 19 25 30 33
63 63 63 63 62 62 62 62 62 60 60 59 59 59 58 56 53 51 49 48 47 45 44 42 41 39 35 30 26 24 23 22 20 18 13 9 6 7 11 17 22 26 30
62 62 62 62 61 60 60 60 59 58 57 57 57 56 55 54 52 49 48 46 46 44 43 42 40 39 36 31 27 23 22 21 20 18 14 9 5 5 9 14 19 24 27
60 60 60 59 59 59 57 57 56 56 55 55 54 54 53 52 50 48 46 45 44 43 42 41 40 39 37 33 28 25 21 20 19 17 13 9 4 3 6 11 16 20 24
58 58 57 57 56 56 54 54 53 53 52 52 52 51 50 49 48 46 44 42 42 41 41 40 39 38 37 34 29 25 22 20 18 15 12 9 5 1 4 9 14 17 22
55 56 56 55 54 53 51 50 50 50 50 50 49 49 48 47 46 44 42 41 41 40 40 39 38 37 36 34 29 24 21 19 16 13 10 8 5 2 4 8 12 16 21
54 54 54 53 52 51 48 47 47 47 47 47 47 47 46 45 44 43 41 40 39 39 38 38 37 36 35 34 30 24 20 18 15 11 8 6 4 2 4 8 12 16 21
54 52 51 50 49 48 46 44 44 44 44 44 44 44 44 44 43 41 40 39 38 38 37 37 37 36 35 34 31 25 21 17 14 10 6 4 3 2 4 8 12 16 21
52 51 49 48 48 46 43 42 41 42 42 42 42 42 42 42 41 40 38 38 37 36 36 36 36 35 34 33 32 27 21 16 13 9 4 2 2 3 5 9 13 16 22
50 49 47 47 46 44 41 39 39 40 40 40 39 39 40 40 39 38 37 36 35 35 35 35 35 35 34 33 32 29 23 16 12 8 4 0 2 4 7 9 13 16 22
49 48 46 45 43 41 39 37 37 37 38 37 37 37 37 37 37 37 36 35 34 33 33 33 34 34 33 33 32 30 24 17 11 6 3 1 4 6 8 11 14 18 23
49 47 46 44 42 39 36 35 35 35 36 35 35 35 35 35 35 35 34 34 33 32 32 32 33 33 33 32 31 30 26 19 12 6 2 3 6 8 10 12 15 19 22
49 47 44 42 39 36 34 33 33 33 33 32 32 33 33 33 34 34 33 32 32 31 31 31 32 32 33 32 32 30 27 21 13 7 3 5 9 11 12 14 16 20 24
48 45 42 39 36 34 32 31 31 31 31 30 30 30 31 31 32 32 32 31 31 30 30 30 31 32 32 32 32 30 28 23 15 7 4 7 11 13 14 16 19 21 24
44 41 38 36 33 31 29 29 28 28 28 27 28 28 29 29 30 31 31 30 30 30 30 30 30 31 32 32 32 31 29 24 16 7 3 8 13 16 18 19 20 22 24
38 36 34 32 30 28 27 26 26 26 26 25 26 26 27 28 29 29 30 29 29 30 30 30 30 31 32 32 32 31 28 24 15 7 2 8 14 19 21 21 22 23 25

GEFSGL_500_meanwind_066.txt.gz
Wind_Speed
59 60 60 61 62 63 63 64 65 66 67 68 69 70 71 72 72 73 73 74 73 73 73 71 69 68 66 63 62 61 58 57 52 45 43 42 41 39 36 33 27 25 30
60 61 61 61 62 63 64 65 66 67 68 69 69 69 70 71 71 72 72 72 72 71 70 69 67 65 64 61 60 59 56 54 51 46 42 41 39 37 35 32 27 24 27
61 61 62 63 64 65 66 66 67 67 68 69 68 69 69 70 70 70 71 70 70 70 68 67 65 63 62 59 58 57 54 52 49 46 42 40 38 36 34 30 26 24 24
62 63 63 64 66 66 66 66 67 67 68 68 67 68 68 69 69 69 69 69 68 68 66 65 63 62 60 58 56 55 52 49 46 44 42 39 37 35 33 29 25 23 22
63 63 65 66 66 66 66 67 67 68 67 66 65 66 67 68 68 67 67 67 66 65 64 62 61 60 58 56 55 54 51 48 45 42 41 39 37 34 32 28 24 21 20
63 64 65 65 65 66 66 67 67 66 65 64 64 65 65 66 66 66 65 64 64 63 61 59 58 57 56 54 53 52 50 48 44 41 40 39 37 34 31 27 23 19 18
64 64 65 65 65 65 65 64 63 63 63 62 63 64 64 64 65 64 63 62 62 61 59 57 56 55 54 52 51 50 48 46 44 41 39 38 36 33 29 25 22 18 17
63 64 64 63 63 62 62 61 61 60 59 60 60 60 61 62 61 61 60 60 60 59 57 56 54 53 52 50 49 48 47 45 42 40 38 36 34 32 28 24 20 17 16
61 61 60 60 60 59 59 58 58 58 57 57 57 58 58 59 59 58 58 58 57 56 55 54 53 51 50 49 48 47 45 42 40 39 37 35 33 31 27 23 18 16 15
58 58 57 57 57 57 57 56 56 55 55 55 55 55 55 56 56 56 56 55 54 53 52 52 51 50 48 47 47 46 43 40 38 36 35 33 31 29 26 21 17 15 14
55 55 55 56 56 56 55 54 54 53 54 53 53 52 53 53 54 53 53 53 52 51 49 49 48 48 47 46 45 45 43 39 37 35 33 31 29 27 24 20 16 13 13
54 53 53 53 53 53 53 52 52 52 53 51 50 50 51 51 51 51 51 52 51 49 47 47 46 46 45 44 44 44 41 38 36 34 32 30 27 25 22 18 14 11 11
51 50 51 51 50 50 50 50 50 50 49 48 47 47 48 49 49 49 49 50 50 48 46 45 45 44 43 43 42 42 40 36 34 32 30 29 26 23 20 16 13 11 10
52 52 52 52 52 52 51 50 50 50 47 45 45 45 46 47 48 47 47 48 48 46 45 44 44 43 42 41 41 41 40 36 33 31 29 27 25 22 18 15 12 10 10
53 53 53 53 53 52 52 51 50 49 47 45 44 44 45 46 46 45 45 46 46 44 43 42 42 42 41 40 40 39 39 36 32 31 28 26 24 21 16 12 10 8 8
55 55 55 54 54 53 52 51 49 48 45 43 43 43 43 43 43 43 43 44 44 43 41 40 40 40 39 38 38 38 37 35 32 29 27 24 22 19 15 11 8 6 5
56 57 57 56 55 53 51 50 49 46 44 42 42 41 41 41 41 41 41 42 42 41 40 39 39 38 38 37 37 37 36 35 31 28 27 23 20 17 14 10 7 5 4
59 60 59 58 56 53 51 50 48 46 43 41 40 39 39 39 39 39 39 40 40 40 39 38 37 37 37 36 36 36 35 34 31 28 26 22 18 15 12 9 6 4 4
61 60 59 58 56 53 51 50 47 45 42 40 38 38 37 37 37 37 37 38 39 38 37 37 36 36 36 35 35 36 35 34 31 27 24 20 16 13 11 7 5 4 3
61 60 59 57 54 52 50 48 45 42 40 38 36 36 35 35 35 35 35 36 37 37 36 35 35 35 35 35 35 35 35 34 31 26 22 19 15 12 9 6 4 3 4
60 58 58 54 52 50 47 45 42 39 37 35 33 33 33 33 33 33 33 34 35 35 35 34 34 34 34 34 34 35 35 33 30 25 21 18 14 11 8 5 4 4 5
58 56 55 52 49 46 43 41 39 36 33 31 30 30 30 31 31 31 32 33 34 34 34 34 33 33 34 34 34 34 34 33 30 24 20 17 13 10 6 4 4 5 7
56 55 53 49 46 42 39 36 33 31 29 27 26 27 28 29 28 29 30 31 32 33 33 33 33 33 33 34 34 35 34 32 29 23 19 15 11 7 4 4 6 7 8
54 52 49 45 41 37 33 30 28 26 24 23 24 25 26 26 26 27 28 29 31 32 32 32 32 33 33 34 34 35 34 32 27 22 17 13 8 4 4 6 8 8 8
50 47 44 40 36 31 28 25 24 22 21 21 22 23 23 23 24 25 27 28 30 31 31 32 32 32 33 34 35 35 34 30 25 20 15 10 5 3 6 9 9 9 9
44 42 39 34 29 26 23 21 20 20 19 19 19 20 20 21 22 23 25 27 29 30 31 31 32 32 33 33 34 33 31 27 22 17 12 7 1 5 8 10 10 10 10

GEFSGL_500_meanwind_072.txt.gz
Wind_Speed
53 54 55 56 57 58 59 61 62 62 63 65 66 66 66 66 67 66 65 65 63 63 64 66 66 67 67 67 68 68 69 69 69 64 63 63 62 62 60 58 56 54 51
52 53 54 55 57 58 59 60 61 62 63 64 64 65 64 64 64 64 63 62 62 62 63 64 64 65 65 66 66 66 67 67 67 64 61 60 60 59 57 55 53 52 49
52 53 54 55 55 56 57 58 59 61 62 62 62 61 61 61 61 60 60 60 60 61 61 62 63 63 63 63 63 64 65 65 65 63 60 58 57 56 54 52 50 49 47
51 52 53 54 54 55 56 57 58 59 60 59 58 58 58 58 58 57 57 58 58 59 60 62 62 61 61 61 61 62 63 63 62 61 58 56 55 54 53 50 48 47 46
51 51 52 53 54 55 56 57 57 57 57 57 56 56 56 56 55 55 55 56 57 58 59 59 59 59 59 60 60 60 60 60 59 59 57 55 54 53 51 49 47 45 44
51 52 53 54 55 55 56 56 56 55 55 55 55 55 54 53 54 55 55 55 56 56 57 58 58 57 58 58 59 58 58 58 57 57 55 54 53 51 49 48 47 45 42
52 53 53 53 54 54 54 53 53 53 54 53 53 52 53 53 53 53 53 54 55 55 55 56 55 55 56 57 56 56 55 55 55 55 54 53 51 50 48 46 45 44 41
51 51 51 52 52 52 52 52 52 52 52 52 51 52 52 52 52 52 52 53 53 54 54 54 54 54 55 55 54 53 52 52 52 53 52 51 49 47 46 44 43 41 39
50 50 51 51 51 51 51 51 51 51 51 51 51 51 51 51 51 51 52 52 53 52 52 52 53 53 53 53 52 51 50 49 49 50 50 49 47 45 44 43 42 40 37
50 50 50 51 51 51 51 51 51 51 51 52 51 51 52 51 51 51 52 52 52 51 51 51 52 52 51 51 50 49 48 47 47 47 47 46 45 43 42 41 40 38 36
50 51 51 51 51 51 51 52 52 53 53 53 53 53 53 52 52 51 51 51 51 50 50 50 50 50 49 49 48 48 47 46 45 45 45 44 42 41 40 39 38 36 34
51 51 51 52 52 53 54 55 55 55 55 54 54 54 53 52 51 50 50 50 50 49 49 49 49 48 47 47 46 46 45 44 44 44 43 42 41 39 38 37 36 35 33
51 52 52 53 54 55 56 57 56 56 56 55 55 54 53 52 50 48 48 48 48 47 47 47 47 46 45 45 44 44 44 43 42 42 42 40 40 38 36 35 34 33 31
53 54 55 56 56 57 57 58 58 58 57 56 55 54 53 50 48 47 46 46 46 46 46 45 45 44 43 43 43 43 42 41 41 41 40 39 38 36 35 33 32 30 28
56 56 57 57 58 58 58 59 59 58 58 56 55 54 52 49 47 46 45 44 44 44 44 44 43 42 41 41 41 41 41 40 40 40 39 37 36 35 33 31 29 27 24
57 57 57 57 58 58 59 59 59 58 57 55 54 53 51 48 46 44 43 42 42 42 42 42 41 40 40 40 40 40 39 39 39 39 38 36 35 33 30 28 27 24 23
57 57 57 58 58 59 59 59 58 57 55 54 52 51 48 45 43 41 40 40 40 40 40 39 39 38 38 38 38 38 38 38 38 38 37 36 33 30 27 26 25 24 22
57 57 58 58 59 59 59 58 57 55 52 50 49 47 45 42 40 38 38 38 38 37 37 37 36 37 37 37 36 36 36 37 37 37 36 34 31 27 25 25 24 23 21
56 56 57 58 58 57 56 55 53 51 49 47 45 43 40 38 37 35 35 35 35 35 35 34 35 35 35 35 35 35 36 36 37 36 34 31 28 26 25 24 24 23 20
54 55 56 56 55 54 52 50 48 47 45 43 41 38 35 33 32 32 32 32 32 32 32 32 33 34 34 34 34 34 35 36 36 35 32 30 27 26 24 24 23 20 18
52 53 53 53 52 51 49 46 45 43 40 39 35 32 30 29 29 29 29 29 29 30 30 31 32 32 33 33 33 34 35 36 35 33 31 28 27 25 23 22 20 18 15
51 51 51 50 49 47 45 43 41 39 37 34 30 28 27 26 25 25 25 26 27 28 29 30 31 31 31 32 33 34 35 35 33 31 29 27 25 23 21 19 17 14 12
49 49 48 47 46 44 42 40 39 35 32 29 26 25 23 22 22 22 23 24 25 26 27 29 30 30 31 32 33 34 34 33 31 29 28 26 24 21 18 16 13 11 10
47 47 46 44 43 42 39 37 34 30 27 26 24 22 20 20 20 21 21 22 24 25 26 28 29 30 30 31 33 33 32 30 29 27 26 23 20 17 15 12 10 9 8
46 44 43 42 40 38 35 32 29 27 25 24 21 19 18 18 19 19 20 21 22 24 25 27 28 29 30 30 31 30 29 27 26 24 22 19 16 13 11 9 8 7 6
43 41 40 39 37 35 32 30 27 25 24 21 18 17 17 17 17 18 19 20 21 22 24 25 27 27 28 28 28 27 25 24 22 20 18 15 12 9 7 6 5 5 5

GEFSGL_500_meanwind_078.txt.gz
Wind_Speed
51 52 54 55 57 58 58 59 60 60 61 62 62 61 60 59 60 61 61 62 63 63 64 64 63 63 63 62 62 63 62 62 60 59 60 62 63 63 63 64 65 66 67
50 51 53 54 55 56 57 58 58 59 59 59 60 60 60 60 60 61 61 62 63 63 63 63 62 62 61 61 62 62 62 61 60 59 59 61 62 63 63 64 65 66 66
51 52 53 54 55 55 56 57 57 58 58 59 59 60 60 60 61 61 61 62 62 62 61 61 60 60 60 61 61 61 61 60 60 60 61 61 62 63 64 64 64 64 64
53 54 54 55 56 56 56 57 57 58 59 59 60 60 61 62 62 62 63 62 62 61 61 60 60 60 60 60 60 60 60 60 60 61 61 61 61 62 63 63 63 62 62
55 55 56 56 56 57 57 57 57 58 59 59 60 60 61 61 61 62 62 62 61 60 60 59 59 59 59 59 59 59 59 59 60 61 61 61 60 62 62 62 62 60 58
57 57 57 57 57 58 58 57 58 59 59 59 59 59 59 60 61 61 62 61 60 60 59 59 59 59 60 59 59 58 58 59 60 61 61 60 60 61 61 61 60 59 56
59 59 59 59 60 59 59 59 59 59 59 59 59 59 60 60 61 61 62 60 59 59 59 59 59 59 59 59 58 58 59 59 59 60 59 59 59 59 59 58 58 57 55
62 62 61 61 61 61 60 60 60 59 59 59 60 60 60 60 61 61 61 61 60 60 60 59 59 58 58 57 57 57 58 58 58 59 58 57 58 57 57 56 56 55 52
64 63 62 62 62 61 60 60 60 60 59 59 59 60 59 60 61 61 61 61 61 60 59 59 58 57 56 56 56 56 56 56 57 57 56 56 55 55 55 54 54 53 50
64 63 62 62 62 61 61 61 60 60 59 59 59 59 59 59 59 60 61 60 60 59 58 58 57 56 55 56 56 55 55 54 54 53 53 53 53 52 52 53 53 52 50
64 63 62 62 62 61 61 60 60 59 59 59 59 59 58 58 58 59 59 59 59 58 57 56 55 55 55 55 55 54 53 52 51 50 50 50 50 49 49 50 51 51 50
63 62 61 61 61 61 60 59 59 59 58 58 58 57 57 57 57 57 58 58 58 56 55 55 54 53 52 53 52 52 51 49 48 48 48 47 47 47 47 48 49 49 49
61 61 60 60 59 59 59 58 57 57 57 57 57 56 55 55 56 56 56 56 56 55 54 52 51 50 50 50 49 48 47 46 46 46 45 45 45 45 46 47 47 47 47
60 59 58 57 57 56 56 56 56 55 55 56 56 55 54 54 54 54 54 53 52 51 50 49 48 47 46 45 44 44 44 44 43 44 43 43 43 44 45 46 45 45 43
58 57 56 55 54 53 53 53 53 53 54 55 54 53 52 51 51 51 50 48 47 46 45 44 43 42 41 40 40 41 42 41 41 42 41 41 42 43 44 44 43 41 38
55 54 53 52 52 51 50 50 50 51 52 52 51 50 49 48 48 47 45 44 43 42 41 40 39 38 38 38 38 38 38 39 40 40 40 40 41 42 42 41 40 38 36
53 51 51 50 50 49 49 49 48 48 49 49 48 47 46 45 44 43 43 41 40 38 37 36 36 35 35 35 35 36 36 37 38 38 38 39 40 40 39 38 37 36 35
50 50 49 49 48 48 48 48 48 48 46 45 45 44 42 42 42 41 40 38 36 34 34 34 33 33 32 32 33 34 34 35 36 37 37 39 39 38 37 36 36 35 34
48 47 46 46 46 46 46 46 46 46 45 43 42 41 40 40 39 38 36 33 32 31 31 30 29 29 30 31 32 32 33 34 34 35 37 38 37 36 35 35 34 33 32
45 44 44 44 44 44 45 45 44 43 43 42 40 39 38 37 36 34 32 30 29 27 26 26 26 27 28 29 30 31 32 32 34 35 35 35 34 34 33 33 32 31 31
43 42 43 43 43 43 43 43 43 42 41 40 38 36 35 34 32 31 28 26 25 25 25 25 26 27 28 29 29 30 30 31 32 33 33 32 31 31 32 31 30 30 29
42 41 41 41 41 41 42 42 41 40 40 38 35 33 32 31 30 28 25 24 24 24 25 25 25 26 27 28 28 29 29 30 30 30 30 30 30 30 30 29 28 28 27
41 41 40 40 40 40 40 39 38 37 36 34 31 29 29 28 26 24 23 22 22 23 24 24 24 25 26 27 27 27 27 28 28 28 28 28 29 29 28 27 26 25 24
40 39 39 38 38 39 38 37 35 33 32 30 28 28 27 25 23 22 22 21 22 22 22 23 24 25 25 25 26 26 25 25 26 26 26 26 27 26 25 24 23 22 21
38 37 37 37 38 37 36 34 32 30 29 28 27 26 24 23 22 22 21 21 22 22 23 23 24 24 25 25 25 25 24 24 25 25 25 25 25 24 23 22 21 20 18
36 36 36 36 36 36 34 31 30 28 27 27 25 24 23 22 21 21 21 21 22 22 22 23 23 23 23 23 23 22 22 23 23 23 22 22 22 21 20 19 18 17 15

GEFSGL_500_meanwind_084.txt.gz
Wind_Speed
46 48 50 52 53 55 56 58 59 60 61 62 63 64 64 65 65 66 65 66 66 66 66 66 66 66 66 65 66 66 66 66 65 62 62 62 63 63 62 62 61 61 60
52 54 55 57 59 60 61 62 63 64 64 65 65 66 66 66 66 67 67 67 66 66 67 67 66 67 66 66 66 66 66 66 65 63 62 63 62 63 62 62 62 62 61
57 59 61 62 63 64 65 66 66 67 67 67 68 68 68 68 68 68 68 68 68 67 67 67 67 67 66 66 66 65 64 65 64 63 62 62 62 63 63 62 62 62 61
63 64 66 67 68 69 69 70 70 70 69 69 70 69 69 70 70 69 69 69 68 67 66 66 65 65 65 65 65 64 64 64 64 63 62 62 62 63 63 62 62 62 62
68 70 71 72 73 73 73 73 73 72 72 71 71 71 71 70 70 70 70 69 67 66 66 65 64 64 64 64 64 64 64 64 63 63 62 62 62 62 62 62 62 62 62
73 75 76 77 77 76 76 75 74 73 72 71 71 71 70 69 69 69 69 67 66 66 64 64 63 64 63 64 64 64 64 64 63 62 61 61 61 61 62 62 62 63 62
78 79 80 79 78 77 76 74 73 72 71 70 69 68 68 67 67 66 66 65 64 63 62 62 62 62 63 63 63 64 63 62 62 61 60 59 60 60 61 62 62 62 61
81 81 80 78 77 75 73 72 70 69 68 67 65 65 64 64 64 63 63 62 61 60 60 60 61 61 61 61 61 61 60 60 60 60 59 59 59 59 60 60 61 61 60
81 79 77 75 73 71 69 68 66 65 63 63 62 61 60 59 59 59 60 59 58 58 58 58 58 57 57 58 58 57 57 57 58 58 59 58 57 57 58 59 59 59 58
78 76 73 71 69 67 65 63 62 61 60 59 58 57 57 56 56 56 57 56 56 55 55 54 54 54 54 55 55 55 55 55 56 56 57 56 56 56 57 57 57 57 56
74 71 69 66 64 63 61 60 59 57 56 55 53 53 53 53 53 53 54 53 52 51 50 49 50 51 52 53 54 53 52 52 52 53 53 53 54 53 54 55 55 55 55
70 66 64 61 60 59 58 56 55 54 53 52 50 50 50 50 50 50 49 49 49 48 47 48 49 50 50 50 50 50 49 50 50 50 49 49 50 51 52 52 52 53 53
65 62 59 57 56 56 54 53 51 51 50 49 48 47 46 47 47 47 47 47 47 47 47 47 48 48 49 49 49 48 48 48 48 47 46 46 48 49 49 49 50 50 50
61 57 55 54 52 51 50 49 48 48 47 46 46 46 45 45 44 44 45 45 45 46 46 46 46 46 46 46 46 46 45 45 44 45 45 45 46 46 46 47 47 48 47
56 54 51 50 49 48 47 46 46 46 46 46 45 45 44 42 42 43 43 43 43 43 43 42 42 43 43 43 42 42 42 42 43 43 43 42 43 44 44 44 45 45 45
53 50 49 47 46 45 44 43 43 44 44 44 44 44 42 41 41 41 41 40 40 40 40 40 40 39 39 39 39 39 40 40 41 41 41 41 41 41 42 43 44 44 44
50 48 47 45 44 43 43 42 40 40 41 41 41 41 41 40 40 39 39 38 38 37 37 37 36 35 35 35 35 36 36 37 37 38 39 39 39 39 40 41 42 43 43
48 47 45 43 42 42 42 41 41 39 38 38 39 40 39 38 37 37 36 35 34 34 34 33 33 33 32 32 32 33 33 34 35 35 36 37 37 38 38 39 39 39 38
45 44 43 42 42 42 41 41 40 39 39 38 37 37 37 36 36 35 34 33 32 32 32 31 30 30 29 29 30 30 30 31 32 33 34 34 35 35 35 35 36 35 35
44 43 42 41 41 41 41 40 39 39 38 37 35 35 34 34 33 33 32 32 32 31 30 29 28 28 28 28 28 29 29 30 30 31 31 31 32 32 32 33 33 33 34
43 42 41 41 41 40 40 39 38 37 36 34 34 33 33 33 32 31 31 31 30 29 28 27 27 27 27 28 28 28 28 28 28 28 28 29 30 30 31 31 32 32 33
42 41 40 39 39 39 38 37 36 35 35 33 33 33 32 32 31 30 30 29 27 26 25 26 26 26 27 27 27 27 27 26 26 26 27 28 29 29 29 30 30 31 32
41 40 39 38 38 37 36 36 35 35 33 32 31 31 31 30 30 29 28 27 26 25 25 25 26 26 26 26 26 25 25 25 25 25 25 26 26 27 28 28 29 30 31
40 39 38 37 36 35 35 35 34 33 32 31 30 30 29 28 28 27 26 25 24 24 24 25 25 26 26 26 25 25 24 24 23 24 24 24 25 26 27 28 28 29 30
38 37 36 35 34 34 34 34 33 32 30 29 28 28 27 27 26 25 24 24 23 23 24 25 25 25 25 25 25 24 24 23 24 24 25 25 26 26 26 26 27 27 28
35 34 33 34 34 33 33 32 31 29 28 27 27 26 26 26 25 24 23 23 23 23 24 25 25 25 26 25 25 25 24 24 24 25 26 26 26 25 25 24 25 26 26

GEFSGL_500_meanwind_090.txt.gz
Wind_Speed
47 49 51 54 56 59 61 64 66 68 71 73 74 76 78 79 80 81 82 82 82 82 82 83 82 82 83 82 82 82 81 80 78 73 73 73 74 73 73 73 72 71 70
52 54 56 59 61 64 66 69 71 74 76 78 80 82 83 84 85 85 84 84 84 83 83 83 83 83 83 82 82 81 81 80 78 75 73 73 73 73 73 72 71 70 70
56 58 61 64 66 69 72 74 76 79 81 83 85 85 86 86 86 85 84 83 83 82 81 81 80 80 80 79 80 79 78 78 77 75 72 72 72 72 72 71 70 69 68
61 63 66 69 72 74 77 79 81 83 85 86 87 86 85 84 83 82 81 80 79 78 77 76 76 76 76 76 76 75 75 75 74 73 71 70 70 69 69 67 67 66 67
66 68 71 74 77 79 81 83 85 87 87 87 85 83 82 80 79 78 77 75 73 72 71 71 70 70 70 70 70 70 70 70 70 69 68 67 66 66 65 65 66 66 67
70 73 76 78 81 83 85 86 87 87 85 84 81 79 77 75 73 72 71 69 68 66 65 65 64 64 64 64 63 64 65 65 66 66 65 64 63 63 64 64 65 65 65
74 77 80 82 84 86 87 86 85 84 81 79 76 73 71 69 67 66 65 64 62 60 59 59 58 58 58 59 59 59 60 60 61 61 61 60 60 61 62 62 62 62 61
78 80 83 85 86 86 85 83 81 79 76 73 70 67 64 62 61 60 59 57 56 55 55 54 54 54 55 55 55 55 55 56 56 55 54 54 56 57 59 60 60 59 59
81 82 84 85 85 83 81 78 76 73 70 67 64 61 59 57 56 55 54 53 51 50 50 50 50 50 51 51 52 51 50 51 52 52 52 52 52 53 55 55 55 56 55
82 83 83 83 82 79 77 74 71 68 65 61 57 56 55 53 53 52 51 50 48 46 46 46 47 47 47 47 48 48 47 47 48 49 49 49 50 51 52 52 52 53 52
83 82 81 80 77 75 72 69 65 62 59 55 53 52 51 51 50 49 48 47 45 44 43 43 44 44 44 44 44 44 44 44 45 46 47 47 48 49 50 51 51 51 50
81 80 78 75 73 70 67 63 60 57 54 52 50 48 48 48 48 46 45 45 44 43 42 41 40 40 41 41 41 41 42 43 43 44 46 46 47 48 49 50 51 51 50
78 76 74 71 68 64 61 58 55 53 52 50 48 46 45 45 45 44 43 43 43 42 41 39 38 38 38 39 39 40 40 41 42 42 43 44 45 46 47 48 49 50 50
75 72 69 66 62 59 57 55 53 51 50 48 46 45 44 43 42 42 42 41 41 40 39 38 38 38 38 39 39 39 39 39 40 40 40 41 42 43 43 44 45 46 47
71 68 64 61 58 55 53 51 50 49 48 47 46 45 44 42 41 41 40 39 39 38 38 38 38 38 38 38 38 38 38 38 38 37 37 38 38 38 39 41 42 42 43
67 63 60 57 54 52 50 47 46 47 46 46 46 45 44 43 41 40 39 38 37 38 38 38 38 38 38 37 36 36 36 35 35 35 35 35 35 36 37 38 39 39 40
63 60 57 54 52 50 48 46 44 43 43 44 45 45 44 42 41 40 39 37 37 37 37 36 36 36 36 35 34 33 33 33 33 33 33 34 34 34 35 36 36 36 37
59 56 54 52 50 49 47 45 44 42 40 40 42 43 43 42 41 39 38 37 37 37 36 35 35 34 33 32 32 31 31 30 30 31 31 32 32 32 32 33 33 33 34
55 53 51 49 48 48 46 44 43 42 41 40 40 40 40 40 39 38 38 37 36 35 34 34 33 32 31 30 29 28 28 28 28 28 29 29 30 30 30 30 31 31 32
52 51 50 48 47 46 44 43 42 41 40 40 39 38 38 37 36 36 35 35 34 33 32 31 30 29 27 27 27 27 27 27 27 28 28 28 29 29 29 29 29 30 31
50 48 47 47 46 45 43 41 40 40 39 38 38 38 37 35 34 34 33 32 32 31 31 29 28 27 27 26 26 27 27 28 28 28 28 28 28 28 28 28 28 29 30
48 46 45 45 44 43 41 40 39 38 38 38 37 36 35 35 34 33 32 31 31 31 30 28 27 27 27 27 27 27 28 28 28 28 28 27 27 27 27 28 28 29 30
46 45 44 43 42 41 40 39 38 37 37 36 35 35 34 34 33 32 31 31 31 30 29 28 28 28 28 28 28 28 29 29 28 28 28 28 27 27 28 28 29 30 31
44 43 42 41 40 39 38 37 37 36 36 35 34 34 34 33 32 31 31 31 31 30 29 28 28 28 28 28 29 29 29 29 28 28 27 27 27 27 28 28 29 29 30
42 41 40 39 38 37 36 36 35 35 34 33 34 33 33 32 32 32 31 31 30 29 29 28 28 28 28 28 29 29 29 28 28 27 27 27 27 27 27 28 29 30 30
40 39 38 37 35 35 35 34 33 33 32 32 32 32 32 32 32 32 31 30 29 29 28 28 28 28 28 29 29 29 29 28 27 27 27 27 27 27 28 28 29 29 30

GEFSGL_500_meanwind_096.txt.gz
Wind_Speed
41 42 44 46 48 50 52 54 57 59 62 64 67 70 72 75 77 79 81 83 84 85 86 86 86 86 86 86 86 87 87 88 88 84 85 86 86 85 84 83 83 83 82
44 46 47 49 51 54 56 59 61 64 66 69 72 74 76 79 81 82 84 85 85 85 84 84 83 82 81 80 80 79 79 79 80 79 77 79 80 80 79 79 78 78 77
47 49 51 53 55 57 60 63 65 68 71 73 76 78 80 82 83 84 85 85 84 82 81 79 77 75 74 73 72 72 71 71 72 71 69 70 71 72 72 72 72 71 70
51 52 54 56 59 61 64 67 69 72 75 77 79 81 82 84 84 84 83 82 80 77 75 72 70 68 66 65 64 64 63 63 63 63 61 61 62 63 64 63 64 65 66
53 55 57 60 62 65 68 70 73 75 78 80 81 83 83 84 83 82 80 77 74 71 67 65 62 61 60 59 58 57 58 58 58 58 57 56 56 57 58 59 60 61 62
56 58 61 63 66 68 71 73 76 78 80 81 82 83 82 81 79 76 74 71 67 63 60 57 56 56 55 55 54 54 54 54 53 53 53 52 50 52 54 55 56 57 58
59 61 64 66 69 71 74 76 78 80 81 82 81 80 78 75 73 70 68 65 61 57 55 53 52 52 52 51 51 51 50 50 50 50 49 48 47 48 49 50 52 52 53
61 64 67 69 71 74 76 78 80 81 81 80 79 76 73 70 67 65 62 58 55 52 52 51 50 49 49 48 48 47 47 47 47 48 47 45 45 45 46 46 48 48 48
64 66 69 72 74 76 78 79 80 80 79 77 75 72 68 65 62 59 56 53 51 50 49 48 47 47 46 47 46 45 44 43 45 46 46 45 44 44 44 44 44 45 44
66 69 71 74 76 78 79 80 80 79 76 74 70 67 64 61 58 55 53 51 49 48 46 46 45 45 45 45 45 44 43 43 43 43 43 42 42 42 42 42 42 43 44
68 70 73 75 77 78 79 79 78 76 73 70 67 63 60 57 54 51 50 49 48 46 44 43 43 43 43 43 43 43 42 42 41 40 40 39 40 40 41 41 41 42 42
70 72 74 76 78 79 78 77 75 73 69 66 62 59 56 53 50 48 47 47 46 44 43 43 42 42 42 42 41 41 41 41 40 40 39 39 39 39 39 39 40 40 40
71 74 75 77 77 78 76 74 72 69 65 62 59 55 51 49 48 46 45 45 45 44 43 42 42 41 41 41 41 40 40 40 40 39 39 38 38 37 37 36 37 38 38
73 75 76 77 77 75 74 71 68 65 61 58 55 52 48 46 45 44 43 43 43 43 43 42 41 40 40 40 39 39 39 39 39 38 38 37 36 35 35 35 35 36 37
75 76 77 76 76 73 70 67 64 60 58 55 52 50 47 45 43 42 41 41 41 41 40 39 39 39 38 38 38 38 37 37 37 36 35 34 33 33 33 33 34 35 36
75 76 76 75 73 71 67 63 59 57 54 52 51 49 47 44 42 41 40 40 40 39 38 37 37 36 36 36 35 35 34 34 33 32 31 30 30 30 31 32 33 33 34
76 76 75 74 71 68 64 60 56 52 50 49 48 47 46 43 41 40 39 38 38 37 36 36 36 35 35 34 33 32 32 31 29 28 28 27 28 28 29 30 31 31 31
75 75 73 71 68 64 61 58 54 51 47 45 45 45 44 42 40 39 38 37 36 36 36 36 35 34 34 33 32 31 30 29 28 28 27 27 27 28 28 28 28 29 29
74 73 70 67 63 60 57 54 52 49 46 44 42 42 41 40 39 38 38 36 36 36 36 35 34 33 33 32 31 30 29 28 28 28 27 27 28 28 28 28 28 28 29
72 69 66 63 59 56 54 52 49 47 45 43 41 40 39 38 37 37 36 36 36 35 35 35 34 33 33 32 30 29 28 28 28 28 27 27 28 28 28 28 28 28 29
68 65 62 59 56 53 51 49 47 45 44 42 41 40 39 37 35 35 34 35 35 34 34 34 33 33 32 31 29 28 28 27 27 27 27 27 27 27 28 28 28 29 29
64 61 58 56 53 50 48 47 45 44 42 41 39 38 37 36 35 34 34 34 34 34 34 33 32 32 31 30 29 28 28 27 27 27 27 28 28 29 29 30 30 30 30
60 57 55 53 50 48 46 45 43 42 41 40 38 37 36 35 35 34 34 34 34 34 33 33 32 31 30 29 29 28 28 28 28 28 28 29 29 29 30 30 31 31 31
56 54 52 50 47 45 44 43 42 40 39 38 37 36 35 34 34 34 33 33 33 33 32 31 30 30 29 29 28 28 28 28 28 29 29 29 29 29 29 30 30 31 31
53 51 49 47 45 43 42 41 40 39 37 36 35 34 33 33 33 33 32 32 32 31 30 30 29 28 28 28 28 28 28 29 29 30 30 30 30 30 30 30 30 30 30
50 48 46 44 43 41 40 39 38 36 35 34 34 33 32 32 32 32 32 31 30 29 29 28 28 27 27 27 27 28 28 29 30 30 31 31 31 31 31 31 30 30 30

GEFSGL_500_meanwind_102.txt.gz
Wind_Speed
41 42 43 44 45 45 46 48 49 51 52 53 55 56 58 60 62 64 66 68 70 72 73 75 76 78 79 80 81 81 80 81 81 77 75 75 74 73 72 71 70 70 70
43 44 45 46 46 47 48 50 51 53 54 56 57 59 61 63 65 67 69 71 73 74 75 77 78 79 79 79 78 77 76 75 76 73 69 67 66 65 65 64 63 63 62
45 45 46 47 48 49 51 52 54 55 57 58 60 62 64 66 68 70 72 73 74 76 77 78 78 78 77 76 74 73 71 70 69 67 63 60 60 59 59 58 58 58 58
46 47 48 49 51 52 53 55 56 58 59 61 63 65 67 69 71 72 74 75 76 77 78 78 77 75 74 72 70 67 66 64 63 61 58 56 55 54 55 54 53 53 53
48 50 51 52 53 54 55 57 58 60 61 63 65 67 69 71 73 74 76 77 77 77 76 75 73 71 69 67 65 62 61 60 58 57 55 53 51 50 50 50 50 49 48
51 52 53 54 55 56 58 59 60 62 63 65 67 69 71 73 75 76 78 78 77 76 74 71 68 66 64 62 60 58 57 56 54 53 52 50 48 48 48 48 47 47 46
52 53 54 55 56 58 60 61 62 63 65 67 69 71 73 74 76 77 78 78 76 73 71 68 65 62 60 58 56 54 53 52 51 51 50 48 47 47 47 46 47 46 45
53 54 55 57 58 59 61 62 64 66 67 69 71 73 74 76 77 77 77 76 73 70 67 65 62 59 57 54 52 50 48 48 49 49 48 47 47 46 46 46 46 46 44
54 55 57 58 59 61 62 64 66 68 69 71 73 75 76 76 76 76 75 73 69 66 64 61 58 56 53 51 49 47 46 46 47 47 47 47 46 46 46 46 45 45 43
55 56 58 59 61 62 64 66 68 70 71 73 75 76 77 76 75 74 73 71 67 64 60 57 55 52 50 48 47 46 45 45 45 44 44 45 45 45 45 45 45 44 43
56 57 59 61 63 64 66 68 70 72 73 75 76 76 75 74 72 71 69 67 64 61 57 54 51 49 47 46 46 46 45 44 43 43 42 42 42 42 42 43 43 43 42
57 59 60 62 64 66 68 70 72 74 75 76 75 74 73 71 70 68 66 64 61 58 54 50 47 46 45 44 44 44 44 43 42 41 40 39 39 39 39 39 40 40 39
59 61 63 64 66 68 70 72 74 75 76 75 75 73 71 69 67 65 62 60 57 54 51 47 45 44 42 42 42 41 41 40 40 39 38 37 37 36 36 35 35 35 35
61 63 64 66 68 70 72 74 75 75 75 74 73 72 69 66 64 61 58 55 52 49 47 44 43 42 41 40 39 39 39 38 38 38 37 36 35 34 34 33 32 32 31
63 64 66 68 70 72 73 74 74 74 74 73 72 70 68 64 61 58 55 51 48 46 43 41 39 39 38 37 37 37 37 37 37 36 35 34 33 32 31 31 30 28 27
65 67 69 71 72 73 74 74 73 73 72 70 69 67 65 62 58 54 51 48 45 43 42 39 38 37 36 36 36 35 36 36 35 34 33 32 31 30 29 28 27 27 26
67 69 71 72 74 75 75 75 73 70 69 67 65 63 61 58 55 51 48 46 43 42 40 38 37 36 36 35 34 34 34 34 34 33 32 31 30 28 27 27 26 26 26
70 71 73 74 75 76 75 74 73 71 67 63 61 59 57 54 51 48 46 44 41 40 38 37 36 36 35 34 33 33 33 33 32 31 31 30 29 28 27 27 27 27 27
72 73 75 76 76 75 74 73 71 68 65 61 58 55 53 50 47 45 44 42 40 38 37 36 36 35 34 33 33 33 32 32 31 30 30 29 29 28 28 28 28 28 28
74 75 76 76 75 74 73 71 68 65 62 59 55 52 49 46 44 42 41 40 39 37 35 35 35 34 34 33 33 32 31 31 31 30 29 29 29 29 28 28 28 28 28
76 76 76 75 74 73 71 68 65 62 59 55 52 49 47 44 42 40 39 38 36 35 34 34 34 34 33 33 32 31 31 31 30 30 29 29 29 29 29 29 30 30 29
77 76 75 74 72 70 67 64 62 58 55 52 49 45 44 42 40 39 37 36 35 34 34 34 33 33 32 31 31 30 30 30 30 30 30 30 30 30 30 30 30 30 30
76 74 73 71 69 67 64 61 58 55 52 49 46 43 41 40 38 37 36 34 33 33 33 33 32 32 31 31 31 30 30 30 30 30 30 30 30 30 30 30 30 31 31
74 72 71 69 66 63 59 56 53 51 48 45 43 41 39 38 36 35 34 32 32 32 32 32 31 30 30 30 30 30 30 30 31 31 30 30 30 30 31 31 31 31 31
71 70 68 65 62 58 55 52 49 47 44 42 40 38 37 36 35 33 32 31 31 31 30 30 30 30 30 30 30 30 30 31 31 31 31 30 30 30 31 31 31 31 31
68 66 63 60 57 54 51 49 46 44 41 39 37 36 35 34 33 31 30 30 30 30 29 30 30 30 30 29 29 30 30 31 31 31 31 30 30 31 31 31 31 31 32

GEFSGL_500_meanwind_108.txt.gz
Wind_Speed
38 40 41 42 43 44 45 46 46 47 48 49 50 51 52 53 55 56 57 59 60 61 62 64 65 66 67 69 70 71 73 75 77 76 77 78 78 78 77 76 75 74 72
40 41 42 43 44 45 46 47 47 48 49 50 51 52 54 55 56 58 59 60 61 62 63 64 66 67 69 70 72 73 75 76 78 78 77 77 77 76 74 72 70 68 67
42 43 44 45 46 46 47 48 49 50 51 52 53 54 55 57 58 60 60 61 62 63 64 66 67 69 70 72 74 75 76 78 79 79 77 75 73 72 70 67 65 63 62
44 45 45 46 47 48 49 50 51 52 53 54 55 56 57 58 60 61 61 62 63 65 66 67 69 71 73 74 75 77 78 78 77 77 75 72 69 67 65 63 60 59 58
45 46 47 48 49 50 51 52 53 54 54 56 57 58 59 60 61 62 62 64 65 66 67 69 71 73 74 76 77 77 76 75 74 72 70 67 64 62 61 59 57 55 54
46 47 48 49 50 51 52 53 54 55 56 57 58 59 60 61 62 63 65 66 67 68 70 71 73 74 75 75 76 75 74 73 71 69 66 63 60 58 57 55 54 52 50
47 48 49 51 52 53 54 55 55 56 57 58 59 60 61 63 64 66 67 69 70 71 72 73 73 73 74 74 73 72 70 69 68 66 63 59 57 55 53 52 51 49 47
48 50 51 52 53 54 54 55 56 57 59 60 61 62 63 65 67 68 69 71 72 72 73 74 73 73 73 73 71 69 67 66 64 63 60 56 53 51 50 49 47 46 44
50 51 52 53 54 54 55 56 58 59 60 61 62 64 66 67 69 70 72 73 73 73 73 73 73 73 72 71 70 67 64 61 60 58 55 52 50 49 48 46 45 44 42
51 51 53 54 55 56 57 58 59 61 62 63 64 66 68 69 71 73 74 74 74 73 73 72 72 72 70 69 67 64 60 57 54 52 49 48 47 45 44 43 42 41 40
51 52 54 55 56 57 58 59 61 62 64 65 67 68 70 72 74 74 75 75 75 74 72 71 70 69 67 65 62 60 56 53 49 47 45 43 42 41 40 40 40 40 38
52 53 54 55 57 58 60 61 63 65 66 68 69 70 72 74 74 75 75 75 75 74 72 70 68 66 63 60 57 54 52 49 46 43 41 39 38 37 37 37 38 37 36
53 54 55 57 58 60 62 63 65 67 69 71 72 73 74 74 74 75 75 75 74 73 70 68 65 62 59 56 53 50 48 45 43 40 37 36 35 34 34 35 35 34 33
54 55 57 59 60 62 64 66 68 70 72 74 75 76 75 74 75 75 74 73 72 70 67 64 61 58 55 52 49 47 45 43 40 37 35 34 34 33 33 32 32 31 30
56 58 59 61 63 64 66 68 71 73 76 77 77 77 77 75 75 75 73 71 69 66 63 60 56 53 50 48 45 43 42 39 37 36 35 33 33 32 31 31 30 29 29
58 60 61 63 65 67 69 71 73 75 77 78 78 79 78 77 75 73 71 69 66 63 60 56 52 49 46 44 42 40 38 36 35 35 34 33 32 30 30 30 29 28 27
60 62 64 66 68 70 73 75 76 76 76 77 78 78 77 76 73 71 68 66 63 59 55 51 48 45 43 41 39 37 35 34 34 33 32 31 30 29 29 28 28 27 27
63 65 67 69 71 74 76 78 79 79 77 76 76 76 75 73 71 68 65 62 58 54 51 48 45 43 41 39 37 35 34 33 33 32 31 30 29 29 28 27 27 27 26
66 68 71 73 75 77 79 80 80 80 79 77 75 73 72 70 67 64 61 58 54 50 47 44 42 41 39 38 36 34 33 32 31 31 30 29 29 28 27 27 27 26 26
69 72 74 76 77 79 80 81 80 79 78 77 74 71 68 65 61 58 55 53 50 47 44 42 40 39 38 36 34 32 31 31 30 30 29 28 28 27 27 26 26 26 26
72 74 76 78 80 81 81 81 80 78 76 74 70 66 63 60 57 53 51 48 45 43 41 39 37 36 35 33 32 30 30 29 29 28 28 27 27 27 27 26 26 26 26
76 77 79 80 81 82 81 79 78 76 73 70 65 61 59 56 53 49 47 44 42 40 38 37 35 34 33 31 30 29 28 28 28 28 27 27 27 27 26 26 26 26 26
78 80 81 81 82 80 78 76 75 72 69 65 61 57 54 51 48 46 43 40 38 37 36 35 33 32 30 29 28 28 27 27 27 27 27 27 27 27 26 26 26 26 26
80 81 81 81 79 76 74 72 69 66 63 59 56 52 49 46 44 42 39 37 36 35 34 32 31 30 29 28 27 27 27 27 27 27 27 27 27 27 26 27 27 27 27
80 80 79 77 75 72 69 66 63 60 57 53 50 47 44 42 40 38 36 35 33 32 31 30 29 28 27 27 27 27 27 27 27 27 27 27 27 27 27 27 28 28 27
78 77 75 72 70 67 64 61 58 54 51 47 45 42 40 38 36 35 33 32 31 30 29 28 28 28 27 27 27 27 27 27 27 27 27 27 27 28 28 29 29 29 29

GEFSGL_500_meanwind_114.txt.gz
Wind_Speed
37 38 39 39 40 41 42 43 44 45 46 47 47 48 49 49 50 51 52 53 54 55 55 56 58 59 59 60 61 62 63 64 65 65 66 67 68 69 70 71 72 73 74
38 39 40 41 41 43 44 45 46 47 48 48 49 49 50 51 52 53 54 54 55 56 57 58 58 60 60 61 62 63 64 66 67 67 67 69 70 72 73 74 75 76 76
40 40 41 42 43 44 46 47 47 48 49 50 50 51 52 53 53 54 55 55 56 57 58 59 60 61 62 63 64 65 67 68 69 70 70 71 72 73 75 75 75 75 75
41 42 43 44 44 45 46 47 48 49 50 51 52 52 53 54 55 55 56 56 57 59 60 61 62 63 64 65 66 67 69 70 71 72 72 72 73 74 75 75 74 73 72
42 43 44 45 45 46 48 49 50 51 52 52 53 54 55 55 56 57 57 58 59 60 61 62 64 65 66 67 69 70 71 71 72 73 73 73 74 75 75 75 73 71 68
43 44 45 46 47 48 49 50 51 52 53 53 54 55 56 57 58 59 60 60 61 63 63 64 65 67 68 69 71 72 73 73 74 75 75 75 75 75 74 72 70 67 64
44 45 46 47 48 49 50 51 52 53 54 55 55 57 58 59 60 61 62 63 64 65 66 67 68 69 71 71 72 72 73 75 76 77 76 75 74 72 71 68 66 63 60
44 45 47 48 49 50 51 52 53 54 55 56 57 58 60 61 62 63 64 66 66 67 68 70 71 72 73 74 74 74 74 75 76 76 75 73 71 69 67 64 61 58 55
45 46 47 48 49 51 52 53 55 56 57 58 59 60 61 62 64 66 67 68 68 69 71 72 74 74 74 76 77 76 75 74 74 73 72 70 67 65 62 60 56 53 49
46 47 48 49 51 52 54 55 56 57 58 60 61 62 64 65 67 68 70 71 72 72 73 74 75 76 76 77 78 77 75 73 72 70 68 65 62 59 57 54 51 49 45
47 48 49 51 52 54 55 56 58 59 60 62 63 64 66 68 69 71 73 74 75 75 75 75 76 76 77 77 77 76 75 72 69 66 63 59 56 54 51 49 47 45 41
48 49 51 52 54 55 57 58 60 61 62 63 65 66 68 70 72 74 75 77 78 78 77 77 77 77 77 77 76 74 71 68 65 61 57 53 50 48 46 44 42 40 37
49 51 52 54 55 57 58 60 61 63 65 66 68 69 70 72 74 76 77 78 79 79 78 78 78 77 76 74 72 69 66 62 59 55 51 47 45 43 41 39 37 35 33
50 52 54 55 56 58 60 61 63 65 67 69 71 72 74 75 76 78 78 79 78 79 79 78 77 75 73 70 66 62 59 56 53 50 46 43 41 39 37 35 33 31 30
52 53 55 56 58 59 61 63 65 67 70 72 74 76 77 77 78 79 79 79 79 80 79 77 75 71 67 63 59 56 53 51 48 45 41 38 37 35 33 32 30 29 28
53 54 56 58 59 61 63 65 67 70 72 75 77 78 79 79 79 80 80 80 80 79 78 74 70 65 61 58 54 51 48 46 43 39 37 36 34 32 31 30 28 27 26
55 56 58 60 62 64 67 69 70 72 74 76 77 78 80 81 81 81 81 80 78 75 72 68 64 60 57 53 50 46 43 40 37 36 35 33 32 31 29 28 27 26 25
57 59 61 63 65 67 70 72 74 75 75 75 77 79 81 82 81 80 78 76 72 69 66 62 59 56 53 49 45 42 38 35 34 33 32 31 29 28 27 26 25 25 24
59 62 64 66 68 70 72 74 76 77 78 78 79 80 81 80 78 75 73 70 66 62 60 58 55 51 48 44 41 38 35 33 32 31 30 28 27 26 24 24 23 23 22
63 65 67 69 71 73 75 76 77 78 80 81 81 80 78 76 72 68 65 62 60 58 56 53 50 47 43 40 37 35 33 31 30 29 28 27 25 24 23 22 22 22 22
66 68 70 72 74 75 77 78 79 81 82 81 79 76 74 71 66 61 58 57 56 54 51 48 45 42 39 36 34 32 30 29 28 27 26 25 23 23 22 21 21 21 21
69 71 72 74 75 77 78 79 80 81 80 77 74 71 68 65 61 57 55 54 52 49 46 43 40 37 35 33 31 29 28 27 27 26 24 23 22 22 21 21 21 21 20
71 73 74 75 77 78 79 79 79 78 76 73 70 67 63 60 57 54 52 49 47 44 42 40 37 34 32 30 29 27 26 26 25 24 23 22 22 21 21 21 21 21 21
73 74 75 77 78 78 78 77 76 73 70 68 65 63 59 57 54 51 48 46 44 41 39 37 35 32 30 29 28 26 25 24 24 23 23 22 22 21 21 21 21 21 21
74 76 77 78 77 76 75 73 71 68 66 64 62 59 56 53 50 47 44 43 41 39 37 35 33 31 29 27 26 25 25 24 24 23 23 22 22 22 22 22 22 22 22
75 76 76 76 74 72 71 68 66 64 63 61 58 55 52 49 46 43 41 40 38 36 34 32 30 29 27 26 26 25 25 24 24 24 23 22 22 23 23 23 23 23 23

GEFSGL_500_meanwind_120.txt.gz
Wind_Speed
32 32 34 35 35 35 36 37 38 40 41 41 42 43 44 45 45 46 47 48 48 49 50 51 52 53 53 54 55 56 58 59 59 58 60 60 61 61 61 62 63 64 65
33 34 35 35 35 36 37 38 39 41 42 43 44 44 45 46 47 48 48 49 50 51 52 53 54 55 56 57 57 58 59 61 62 62 62 62 63 64 65 66 67 68 68
34 34 35 35 36 38 39 40 41 42 43 44 44 45 46 47 48 49 50 51 52 53 54 55 56 57 58 59 60 61 62 63 64 64 63 65 66 68 69 69 70 71 72
34 35 35 37 38 40 40 41 42 43 44 45 46 46 48 49 50 51 52 53 54 55 56 57 58 59 60 61 62 63 64 65 65 66 67 68 69 70 72 72 73 73 74
35 35 37 38 40 41 42 42 43 44 45 46 47 48 50 51 52 54 54 55 56 57 58 59 60 61 62 63 64 65 66 67 68 69 70 70 71 73 74 75 75 75 75
35 36 38 39 41 42 43 43 44 45 46 47 49 50 51 53 54 55 56 56 57 58 60 61 62 63 64 65 66 68 69 70 71 71 72 73 73 75 76 76 77 77 75
37 38 39 40 41 42 43 43 44 46 48 49 50 52 53 55 55 56 58 59 60 61 62 63 64 65 66 68 70 70 71 72 73 74 75 76 76 77 78 78 78 77 75
38 39 40 41 42 42 43 44 46 48 49 51 52 54 55 56 57 58 60 61 62 63 64 65 66 67 69 71 72 72 72 73 74 76 78 78 78 78 78 78 76 74 71
38 39 40 41 42 43 44 46 48 50 51 53 54 55 56 57 59 60 61 62 63 64 65 67 68 70 72 74 74 74 74 74 76 77 78 78 77 76 74 73 70 67 63
38 39 40 41 42 44 46 48 49 51 52 53 55 56 57 59 60 62 63 64 65 66 68 69 71 72 73 74 75 76 75 75 76 76 76 75 72 70 67 65 63 59 55
38 39 40 42 43 45 47 49 50 52 53 55 56 57 59 60 62 63 65 67 68 69 70 71 72 74 74 75 76 76 76 76 76 75 73 69 66 63 60 57 54 51 47
39 40 41 43 45 47 48 50 51 53 54 56 57 59 60 62 64 65 67 69 70 72 72 73 74 75 75 75 75 76 76 76 74 71 67 63 60 56 53 49 47 44 42
40 41 43 44 46 48 50 51 53 54 56 57 59 61 62 64 66 67 69 70 72 73 74 75 75 75 75 75 75 74 74 71 68 65 61 57 53 50 46 43 41 39 37
41 43 44 46 47 49 51 52 54 56 58 60 61 63 65 66 68 69 70 71 72 73 75 75 75 74 74 74 72 70 67 64 62 59 54 51 47 44 41 39 37 35 32
43 45 46 48 49 51 52 54 56 57 60 62 64 65 67 68 69 71 71 72 73 75 76 75 75 73 72 70 67 64 61 58 56 52 49 46 43 40 38 36 33 31 29
45 47 48 50 51 52 54 56 58 60 62 64 66 67 69 70 71 72 72 74 75 76 76 75 73 71 69 65 62 58 56 53 50 48 45 42 39 36 34 32 30 28 26
46 48 49 51 53 54 56 58 60 62 63 65 67 69 70 71 72 73 74 75 75 75 74 72 70 67 64 60 57 54 52 49 46 44 41 38 35 33 31 28 26 24 23
48 50 51 53 55 57 59 61 63 64 66 67 69 70 71 72 73 74 75 75 73 71 70 68 65 62 59 56 54 51 48 45 43 40 37 34 32 29 27 25 24 22 21
50 52 54 56 58 60 62 64 66 67 68 69 70 71 72 73 74 74 74 72 70 67 65 63 61 58 56 53 50 47 45 42 38 35 33 31 29 26 24 22 21 21 20
52 54 57 59 60 62 64 66 68 69 70 71 72 72 74 75 74 72 69 67 65 63 61 60 58 56 53 50 47 44 41 37 34 32 30 28 26 24 22 21 20 19 19
55 57 59 61 63 65 66 68 70 71 72 73 73 74 74 73 70 67 65 63 61 60 58 57 55 52 49 46 42 39 36 33 31 29 28 25 23 21 20 19 19 18 18
58 60 61 63 65 67 69 70 71 73 74 74 74 72 70 68 66 64 62 60 58 57 56 53 50 46 44 41 37 34 32 30 29 27 25 23 22 21 20 19 18 17 17
60 62 63 65 67 69 70 72 73 74 74 72 70 68 66 65 64 61 59 57 55 53 51 48 44 41 39 36 33 31 29 28 26 24 23 21 21 20 19 18 18 17 16
62 64 66 68 69 70 72 73 73 72 70 68 66 65 63 61 59 57 55 52 50 48 45 42 39 37 35 32 30 28 27 26 24 22 21 20 19 19 18 18 18 17 17
65 67 69 69 70 71 72 71 70 67 65 64 63 61 59 58 55 53 50 48 45 43 40 38 36 33 31 29 27 25 24 23 21 21 20 19 19 19 18 18 18 18 17
67 68 69 70 71 72 71 69 66 63 62 61 60 58 56 54 51 49 46 44 42 39 37 35 33 31 29 27 25 23 22 21 20 19 19 19 19 19 19 19 19 18 18

GEFSGL_500_meanwind_126.txt.gz
Wind_Speed
32 33 34 34 34 34 34 35 35 36 36 36 37 38 40 41 42 43 43 43 44 45 46 47 48 49 49 50 51 52 52 53 53 53 55 56 57 57 58 60 61 62 63
33 33 34 34 34 34 35 35 36 36 37 38 39 40 41 42 43 44 44 44 45 46 48 49 50 51 51 52 53 54 55 56 57 56 57 58 59 60 62 63 64 64 64
33 33 33 34 34 35 36 36 37 37 38 39 40 41 42 43 44 44 45 46 47 48 50 51 52 53 53 54 56 56 57 58 59 60 60 61 62 64 65 66 66 66 67
33 33 33 34 35 36 36 37 38 38 39 40 41 42 43 44 45 46 47 48 49 51 52 53 54 55 56 57 58 59 60 61 62 63 63 64 66 67 68 68 67 68 69
33 34 34 35 35 36 36 37 38 39 40 41 42 43 44 45 47 48 49 50 52 53 54 55 56 57 58 59 60 61 63 64 65 66 66 67 68 69 69 70 70 71 71
34 34 34 35 36 36 37 38 39 40 41 42 44 45 46 47 48 49 51 52 54 55 56 57 58 59 60 62 63 64 65 66 67 68 69 70 70 71 71 72 73 73 72
33 34 35 35 36 37 38 39 40 41 42 44 45 47 48 49 50 51 53 55 56 57 58 59 60 61 63 64 64 65 67 68 69 70 71 71 71 72 73 73 73 74 74
34 34 35 36 37 38 39 40 41 42 43 45 46 47 48 49 51 53 55 56 58 59 60 61 62 63 64 65 66 67 68 69 70 71 72 72 72 73 73 73 74 74 72
34 35 36 37 38 38 39 40 41 43 45 46 47 48 50 52 54 55 57 58 59 60 61 62 63 64 65 67 68 69 68 68 69 70 71 71 72 72 72 73 72 71 66
34 35 36 37 38 39 40 41 43 44 45 47 48 50 52 53 55 57 59 60 61 62 62 63 65 66 67 68 69 69 69 69 69 70 71 71 71 70 70 70 68 65 61
34 35 36 37 38 39 41 42 44 45 47 48 50 52 53 55 57 59 60 62 62 62 63 64 66 67 68 68 69 69 70 70 71 71 70 70 69 68 66 65 62 58 54
35 36 37 38 39 41 42 44 45 47 48 50 52 53 55 57 58 60 62 63 63 64 65 66 67 68 68 68 69 70 70 72 72 71 69 67 66 64 61 58 55 52 50
36 37 38 39 41 42 43 45 47 48 50 52 54 55 56 58 60 61 62 63 65 66 67 67 68 68 68 68 69 70 71 71 70 68 66 64 62 59 56 53 50 48 46
37 38 39 41 42 43 45 47 48 50 52 53 55 56 58 59 60 62 63 65 66 67 68 68 68 68 68 69 69 69 68 68 66 64 62 60 58 55 52 49 47 44 41
38 40 41 42 44 45 47 48 50 52 53 55 56 58 59 60 61 63 65 66 67 68 69 68 68 68 68 67 67 65 64 63 61 60 58 55 53 51 48 45 42 38 35
40 41 43 44 45 47 48 49 51 53 55 56 58 59 60 62 63 65 66 67 68 69 69 68 68 67 66 65 64 63 61 60 58 56 54 51 49 46 43 39 36 33 30
42 43 44 45 47 48 49 51 52 54 56 58 59 61 62 63 64 66 67 68 69 69 69 68 67 66 65 63 62 61 59 57 55 52 49 46 44 41 38 35 32 29 27
43 44 45 46 48 49 51 52 54 56 57 58 60 62 63 64 66 67 68 69 69 69 68 67 66 64 62 61 59 57 55 52 49 47 44 42 40 37 34 31 28 26 24
44 45 47 48 50 51 53 54 56 57 59 60 62 63 65 66 67 69 70 70 68 67 66 64 62 60 59 57 55 53 50 48 45 42 40 38 36 33 30 27 25 23 21
45 47 48 50 51 53 54 56 57 59 61 63 64 65 66 68 68 69 69 67 66 64 62 60 58 57 55 53 50 48 46 44 41 39 37 35 32 29 26 24 22 21 19
46 48 50 51 53 54 56 58 59 62 63 64 65 66 68 69 68 67 65 64 63 61 59 57 55 53 51 49 47 44 42 40 37 35 33 31 29 26 23 21 19 18 16
48 50 51 53 55 56 58 60 62 64 65 65 66 67 68 68 67 65 63 61 59 57 55 54 52 50 48 45 43 40 38 35 33 31 30 28 26 23 21 19 17 16 14
50 51 53 55 57 59 61 63 64 65 65 66 67 67 66 65 63 61 59 57 55 54 52 51 49 46 44 41 39 36 34 32 31 29 27 25 23 21 19 17 15 13 12
52 54 56 57 60 62 63 64 65 66 66 67 66 65 63 61 60 58 56 54 52 50 49 47 44 42 39 37 35 33 31 29 28 26 24 22 20 19 17 15 13 12 12
54 56 58 60 62 63 64 65 66 67 67 65 63 62 60 59 57 55 53 51 50 48 45 43 41 39 37 35 33 31 29 28 26 24 22 21 19 16 15 14 13 12 12
56 58 61 63 64 65 65 66 66 66 64 62 60 59 58 57 55 53 52 50 48 46 43 41 40 38 35 33 31 29 28 26 25 23 21 19 17 16 15 14 13 13 12

GEFSGL_500_meanwind_132.txt.gz
Wind_Speed
29 30 30 30 30 30 31 32 33 34 35 35 35 36 37 37 37 38 39 40 41 41 42 43 44 45 46 47 48 49 50 51 52 52 53 54 55 56 57 58 59 61 62
29 29 29 30 30 30 31 32 34 34 35 35 36 36 36 37 38 39 40 41 41 42 44 45 46 47 47 48 50 51 53 54 55 55 55 57 58 59 60 61 62 64 65
29 30 30 30 31 31 32 33 34 35 35 35 36 36 37 38 39 40 41 42 43 44 45 46 48 48 49 51 53 54 56 57 58 58 58 59 60 61 62 63 65 66 67
30 30 30 31 31 32 33 33 34 34 35 36 37 37 38 39 40 41 42 43 44 46 47 48 49 50 52 54 55 57 58 59 60 60 61 61 62 64 65 66 67 68 68
30 30 31 31 32 33 33 34 34 35 36 37 38 38 39 40 41 42 44 45 46 47 49 50 51 53 55 56 58 59 60 61 62 63 63 64 65 66 67 68 68 68 67
30 30 31 32 33 33 34 34 35 36 36 37 38 39 40 41 42 44 45 46 47 49 50 51 53 54 56 58 59 61 62 63 64 65 65 65 66 67 68 68 68 68 68
31 31 32 32 33 34 34 35 35 37 38 38 39 40 41 42 44 45 47 48 49 50 51 53 54 56 58 60 61 62 63 64 65 66 66 67 68 68 69 68 69 69 69
31 31 32 32 33 34 34 35 36 37 38 39 40 41 42 44 45 46 48 49 50 51 53 55 56 58 60 61 62 63 63 64 66 67 68 68 69 69 69 69 69 68 67
31 31 32 33 33 34 34 35 36 37 38 40 41 42 43 44 46 47 48 50 51 53 55 57 58 60 61 62 63 63 64 64 66 67 69 68 68 68 69 69 68 67 65
31 31 32 33 33 34 35 36 37 38 39 41 42 43 44 45 46 48 50 52 53 55 57 58 60 61 62 63 64 65 65 65 67 67 68 67 67 68 68 67 66 65 63
32 32 33 33 34 35 36 37 38 39 41 42 43 43 44 46 48 50 52 53 55 57 58 60 61 62 62 64 65 66 67 67 67 67 66 66 66 66 65 64 63 62 60
32 32 33 34 35 36 37 38 39 40 41 42 43 44 46 48 50 51 53 55 56 58 60 61 61 62 63 65 66 67 67 68 67 66 65 65 64 63 62 61 59 58 56
32 33 34 35 36 37 38 39 40 41 42 43 44 46 47 49 51 52 54 56 58 60 61 61 61 62 63 65 66 67 67 66 65 64 63 63 62 61 59 57 56 54 52
33 34 35 36 37 38 39 40 41 42 43 44 46 47 48 50 52 53 55 57 59 60 61 61 62 63 64 65 66 66 65 64 63 62 61 60 60 58 56 54 52 50 48
35 35 36 37 38 38 40 41 42 43 44 45 47 48 49 51 53 55 57 59 60 61 61 62 63 65 65 65 64 63 62 61 60 60 59 58 56 54 52 50 47 45 43
36 36 37 38 39 40 41 42 43 44 45 46 48 49 51 53 55 57 59 60 61 62 62 63 64 65 64 63 62 61 59 58 57 56 55 54 51 48 46 45 42 40 38
37 37 38 39 40 41 42 43 44 45 47 48 50 51 53 55 57 59 60 61 61 62 63 64 64 64 62 61 59 57 55 54 53 52 51 48 46 44 43 41 38 36 34
37 38 39 40 41 42 43 44 46 47 48 49 51 53 55 57 58 60 61 61 62 63 64 64 63 61 60 58 55 54 53 52 50 49 46 45 43 41 39 36 34 31 29
39 39 40 41 42 44 45 46 47 48 50 51 53 55 57 58 59 61 62 62 62 62 62 62 61 59 57 55 53 52 50 49 47 45 44 42 40 37 34 32 30 27 25
39 40 41 42 44 45 46 47 49 50 52 53 55 56 57 59 60 61 62 62 61 61 61 60 58 55 53 51 50 48 47 46 44 42 40 38 35 33 30 28 26 24 22
40 41 42 43 45 46 47 49 50 52 53 55 56 57 59 60 61 61 60 60 60 60 58 56 54 52 50 49 48 46 44 43 41 39 36 34 31 28 27 25 23 21 19
41 42 43 44 46 47 49 50 52 53 55 56 57 59 60 60 60 60 59 59 58 56 54 52 51 49 48 47 45 44 42 40 38 36 33 31 27 26 25 24 22 19 16
41 42 44 46 47 48 50 51 53 55 56 57 58 59 59 59 59 59 58 56 54 53 52 50 48 47 46 45 43 42 40 37 35 33 30 28 26 24 24 22 20 17 15
42 44 45 47 48 49 51 53 54 55 56 57 58 58 58 58 58 56 54 53 52 51 49 47 47 46 45 43 41 39 37 34 31 30 28 27 25 24 23 21 18 15 13
44 45 47 48 49 51 53 54 55 56 57 57 57 56 56 56 55 54 53 51 49 48 47 46 46 44 42 41 39 36 34 31 29 28 27 25 24 23 21 18 15 13 11
45 46 48 49 51 53 54 54 55 56 56 56 56 55 55 54 53 52 51 49 47 47 46 45 44 42 41 39 37 34 32 30 28 27 25 24 22 20 18 15 13 12 11

GEFSGL_500_meanwind_138.txt.gz
Wind_Speed
35 35 35 35 34 34 34 34 34 35 35 35 36 36 36 37 37 38 38 39 39 40 41 42 43 44 45 46 46 47 49 50 50 51 52 53 55 56 56 57 57 58 59
35 35 34 34 34 34 34 34 35 35 35 35 36 36 37 37 38 38 39 40 40 41 42 43 44 45 46 47 48 49 50 52 53 53 54 56 57 58 59 60 60 61 62
34 34 34 33 34 34 34 34 35 35 35 36 36 37 37 38 38 39 40 40 41 42 43 44 45 46 47 48 49 51 53 54 56 57 57 59 60 61 61 62 62 62 63
34 34 33 33 33 34 34 34 35 35 35 36 37 37 38 38 39 40 40 41 42 43 44 45 46 47 48 50 52 53 55 57 58 59 60 61 62 63 63 63 62 63 64
34 33 33 33 33 33 33 34 34 35 36 36 37 38 38 38 39 40 41 42 43 44 45 46 48 49 51 52 54 56 57 59 60 61 62 63 63 64 64 64 64 64 66
33 33 33 33 33 33 34 34 34 35 36 37 37 38 38 39 40 41 42 43 44 45 46 47 49 51 53 54 56 58 59 61 62 63 64 64 64 64 65 65 66 67 66
33 33 33 33 33 33 34 34 35 36 36 37 37 38 39 39 40 42 43 44 45 46 47 49 51 53 55 56 57 59 61 62 63 64 63 64 64 65 66 67 67 67 67
34 33 33 33 33 34 34 35 35 36 37 37 38 39 39 40 41 43 44 45 46 47 49 50 52 54 56 57 58 60 61 62 63 63 64 65 65 66 66 66 66 66 65
34 34 33 34 34 34 35 35 36 37 38 38 38 39 39 40 42 43 45 46 47 48 50 52 53 55 56 58 60 61 61 61 62 64 64 65 65 65 66 65 65 64 63
34 34 34 35 35 35 35 36 37 37 38 38 38 39 40 41 43 44 46 47 48 49 51 52 54 56 57 59 61 61 61 61 62 63 64 65 65 64 64 64 64 63 62
35 35 35 35 35 36 36 37 37 38 38 38 39 40 41 43 44 45 46 47 48 50 51 53 55 57 58 60 61 61 60 61 62 63 64 64 63 63 63 62 62 61 60
35 35 35 35 36 36 37 37 37 38 38 39 40 41 42 43 45 46 47 48 49 51 52 54 55 57 58 60 60 60 61 62 63 63 63 62 62 62 61 60 59 59 59
35 35 35 35 36 36 37 37 37 38 38 40 41 42 43 44 46 46 47 49 50 51 52 54 56 58 59 60 60 61 61 62 62 62 62 61 60 59 57 56 56 56 55
35 35 35 36 36 36 37 37 37 38 39 40 41 43 44 45 46 47 48 49 50 51 53 55 57 58 59 60 61 61 61 61 61 61 60 59 57 54 53 53 52 51 50
35 35 36 35 36 36 36 37 38 39 40 41 42 43 44 45 46 47 48 49 51 53 55 56 57 58 59 60 61 61 60 60 59 58 56 54 51 50 50 50 50 48 45
35 35 35 35 36 36 37 38 39 40 40 41 42 43 44 45 46 47 49 51 53 54 55 56 57 58 59 60 60 58 58 57 56 54 52 50 49 48 48 48 46 43 41
35 35 35 36 36 37 38 39 40 40 41 42 43 43 44 45 46 48 50 52 54 55 56 57 58 59 59 58 57 56 55 53 52 51 50 48 47 47 46 44 42 40 38
35 35 36 36 37 38 39 39 40 40 41 42 42 43 44 46 47 49 51 53 54 56 57 57 57 57 56 55 54 53 52 51 50 49 47 47 46 44 43 41 39 37 35
35 35 36 37 37 38 38 39 40 41 41 42 43 44 45 47 49 51 53 54 55 56 56 55 55 55 55 55 53 52 50 48 47 47 46 45 44 42 40 38 36 35 32
35 36 36 37 38 38 38 39 40 41 42 43 44 45 47 49 51 52 53 54 55 55 54 54 55 55 55 54 52 49 47 46 46 46 44 42 40 38 37 35 34 32 29
36 36 37 37 37 38 39 41 42 42 43 44 45 46 48 50 51 52 53 54 54 54 54 54 55 55 54 51 48 47 46 45 44 43 41 40 38 36 34 33 31 29 26
35 36 37 37 38 40 41 42 42 43 44 45 46 47 49 51 52 53 53 53 53 53 53 54 54 53 51 48 46 45 44 42 42 41 39 37 35 34 32 30 28 26 24
36 37 37 38 39 41 41 42 43 44 45 46 47 48 50 51 52 53 53 53 53 53 53 53 52 50 49 47 45 43 41 41 41 40 37 35 34 32 30 28 26 23 21
36 37 38 38 40 41 41 42 43 44 45 46 48 50 51 52 52 52 52 52 52 52 52 51 50 48 47 45 43 41 41 41 39 38 36 34 32 30 27 25 23 21 19
36 37 37 38 39 40 41 42 43 44 46 47 48 50 51 52 52 52 52 52 52 51 50 49 48 47 44 42 41 41 40 39 37 36 34 31 29 27 25 22 20 19 17
36 37 38 38 39 40 41 43 44 45 46 48 49 50 51 52 52 51 51 51 50 49 49 48 47 45 43 41 40 40 38 37 36 34 32 29 28 25 23 20 18 17 14

GEFSGL_500_meanwind_144.txt.gz
Wind_Speed
38 37 37 36 36 36 35 35 35 36 36 36 36 36 36 36 36 36 36 37 37 38 38 39 39 40 41 42 43 44 46 48 48 48 49 51 53 55 56 56 57 58 59
38 38 37 37 36 36 36 35 36 36 36 36 36 36 36 36 37 37 37 37 38 39 39 40 40 41 42 43 44 46 48 49 50 50 51 53 55 57 58 59 60 61 61
38 37 37 36 36 36 36 36 36 36 36 36 36 36 36 36 37 37 37 38 39 39 40 41 41 42 43 44 45 47 49 50 51 52 53 55 57 59 60 61 62 62 62
38 37 37 36 36 36 36 36 36 36 36 36 36 36 36 36 37 37 38 38 39 40 41 41 42 43 44 45 47 48 50 51 53 54 56 57 59 60 61 62 61 61 62
38 37 37 36 36 36 36 36 36 36 36 36 36 36 36 36 37 37 38 39 40 40 41 42 43 44 46 47 49 50 51 53 54 56 57 58 59 60 61 61 61 61 61
37 37 36 36 36 36 35 35 36 36 36 36 36 36 37 37 37 38 39 39 40 41 41 42 44 45 47 48 49 51 52 53 54 56 57 58 59 60 61 61 61 61 60
37 36 36 36 36 36 36 35 36 36 36 36 36 37 37 38 38 38 39 40 40 41 42 43 45 46 47 48 49 51 52 53 55 57 58 59 60 61 61 61 61 60 60
36 36 36 36 36 36 36 36 36 36 36 36 36 37 37 37 38 38 39 40 41 42 43 44 45 46 47 49 50 51 52 54 56 57 59 59 60 60 60 61 60 60 59
37 36 36 36 36 36 36 36 36 36 36 36 36 36 37 37 38 39 40 41 42 42 43 44 45 47 48 49 50 51 53 54 56 57 58 59 59 59 60 61 61 59 58
36 36 36 36 36 36 36 36 35 35 35 36 36 37 37 38 39 40 41 42 42 42 43 45 46 47 48 49 50 52 53 54 55 56 57 59 59 60 61 61 59 58 57
37 36 36 36 36 36 35 35 35 35 36 36 36 37 38 39 39 40 41 42 42 43 44 45 46 47 49 50 51 52 53 55 56 57 59 59 60 61 60 59 57 56 55
37 37 36 36 35 35 35 35 35 35 36 36 36 37 38 39 40 40 41 41 42 43 44 45 46 48 49 50 52 53 54 55 56 58 59 60 60 58 57 56 55 53 52
38 37 36 36 35 35 35 35 35 36 36 36 37 37 38 39 40 41 41 42 43 43 44 45 46 48 49 51 53 54 54 55 57 59 59 59 58 56 55 53 52 51 50
38 37 36 36 35 35 35 35 35 36 36 36 37 38 39 39 40 41 42 42 43 43 44 45 47 49 50 52 53 53 54 56 58 58 58 57 56 54 52 51 50 49 48
37 37 36 36 35 35 35 35 36 36 36 37 38 38 39 40 40 41 41 42 43 44 45 46 48 49 51 52 52 54 55 56 57 57 56 55 54 52 50 49 48 47 46
37 36 35 35 35 35 35 35 36 36 36 37 38 39 39 40 40 41 42 43 43 44 45 46 48 50 51 52 53 54 55 56 57 56 55 53 51 49 48 47 46 45 44
36 36 35 35 35 35 35 35 35 36 37 38 38 39 40 40 40 41 42 43 43 44 46 47 49 50 51 52 53 55 55 56 56 55 53 51 48 46 46 45 44 42 41
36 36 35 35 35 35 35 35 35 36 37 38 38 39 40 40 40 41 42 43 44 45 47 48 50 51 52 53 54 55 55 55 54 52 50 47 45 44 43 42 41 40 38
35 35 35 35 35 35 35 35 36 37 38 38 39 39 40 40 41 42 43 44 45 46 48 49 50 51 52 53 54 54 54 53 51 49 47 44 43 42 41 40 39 37 35
34 34 34 34 35 35 36 36 37 37 38 38 38 39 40 40 41 42 43 44 45 47 48 49 50 51 52 52 53 53 52 50 48 46 44 43 42 41 39 38 36 34 32
34 34 34 35 35 36 36 36 37 37 37 38 39 39 40 41 42 43 44 44 46 47 48 49 50 51 51 51 51 51 50 48 45 44 43 42 41 39 37 36 34 31 29
34 34 34 35 35 35 36 36 36 37 38 38 39 40 41 41 42 43 44 45 46 47 48 48 50 51 51 50 50 49 48 46 44 44 43 41 39 37 35 34 32 30 27
34 34 34 35 35 35 35 36 36 37 38 39 40 40 40 41 42 43 44 46 47 47 48 49 50 51 50 50 49 48 47 45 44 43 42 39 37 35 33 32 30 27 25
34 34 35 35 34 35 35 36 37 37 38 39 40 40 41 42 43 44 45 46 47 47 48 49 51 51 50 48 47 47 46 45 44 42 40 38 35 33 31 29 27 24 22
33 34 34 34 34 35 36 36 37 37 38 38 39 40 41 42 43 44 45 46 46 47 49 50 50 49 48 47 47 46 45 43 42 40 37 35 32 30 28 26 24 21 19
32 33 34 34 35 35 36 36 37 37 38 39 40 40 41 42 43 43 44 45 46 48 49 50 49 48 46 46 46 45 43 41 39 37 34 31 29 28 26 23 21 19 17

GEFSGL_500_meanwind_150.txt.gz
Wind_Speed
43 41 40 39 39 38 37 37 37 36 36 35 35 35 35 35 35 35 36 37 37 38 38 39 40 40 41 42 43 44 45 46 47 47 48 49 50 51 52 53 53 54 56
44 43 42 41 40 38 38 37 37 37 36 36 35 35 35 35 36 36 36 37 38 38 39 40 41 41 42 43 44 44 46 47 48 48 49 50 50 52 53 53 55 56 57
44 43 42 41 40 39 38 38 37 37 37 36 35 35 36 36 36 36 37 38 38 39 40 40 41 42 43 43 44 45 46 47 49 49 50 50 51 52 53 55 56 57 57
45 43 43 42 40 40 39 39 38 38 37 36 36 36 36 36 36 37 37 39 39 40 40 41 42 42 43 44 45 46 47 48 49 50 50 51 52 53 54 55 56 57 58
45 44 43 42 41 40 40 39 38 37 37 36 36 36 36 36 36 37 38 39 40 40 40 41 42 43 44 45 46 47 48 49 50 50 50 51 52 53 54 56 56 57 58
45 44 43 42 42 41 40 39 38 37 36 36 36 36 36 36 37 38 39 39 39 40 40 41 42 43 44 45 46 47 48 49 49 50 50 51 52 54 55 57 58 58 58
45 44 43 42 41 40 40 39 38 38 37 37 37 36 37 37 38 38 39 39 39 39 40 41 42 43 44 45 46 47 48 48 49 49 50 51 53 54 56 57 59 59 60
43 42 42 42 41 40 39 39 39 38 37 37 36 36 37 37 38 38 38 38 38 39 39 41 42 43 44 45 46 46 47 47 48 49 51 52 54 55 56 58 59 60 61
43 42 42 41 40 40 39 39 38 38 37 37 36 36 37 37 37 37 37 38 38 39 40 41 42 43 44 45 45 46 47 47 49 50 52 53 55 56 58 59 60 60 60
42 42 42 41 40 40 39 39 38 37 37 36 36 36 36 36 37 37 37 38 38 39 40 41 42 43 44 44 45 46 47 48 49 51 52 54 56 57 58 59 60 60 60
42 42 42 41 40 39 39 39 38 37 37 36 37 37 36 36 37 37 37 38 39 39 40 41 42 43 44 45 46 47 47 49 50 52 53 55 57 58 58 59 60 60 59
42 41 41 41 40 40 39 39 38 37 37 37 37 37 37 36 37 37 38 38 39 39 40 41 42 43 44 45 46 48 49 50 51 53 54 56 57 57 57 59 60 59 56
41 41 40 40 40 39 39 38 37 37 37 37 36 36 36 36 36 38 38 38 39 39 40 41 42 43 44 46 47 49 50 51 52 54 55 56 57 57 58 59 59 56 53
41 40 40 39 39 38 38 37 37 37 36 36 36 36 35 36 36 37 37 37 38 39 40 41 42 43 45 47 48 49 50 52 53 54 55 56 56 57 58 58 56 52 51
42 41 40 39 38 37 36 36 36 35 35 35 36 36 36 36 36 36 36 37 38 39 40 41 42 44 46 47 49 50 51 52 53 54 55 56 57 58 57 55 53 50 49
42 41 40 39 37 36 35 35 34 35 35 35 35 35 35 35 36 36 37 38 39 40 41 42 43 45 47 48 49 50 51 52 53 54 55 56 57 57 55 53 51 49 47
40 39 39 38 37 35 35 35 35 34 34 34 35 34 34 35 35 36 37 39 40 40 42 43 44 46 47 48 49 50 51 52 53 54 55 56 56 55 53 51 48 47 45
40 39 38 37 36 35 34 34 34 34 34 34 34 34 34 35 35 36 38 39 39 40 42 43 45 46 47 48 49 50 51 52 53 53 54 55 54 53 51 49 47 45 42
40 39 37 36 35 35 34 34 34 35 35 35 34 34 35 35 36 37 38 38 39 40 42 44 45 46 47 48 49 50 51 51 52 53 53 54 53 52 49 46 44 42 39
40 39 38 37 36 35 35 35 35 35 35 34 34 35 35 36 37 37 38 39 39 41 42 43 44 45 47 48 48 49 50 50 51 53 53 53 52 49 46 44 42 39 36
40 40 38 37 36 36 36 36 35 35 35 35 35 35 36 36 36 37 38 38 39 41 42 43 44 46 47 47 47 48 49 50 51 52 52 51 49 45 43 41 38 36 32
40 40 38 37 36 36 35 35 34 34 35 35 35 35 35 35 36 36 37 38 39 40 41 43 44 45 45 45 46 47 48 50 51 51 49 48 45 41 39 38 35 32 29
40 39 38 37 36 36 35 34 34 34 34 34 34 34 34 34 35 36 37 38 38 40 41 42 43 43 44 44 45 46 48 49 49 48 46 44 41 38 36 34 31 29 27
39 38 37 37 35 34 34 34 34 33 33 33 33 34 34 34 35 36 37 37 38 39 40 42 42 42 42 43 45 46 47 48 47 45 43 40 37 35 33 30 28 26 25
37 37 37 35 34 34 33 32 32 31 31 32 33 33 34 34 35 36 36 37 38 39 40 41 42 42 42 43 44 45 47 46 44 41 40 37 34 32 30 28 27 25 24
37 36 35 35 34 34 33 32 31 31 31 32 32 33 33 34 35 35 36 37 38 39 40 41 42 42 43 43 44 45 45 43 40 39 38 36 33 30 28 27 25 24 22

GEFSGL_500_meanwind_156.txt.gz
Wind_Speed
45 43 42 41 40 39 38 37 37 36 36 35 35 34 34 34 35 36 36 37 37 38 38 39 39 39 40 41 42 42 42 43 44 44 45 46 47 47 48 50 51 52 53
45 44 43 41 41 40 39 38 37 36 36 36 36 35 35 35 36 37 37 37 38 38 38 39 39 40 40 41 42 42 42 44 45 45 45 46 47 48 49 50 52 53 54
46 45 44 43 42 41 40 39 38 38 37 37 36 36 36 37 37 37 38 38 38 38 39 39 39 40 41 41 41 42 43 44 45 46 46 46 47 48 50 51 53 54 55
47 46 45 44 42 42 41 40 39 39 39 38 38 38 38 38 38 38 38 38 38 38 39 39 39 40 40 41 41 42 43 44 46 47 47 47 48 49 50 52 53 54 56
48 47 45 44 44 43 42 41 41 40 39 39 39 38 38 38 38 38 38 38 38 39 39 39 39 40 40 41 42 43 44 45 46 47 47 48 49 50 51 53 54 55 56
48 48 47 46 45 44 43 42 42 41 41 40 39 39 38 38 38 38 39 39 39 39 38 39 39 40 40 41 42 43 44 45 46 47 47 48 50 51 52 54 56 57 57
48 48 47 46 45 44 44 43 42 41 41 40 40 40 39 39 39 38 39 39 39 38 38 39 40 40 40 41 43 43 44 45 46 47 48 49 51 52 54 56 57 58 58
49 48 47 46 46 45 45 43 43 42 41 41 41 41 40 39 39 39 39 39 38 38 39 40 40 40 40 42 42 43 44 45 46 48 49 50 52 53 55 56 57 57 58
49 48 48 47 47 46 45 44 44 43 43 42 42 41 39 39 38 38 39 38 38 39 39 40 39 40 41 42 42 43 44 45 46 48 50 51 52 54 55 56 57 57 58
49 48 48 48 47 46 45 45 45 44 43 42 41 40 38 38 38 38 38 38 38 39 39 39 39 40 41 41 42 43 44 45 47 49 50 51 53 54 55 56 57 58 59
48 48 48 48 47 46 45 45 45 44 43 42 41 39 38 38 38 38 38 38 38 39 39 39 40 40 40 41 41 43 44 46 47 49 50 52 53 54 55 56 58 59 59
46 47 47 47 47 46 46 45 44 43 42 41 39 38 38 38 37 37 37 37 38 38 39 39 39 40 40 40 42 43 45 46 48 49 51 52 53 54 55 57 59 59 59
46 46 45 46 45 45 45 43 43 42 41 40 39 39 38 37 37 37 37 38 38 39 39 39 39 40 40 41 42 44 45 47 48 50 50 51 52 54 56 58 59 59 58
45 44 44 44 44 44 44 43 42 42 41 40 39 39 38 37 37 37 38 38 38 38 39 39 39 40 41 42 43 44 46 47 49 50 50 51 53 54 55 57 57 57 56
46 45 44 44 43 44 43 42 42 41 40 40 39 39 38 37 37 37 37 37 38 38 38 38 39 39 40 42 43 44 46 47 48 49 49 51 53 54 55 56 56 55 53
46 45 45 44 43 43 42 42 41 40 39 39 38 38 37 37 37 37 37 37 37 38 38 38 38 39 40 42 43 44 46 47 48 48 49 51 52 53 54 55 54 52 50
45 45 44 44 43 42 42 41 40 39 38 37 37 37 36 36 36 36 36 36 36 37 37 37 38 39 41 41 43 44 45 46 47 47 49 50 51 52 53 52 51 49 47
44 44 43 43 42 41 41 41 40 39 38 37 36 36 36 36 36 36 36 36 36 36 36 37 38 39 39 41 42 43 44 45 45 46 48 49 50 51 51 50 48 47 45
44 43 42 41 41 41 41 41 40 39 38 37 36 36 36 35 35 35 35 35 35 35 36 36 37 37 38 40 41 42 43 43 44 46 47 48 49 49 48 47 45 44 42
44 42 41 40 40 40 39 38 38 37 37 36 36 36 35 35 35 35 35 35 34 34 35 35 36 37 39 40 40 41 41 42 43 45 46 47 47 47 45 44 43 42 39
44 42 42 41 40 39 38 37 37 37 36 35 35 35 35 35 34 34 34 33 33 33 34 34 35 37 39 39 39 39 40 41 42 44 45 45 44 43 42 42 41 38 36
42 42 41 40 39 38 38 37 37 37 37 36 36 35 35 34 33 33 32 32 32 33 34 34 35 37 38 38 38 38 39 40 42 43 43 43 42 41 40 39 38 35 34
39 40 40 39 39 39 38 37 37 37 37 36 36 35 34 33 32 32 31 31 32 32 33 34 34 35 36 36 37 37 38 40 41 42 41 40 40 39 38 37 35 34 33
36 38 39 39 40 40 39 38 37 36 36 35 35 34 34 32 32 32 32 32 32 32 32 32 33 34 34 35 36 37 38 39 40 40 39 38 38 37 36 35 34 33 31
36 37 37 37 38 38 38 37 36 35 34 34 33 33 32 32 32 32 32 31 31 31 31 31 32 33 34 34 35 36 36 37 38 38 37 37 36 36 35 34 33 31 29
35 35 35 35 35 36 36 35 35 34 33 32 32 31 31 31 31 31 31 30 29 29 30 31 32 33 33 33 33 34 35 36 37 36 35 35 35 34 34 32 31 29 26

GEFSGL_500_meanwind_162.txt.gz
Wind_Speed
50 49 48 47 45 45 44 42 41 39 39 38 37 37 37 37 37 36 36 36 36 36 37 37 38 40 41 42 43 43 44 44 45 45 46 48 49 50 51 52 53 54 54
50 50 49 48 47 46 45 43 42 41 40 39 39 39 38 38 37 37 37 37 37 37 38 38 39 41 41 42 43 44 44 45 45 45 47 48 49 50 52 53 53 54 55
51 50 50 49 48 46 46 45 44 42 42 41 41 40 39 39 38 37 37 37 38 38 38 39 40 41 42 43 43 44 45 45 46 46 47 48 49 51 52 53 54 55 56
53 51 50 50 49 48 47 47 46 45 44 43 42 41 40 40 39 38 38 38 38 38 39 40 41 41 42 43 44 44 44 45 46 47 48 49 50 51 53 53 54 55 56
54 53 51 50 50 49 48 48 47 46 45 44 43 42 41 40 39 39 38 38 38 39 39 40 41 41 42 43 44 44 44 45 46 47 48 49 51 52 53 54 54 54 55
54 53 52 51 51 50 49 49 48 47 46 45 44 43 42 41 40 39 39 39 39 39 40 40 41 41 42 43 43 44 45 45 46 47 48 50 51 53 53 54 54 54 55
54 53 53 52 51 51 50 49 48 47 46 45 44 43 41 41 40 39 39 40 40 40 40 40 41 41 43 43 43 44 45 45 46 47 49 50 52 53 53 53 54 54 56
54 53 52 52 52 51 50 49 48 47 46 46 45 43 42 41 41 40 40 41 40 39 39 40 41 41 41 42 42 43 43 44 46 47 49 51 52 52 52 53 53 55 56
55 53 53 52 52 52 51 50 49 48 47 45 44 43 42 42 42 41 41 40 40 40 40 40 41 41 41 42 42 43 44 45 47 48 49 51 51 51 52 53 53 54 55
55 54 54 53 52 52 51 50 49 48 47 46 44 44 43 43 42 41 40 41 41 41 40 40 41 41 41 42 42 43 44 45 47 48 50 50 50 50 51 52 53 54 56
55 55 54 53 52 52 51 50 50 49 48 46 46 45 44 43 42 41 41 41 41 41 41 41 41 40 41 41 42 43 44 45 47 48 49 48 48 49 51 52 53 55 56
55 54 53 53 53 53 52 50 50 50 48 47 47 46 45 43 41 41 41 41 41 41 41 40 40 40 40 41 42 43 44 45 47 47 47 47 48 49 50 51 53 54 55
54 54 52 51 52 52 51 50 49 49 49 48 48 47 45 43 43 42 41 40 40 40 40 39 39 39 39 40 41 42 43 45 46 46 46 47 48 49 50 51 52 54 55
53 54 53 52 51 51 50 50 48 48 47 47 46 45 45 44 43 42 41 40 39 39 39 39 38 38 39 40 41 42 43 44 44 45 45 47 47 48 49 50 51 52 53
51 52 53 53 52 51 50 49 48 48 47 46 45 45 44 44 42 42 41 39 38 38 38 38 38 38 39 40 41 41 42 43 43 44 45 45 45 46 47 49 50 51 51
48 49 50 51 51 50 50 49 48 47 47 46 45 44 43 42 41 40 39 38 38 37 37 37 38 38 38 39 40 40 41 42 42 42 43 44 44 44 46 48 49 49 48
46 46 46 47 48 48 48 48 48 47 46 45 43 42 42 41 40 40 39 38 38 38 37 37 37 37 38 38 39 39 40 40 40 41 42 42 42 43 45 47 47 46 46
46 45 45 46 46 47 47 46 46 46 45 43 41 41 40 40 40 39 39 38 38 38 37 37 37 36 37 37 37 38 38 39 39 39 40 40 41 43 44 45 45 44 44
46 46 46 46 46 46 45 45 44 43 43 41 40 40 40 39 38 37 36 36 36 37 36 36 36 35 35 35 36 37 37 37 37 37 38 39 40 42 43 43 43 43 42
44 43 43 44 43 43 43 42 42 42 42 42 41 41 40 39 37 36 35 35 34 34 34 34 34 34 34 35 36 36 36 36 36 36 37 38 39 40 41 42 42 41 41
43 42 42 41 41 41 40 40 39 39 40 41 41 40 38 37 37 36 35 34 34 33 32 32 32 33 33 34 34 35 35 35 35 36 36 38 38 39 40 40 40 39 39
42 41 41 40 40 40 39 39 39 38 38 37 36 36 35 35 35 34 34 34 34 33 33 33 32 33 33 32 33 34 34 34 34 35 36 36 37 38 39 38 38 38 37
41 40 39 39 38 38 38 38 38 37 37 36 35 33 32 32 32 32 32 32 32 32 32 32 31 32 32 33 33 33 33 33 33 34 35 36 37 37 37 36 36 36 36
39 38 38 37 37 37 37 37 37 36 35 34 33 32 32 31 30 30 30 31 31 31 30 30 31 31 31 32 33 33 32 32 33 33 33 34 35 35 35 35 35 34 34
36 36 36 36 35 35 35 35 34 34 33 32 32 32 31 30 29 29 29 29 29 29 29 29 29 29 29 30 31 31 30 31 31 32 32 33 34 33 33 33 33 33 33
34 34 35 34 33 33 33 34 33 32 31 31 31 30 30 30 29 29 29 28 27 27 28 28 27 27 28 28 28 29 29 29 30 30 31 32 32 32 32 32 31 31 30

GEFSGL_500_meanwind_168.txt.gz
Wind_Speed
52 51 51 50 50 50 49 47 46 46 45 44 44 43 42 41 41 40 39 39 39 39 39 39 38 38 38 39 40 40 41 42 42 43 45 46 46 47 48 49 50 51 52
52 52 52 51 51 51 49 48 47 46 46 45 45 44 43 42 41 41 40 40 40 40 40 39 39 39 40 40 41 41 42 42 43 43 44 46 47 48 49 50 50 52 52
52 52 52 52 51 51 50 48 48 47 47 46 45 45 44 43 43 42 42 41 41 41 40 40 40 40 41 41 41 42 42 42 43 44 44 45 47 48 49 50 51 52 52
53 53 53 52 51 50 50 50 50 49 48 47 46 46 46 44 44 43 43 42 42 41 41 40 40 40 41 41 42 42 42 43 44 44 44 45 47 48 49 50 50 51 52
55 54 54 53 52 51 50 50 51 50 49 48 48 48 47 46 45 44 43 43 42 41 41 41 41 41 41 41 41 42 42 43 44 44 44 45 47 48 49 50 50 51 52
56 55 54 53 53 52 52 51 51 50 49 49 49 49 48 46 46 45 44 44 43 42 41 41 40 41 41 41 41 42 42 43 43 44 45 46 47 48 48 50 50 51 52
54 55 55 54 54 53 53 52 51 50 49 50 50 49 48 47 45 44 44 44 43 42 42 42 41 41 41 40 41 42 42 42 43 44 45 46 47 47 48 49 50 51 52
55 55 55 55 54 53 53 52 51 50 49 49 48 48 48 47 46 44 43 43 43 42 42 42 41 40 40 40 41 42 42 42 43 44 45 46 46 47 47 48 49 50 51
55 54 54 55 55 53 52 51 51 50 49 49 48 47 46 46 46 45 44 43 42 41 41 41 41 40 40 41 42 42 43 43 43 44 45 45 46 46 47 47 48 49 50
55 55 54 55 55 55 53 52 51 50 49 48 48 47 47 46 45 44 44 43 42 41 40 40 40 40 41 41 42 42 42 42 43 43 44 44 45 46 46 46 47 48 49
54 54 54 54 54 54 53 53 52 51 50 48 47 47 46 45 44 43 42 42 42 41 41 40 40 41 41 42 42 41 41 41 42 43 43 43 44 45 45 45 46 48 49
54 53 54 54 53 53 52 52 51 51 51 49 48 47 46 45 43 43 42 42 41 40 40 40 41 41 41 41 41 40 40 41 42 41 42 42 43 44 44 45 46 47 49
53 53 53 54 54 53 52 51 50 49 49 49 47 44 43 43 43 42 41 41 39 39 39 40 41 41 40 40 39 39 40 41 41 40 41 42 43 43 43 44 45 47 48
52 53 53 53 53 52 51 50 50 48 48 48 47 46 44 43 42 42 40 40 39 39 39 40 40 40 39 38 38 38 39 40 39 39 41 41 41 41 42 42 44 46 47
52 52 52 52 52 51 50 49 49 48 46 46 47 46 45 43 43 42 41 40 40 40 40 40 40 39 38 37 37 38 38 38 38 39 40 40 40 40 40 41 43 45 45
50 51 51 50 50 50 49 48 47 47 45 44 44 46 46 45 43 42 41 41 41 41 41 40 39 38 37 37 37 37 37 37 37 38 39 39 39 39 40 41 42 43 44
48 48 49 49 49 49 48 47 45 45 44 44 43 44 45 45 43 42 42 42 43 42 41 40 39 38 37 36 35 36 36 36 36 37 37 37 38 38 39 40 42 43 43
48 48 48 49 48 47 47 46 45 44 44 44 43 43 44 44 43 43 43 43 42 42 41 39 38 35 34 34 34 34 35 36 36 36 36 37 37 38 38 39 40 41 42
47 47 47 48 48 46 46 45 45 44 44 44 44 43 43 43 42 41 41 41 40 39 39 38 35 33 33 33 33 33 34 35 35 35 35 36 37 37 37 38 39 40 40
45 46 47 48 47 46 45 45 44 44 44 43 43 43 42 41 40 39 39 39 38 37 35 34 32 31 32 33 33 33 34 34 34 34 34 35 35 35 36 37 37 38 38
43 44 45 47 46 46 45 44 44 44 43 43 43 43 42 40 40 39 37 36 35 34 32 31 31 30 31 31 32 33 33 33 32 33 33 34 34 34 35 36 36 36 37
42 43 43 44 44 45 45 44 43 42 42 42 42 42 42 41 39 37 36 35 34 31 30 30 29 29 29 29 30 31 31 31 31 31 32 32 33 34 34 35 35 35 34
40 42 42 42 43 43 42 41 41 41 41 41 40 39 39 38 37 36 35 34 32 31 30 29 28 28 28 28 28 29 28 28 29 29 30 31 32 33 33 33 33 33 32
37 39 40 41 41 41 40 40 40 40 39 38 37 37 36 35 35 34 33 31 30 30 29 28 27 27 27 27 27 27 26 27 27 29 30 31 31 31 31 31 31 30 30
36 37 38 39 39 38 38 38 38 38 37 35 35 34 33 33 33 32 31 30 29 29 28 27 27 26 26 26 25 25 26 26 27 28 29 30 30 30 30 29 29 28 28
34 35 36 37 37 36 36 35 35 35 35 34 33 33 32 32 31 30 29 28 27 26 26 26 25 25 25 25 24 24 25 25 26 27 28 29 28 28 28 28 28 27 26

GEFSGL_500_meanwind_174.txt.gz
Wind_Speed
47 48 49 51 51 50 49 47 48 48 47 46 43 42 42 42 42 42 42 41 40 40 39 39 39 39 39 39 39 40 40 41 42 42 43 44 45 46 47 49 50 51 52
47 49 49 49 50 49 49 48 47 47 46 45 44 44 43 42 41 41 41 41 40 40 40 40 40 39 39 39 40 40 41 42 42 43 44 44 45 46 48 49 50 51 51
48 49 48 48 49 48 47 48 47 47 46 46 45 45 45 43 42 41 41 41 40 41 41 41 40 39 39 39 40 40 41 42 43 44 44 44 45 46 47 49 50 50 51
50 50 49 48 48 49 49 48 47 47 46 46 45 45 45 45 43 42 41 41 40 41 41 41 41 40 39 39 40 41 42 42 43 44 44 44 45 46 47 49 49 50 51
50 51 50 50 50 50 50 49 48 47 46 45 45 45 45 44 43 42 42 42 41 41 40 40 40 40 40 41 41 41 42 42 43 43 44 44 45 46 47 48 49 50 51
51 51 51 52 52 52 51 50 48 47 47 46 45 45 44 44 43 43 43 44 43 42 40 40 40 40 40 40 40 41 42 42 43 43 43 43 44 46 47 48 49 49 51
51 51 51 51 52 52 52 51 49 47 47 47 46 45 44 44 44 43 43 43 43 43 42 41 40 39 39 39 40 41 42 42 42 42 42 43 44 45 47 48 49 50 51
50 51 51 50 49 50 51 51 50 49 47 46 46 45 44 44 44 43 43 43 43 43 42 42 41 39 38 39 40 40 41 41 41 41 42 43 44 45 46 47 48 50 51
49 49 51 50 49 48 50 50 50 49 48 46 46 45 43 43 43 43 43 43 42 42 41 41 40 39 39 40 40 39 40 39 40 41 42 43 44 45 45 46 48 49 50
47 49 51 51 50 49 50 50 50 49 48 47 47 46 44 43 43 43 42 41 41 41 40 40 39 39 40 39 38 38 38 39 40 41 41 43 44 44 45 46 48 49 50
48 48 50 52 51 51 50 50 50 49 48 47 47 46 44 43 42 42 41 40 40 40 39 38 37 38 38 38 37 37 38 39 39 40 41 43 43 44 45 46 47 48 49
48 49 49 50 52 52 51 51 50 50 48 46 45 44 43 42 42 41 40 40 39 38 37 37 37 37 37 37 37 38 37 38 39 40 42 42 42 43 44 45 46 47 48
48 49 49 50 51 52 52 51 50 50 49 47 45 44 43 42 42 41 39 39 38 37 36 36 36 36 36 37 37 37 37 38 39 40 40 40 41 42 42 43 44 45 45
47 47 48 48 48 49 50 50 49 48 48 47 46 45 43 41 41 41 39 38 37 36 36 36 35 36 36 36 36 37 37 37 38 38 38 39 40 40 41 42 43 43 44
47 46 47 47 47 48 48 48 47 47 47 46 45 44 43 41 39 38 38 37 36 35 36 35 35 35 36 36 36 37 37 36 36 36 37 38 38 38 39 40 41 42 43
47 47 47 46 45 46 47 48 48 47 46 46 45 44 43 41 40 40 39 37 37 37 36 36 35 35 36 36 36 36 35 34 35 36 36 36 36 36 37 39 40 41 41
46 47 48 47 46 46 47 47 48 47 47 46 44 43 42 41 41 40 40 38 37 37 37 36 35 35 35 35 35 34 34 35 34 34 34 34 35 36 36 38 39 40 40
43 45 47 47 47 45 45 46 47 47 47 45 44 44 43 42 41 40 39 39 38 37 36 35 34 34 34 34 33 33 32 32 32 33 33 33 33 34 35 37 38 38 39
40 42 44 45 45 44 44 45 45 46 46 45 45 44 43 43 42 41 40 39 37 35 35 34 34 34 33 33 32 31 31 31 31 31 32 32 33 34 35 36 36 37 38
38 39 41 43 44 44 44 44 44 44 44 45 44 43 42 42 41 40 39 37 36 35 34 33 32 32 31 30 30 30 30 30 30 31 31 31 33 34 34 34 35 36 37
36 37 39 41 42 43 43 43 43 43 43 44 42 41 41 40 39 39 38 37 36 34 33 33 32 30 29 28 28 28 29 29 29 29 30 30 31 32 32 33 34 35 36
36 37 38 38 40 41 42 43 42 42 41 42 42 41 41 40 39 38 37 37 35 34 33 32 31 29 28 28 28 28 28 28 28 28 29 29 30 30 30 31 32 34 35
35 36 37 38 38 38 39 40 41 41 41 41 41 40 40 39 38 37 36 36 35 34 33 31 29 28 27 27 27 26 26 26 27 27 27 28 28 29 29 30 31 33 33
33 35 36 36 36 37 37 38 38 39 39 39 39 38 37 37 36 36 35 35 34 33 31 29 28 28 27 27 26 26 26 25 25 25 26 27 27 28 28 29 30 31 31
32 33 34 34 35 35 35 35 35 36 36 36 37 36 35 34 34 33 33 32 32 31 29 27 27 27 26 25 25 25 24 23 23 24 25 26 26 27 27 28 29 29 29
29 31 33 34 34 34 33 33 33 33 33 34 34 34 34 34 33 32 31 30 30 29 28 27 26 26 26 25 24 23 22 22 22 23 25 25 25 25 26 26 26 26 25

GEFSGL_500_meanwind_180.txt.gz
Wind_Speed
40 42 42 42 44 45 45 46 48 48 48 47 47 46 45 45 45 44 44 43 42 41 40 39 39 39 39 39 39 39 40 40 41 40 40 41 41 43 44 44 45 46 47
40 40 40 41 43 45 44 45 46 47 47 46 47 47 45 44 44 43 43 43 42 40 39 39 39 39 40 40 39 39 40 40 41 41 40 41 41 42 44 44 46 46 47
40 40 39 40 43 45 45 44 45 47 47 46 47 46 45 44 43 42 43 42 41 40 40 40 40 40 39 39 39 39 39 40 40 40 40 40 41 42 43 45 46 47 47
40 39 41 42 42 44 45 45 46 48 48 47 46 46 45 44 43 43 42 41 40 40 40 40 40 39 38 38 38 38 38 38 39 39 39 40 41 43 44 45 46 46 47
42 40 40 42 43 43 45 45 45 47 48 48 46 46 45 43 43 42 42 41 41 40 40 41 40 39 38 38 38 38 38 38 38 39 40 40 41 43 44 45 45 46 47
42 41 42 42 43 44 46 47 46 46 46 46 45 45 44 42 41 42 42 41 40 40 40 40 39 39 38 38 38 38 38 38 39 39 40 40 41 43 44 44 44 45 46
41 42 43 43 44 44 45 47 48 46 44 46 45 44 44 43 43 43 42 42 41 40 40 40 39 38 39 38 38 38 39 39 40 40 40 41 42 43 44 43 44 45 47
42 42 43 44 45 46 46 46 47 48 46 46 46 45 43 43 42 42 42 41 40 40 39 39 38 37 37 37 38 38 39 39 40 41 42 42 42 43 43 43 44 45 46
42 42 43 44 45 47 47 46 45 46 47 47 47 46 44 42 41 41 41 41 41 40 39 38 37 36 37 37 38 38 39 39 40 40 41 42 42 42 42 42 43 44 45
41 42 43 43 45 46 45 44 44 45 46 45 46 46 44 42 41 41 41 41 40 39 38 37 36 36 36 37 37 37 38 39 39 40 40 41 41 42 41 42 43 44 45
41 42 42 43 45 45 44 43 43 44 45 44 44 44 43 41 41 41 40 40 39 39 38 37 37 37 37 37 37 37 38 38 39 39 39 39 40 40 40 41 42 43 44
39 41 42 43 44 44 43 44 45 45 45 45 44 43 43 42 40 41 40 39 39 38 37 36 36 36 37 37 37 37 37 38 38 38 38 38 38 38 39 40 41 42 42
37 39 41 43 43 43 43 43 44 44 45 44 43 43 43 42 41 41 41 39 38 38 37 36 35 35 36 36 36 36 37 37 36 36 37 37 37 37 38 39 41 41 42
36 38 40 42 43 43 43 43 44 44 44 44 43 42 43 42 42 42 41 40 38 37 36 36 35 34 35 35 35 35 35 35 34 35 35 36 36 36 37 38 39 39 41
34 36 38 40 41 43 44 44 44 43 43 43 44 44 43 42 42 41 41 40 37 36 36 36 35 35 35 34 34 34 34 34 34 34 34 34 35 35 36 37 38 38 39
31 32 35 37 39 41 43 44 44 43 43 43 43 43 42 41 42 41 40 39 38 37 36 36 35 35 35 34 34 34 34 34 33 32 32 33 34 34 34 36 37 37 37
32 32 33 35 36 39 41 42 42 43 43 43 44 43 43 41 40 39 39 39 38 38 37 36 35 34 34 34 34 33 32 31 30 30 31 32 32 33 33 34 35 35 36
33 33 33 33 35 37 39 41 42 42 43 43 43 42 41 40 39 39 39 39 38 37 37 35 34 34 34 33 32 31 30 30 29 30 31 31 31 31 32 32 32 33 34
33 33 33 33 34 36 37 38 40 42 42 43 43 41 40 40 39 38 38 38 37 36 35 35 34 33 32 31 30 29 28 28 28 29 30 30 30 30 30 30 31 32 33
31 32 32 33 33 34 36 36 37 39 40 41 41 40 39 39 39 38 37 37 36 35 34 33 33 32 30 29 29 28 28 27 28 28 29 29 29 30 30 29 30 31 31
29 30 31 32 32 32 33 34 35 36 38 39 39 39 39 39 38 37 37 36 36 34 32 32 31 31 30 29 28 28 27 27 28 27 27 28 28 28 28 28 28 28 29
28 29 30 31 31 32 31 32 34 35 35 37 38 39 39 38 38 37 36 35 35 33 32 31 30 30 29 28 28 28 27 26 26 26 26 27 27 26 26 25 26 27 28
27 28 29 31 32 31 31 31 33 34 35 34 35 36 37 37 36 35 35 34 33 32 31 30 28 27 26 26 27 26 25 24 24 24 25 25 25 24 24 24 24 25 26
26 27 29 30 32 32 31 31 32 34 35 34 34 34 34 35 35 34 33 32 31 30 29 28 26 25 24 24 24 22 22 22 23 23 23 22 22 22 22 22 23 23 24
25 26 27 29 31 31 31 30 31 33 34 34 34 33 32 32 33 32 32 31 30 29 28 27 26 24 24 23 21 21 21 21 21 21 21 20 19 20 20 21 21 22 23
25 25 26 27 28 29 30 30 30 31 32 34 33 32 32 32 32 31 31 31 30 29 27 26 25 24 23 22 21 20 19 19 19 19 19 18 18 19 19 19 20 21 21

GEFSGL_500_meanwind_186.txt.gz
Wind_Speed
37 37 38 39 39 41 42 44 44 43 44 44 45 45 45 46 46 45 45 44 44 44 43 43 42 41 41 41 41 41 40 40 40 40 39 39 40 40 41 42 43 44 45
37 37 37 37 38 39 41 43 43 43 44 44 44 45 44 46 46 45 44 44 44 43 42 42 41 41 41 40 40 40 40 40 40 39 38 38 39 41 42 43 44 45 46
37 36 35 36 37 39 40 41 43 42 42 44 44 44 44 45 46 45 44 44 43 43 41 41 40 40 40 41 41 40 39 39 38 38 38 39 40 41 42 43 44 45 46
36 36 36 36 37 37 38 40 41 40 41 42 42 43 44 44 44 43 42 43 43 43 41 40 40 39 39 40 39 38 38 37 38 39 39 40 41 41 42 43 43 44 45
35 35 36 37 38 38 38 39 40 39 40 41 41 42 43 44 43 42 42 42 42 41 40 40 40 39 39 39 38 38 37 37 38 39 40 40 41 41 42 42 43 44 45
34 34 34 37 38 37 37 38 40 39 40 40 41 41 42 42 42 42 42 42 42 41 40 38 39 40 39 39 38 38 37 38 39 39 40 41 40 41 42 43 43 44 44
34 35 35 36 37 38 38 38 38 38 40 39 41 41 41 41 41 41 42 42 42 41 40 39 39 38 38 38 37 37 37 39 39 39 39 39 40 41 41 42 42 43 44
35 36 38 38 37 38 38 38 38 38 38 39 40 41 40 40 40 41 41 41 41 40 39 39 38 37 37 37 36 37 37 37 38 39 39 39 40 41 42 43 43 43 44
33 35 37 39 38 38 39 39 40 39 39 39 38 40 40 40 40 41 40 40 39 38 38 37 37 35 35 35 35 35 36 36 37 38 39 39 39 40 41 43 43 44 44
31 33 35 36 37 38 38 39 39 40 40 39 38 39 38 38 38 39 39 38 38 36 35 35 35 34 34 34 34 34 35 36 36 37 38 38 39 40 40 41 42 43 43
30 31 33 34 36 37 39 40 39 39 39 38 38 38 38 37 36 37 37 37 36 35 34 34 34 33 32 32 33 34 35 36 36 37 37 38 38 38 39 40 40 40 41
29 30 31 33 35 36 38 38 38 39 39 39 38 38 38 37 36 36 36 35 34 33 32 33 33 32 32 32 33 34 34 36 36 36 36 36 37 37 38 38 39 39 40
27 28 29 31 33 34 35 37 37 38 38 37 38 38 38 37 37 36 35 35 34 34 34 33 33 33 33 32 33 33 33 34 34 34 34 35 35 36 37 37 38 38 40
27 27 28 30 31 33 34 36 37 37 37 37 38 38 38 36 36 35 34 34 33 34 35 34 34 33 33 32 32 33 34 33 33 32 32 33 34 35 36 36 37 37 38
27 28 29 29 30 31 33 34 35 36 36 36 37 38 38 37 36 35 34 34 33 32 32 33 34 34 32 31 32 33 33 33 32 31 32 33 34 34 34 34 35 35 36
28 28 28 29 29 30 31 32 33 35 35 35 36 36 37 37 37 37 36 35 34 33 32 32 33 32 31 31 31 31 31 31 31 32 32 32 32 32 33 33 33 33 34
27 27 27 28 29 29 29 31 32 34 34 34 34 35 35 36 37 36 36 36 35 35 34 32 31 31 31 31 30 30 30 31 31 31 31 31 31 31 32 32 32 32 32
27 26 26 27 28 29 29 30 31 33 33 34 34 34 35 36 36 36 36 36 36 35 34 32 31 31 30 30 30 30 30 30 31 31 30 30 29 30 30 30 30 31 31
27 26 26 27 28 28 28 29 30 31 31 32 33 33 33 33 33 33 34 34 34 34 33 32 32 31 30 29 29 29 29 29 29 29 28 28 28 28 29 29 29 30 30
26 26 26 27 28 28 28 29 29 30 30 30 31 31 31 32 31 31 32 32 33 33 32 31 31 30 29 29 28 28 28 27 27 27 26 26 26 27 28 28 28 29 29
24 24 25 26 27 27 28 28 28 28 28 29 29 29 29 30 31 31 31 32 32 32 31 31 29 28 28 28 27 26 26 25 24 24 25 26 26 27 27 27 27 27 27
22 23 24 25 26 26 27 27 27 27 27 27 28 28 28 29 30 31 31 31 32 31 31 30 29 28 27 26 25 25 24 23 23 23 23 24 24 25 25 25 25 25 25
22 23 23 24 25 25 26 27 27 27 27 27 28 28 28 28 29 30 30 30 31 30 30 30 29 27 26 25 24 23 23 22 22 22 22 22 22 23 23 23 23 23 23
23 22 23 24 25 25 25 26 26 26 27 27 28 28 28 28 28 28 28 29 29 29 28 28 28 27 25 24 23 22 21 20 20 20 21 21 21 21 20 21 21 21 22
23 23 23 24 25 26 26 26 26 26 26 28 27 27 27 27 27 27 27 26 27 27 27 27 27 26 24 23 22 21 20 19 19 19 19 19 19 19 19 19 19 19 20
23 23 23 23 25 26 26 26 26 26 26 27 27 27 28 27 26 26 26 26 25 26 26 26 25 24 23 22 20 19 19 18 17 17 17 17 17 17 17 17 17 18 19

GEFSGL_500_meanwind_192.txt.gz
Wind_Speed
39 39 40 41 41 41 41 41 42 44 44 45 47 47 47 48 48 48 47 46 45 46 47 46 47 47 46 46 45 44 43 44 44 43 43 42 42 41 41 42 42 43 43
38 39 40 39 38 38 39 40 40 41 43 44 45 46 47 47 47 47 45 44 43 43 44 45 45 44 45 44 43 42 42 42 42 42 41 40 40 41 41 42 42 42 43
37 39 39 39 38 39 39 40 40 40 42 42 42 44 45 45 45 44 44 44 42 41 42 42 42 43 43 42 42 42 42 42 42 41 40 40 40 41 41 42 42 42 43
35 36 37 37 38 38 38 39 40 39 40 41 41 42 44 44 44 43 43 42 42 40 41 41 41 43 42 42 42 42 42 42 41 41 40 40 40 40 41 41 41 42 43
33 34 35 36 37 36 36 37 38 38 39 39 40 40 42 42 43 42 42 41 41 41 40 40 39 40 41 42 42 41 42 41 40 40 40 40 40 40 40 41 41 42 42
32 33 34 33 34 33 34 35 36 37 38 38 38 39 39 41 41 40 40 41 41 40 40 39 39 39 40 41 41 42 42 41 40 39 39 39 40 40 41 41 42 42 43
31 32 32 31 31 32 32 33 33 35 35 36 37 37 37 37 38 39 39 40 40 39 38 39 39 38 40 41 41 40 40 39 38 38 38 38 39 39 40 41 41 42 43
30 29 29 30 30 31 31 31 31 32 33 34 35 35 35 36 37 38 38 39 39 38 38 38 39 39 39 40 39 39 38 38 37 37 37 37 38 39 40 41 41 42 43
28 29 29 30 31 32 31 31 31 31 32 34 34 34 36 37 38 37 38 38 37 37 37 37 37 38 37 37 38 37 36 35 35 36 36 36 37 37 39 40 40 40 40
27 28 28 29 30 31 30 29 30 30 32 34 35 35 37 37 37 36 36 36 37 36 36 35 35 35 34 35 35 34 33 33 33 34 34 35 36 37 38 38 37 37 38
26 27 27 28 28 29 30 29 30 30 32 32 34 36 36 36 36 36 35 34 35 35 35 34 34 33 33 33 32 31 31 32 33 32 32 33 33 34 34 35 35 36 37
26 26 26 27 28 28 30 30 29 29 29 30 32 33 34 34 33 34 33 32 32 33 33 33 32 31 31 31 30 30 31 32 33 32 32 32 32 32 32 33 34 35 36
26 25 26 27 27 27 28 29 28 28 29 29 30 31 31 32 32 32 33 32 31 31 31 31 31 30 30 30 29 29 30 31 31 31 30 30 30 31 32 33 33 34 35
24 24 25 26 26 26 26 27 27 27 28 27 28 29 30 30 30 30 30 30 30 30 30 31 31 30 30 29 29 29 29 29 29 30 29 29 30 31 32 32 32 33 34
24 24 24 24 25 25 26 26 27 27 26 25 26 27 27 28 28 28 28 29 29 30 30 30 29 29 29 29 29 28 28 28 29 28 27 28 29 30 30 30 31 32 34
24 24 24 24 24 25 25 26 27 26 25 24 24 25 25 26 27 27 28 29 28 29 29 29 29 29 28 28 28 28 27 27 27 27 27 28 29 29 30 30 31 32 34
22 22 22 22 23 24 24 25 25 25 24 23 24 25 26 25 26 27 28 28 28 28 28 29 29 28 28 27 27 27 27 26 26 27 28 29 29 29 29 30 30 31 32
22 22 22 22 22 23 24 24 25 24 24 23 25 26 27 26 26 27 28 28 28 28 28 28 28 28 27 27 26 26 26 26 26 27 28 28 28 29 29 29 30 30 31
22 22 22 22 21 22 23 23 24 24 25 24 25 26 27 27 26 26 26 26 26 27 27 27 27 27 26 26 25 25 26 26 26 26 26 27 27 28 28 28 28 28 28
23 22 22 22 22 22 23 23 23 23 24 24 24 25 26 26 26 26 26 26 25 25 26 25 25 25 26 26 25 26 25 25 25 25 25 25 25 26 26 26 26 26 27
21 21 22 22 22 22 22 23 23 23 22 22 23 24 25 26 26 25 25 25 25 25 25 25 25 24 24 24 25 25 24 24 24 24 24 23 23 23 23 24 25 25 25
21 20 21 21 22 22 22 23 24 24 23 23 23 23 23 25 25 25 24 24 25 25 25 24 24 23 22 22 22 23 22 22 22 22 22 22 21 22 22 22 22 23 24
20 20 20 20 21 22 22 23 23 24 23 23 23 23 23 24 25 25 24 23 23 23 23 23 23 22 21 21 20 20 19 19 19 19 19 20 20 20 20 20 21 22 22
20 20 19 19 20 20 21 22 22 22 23 23 23 24 24 24 24 24 24 24 23 22 22 22 22 21 20 20 21 20 19 18 18 18 19 19 19 18 18 19 20 20 21
20 20 20 20 20 21 21 21 22 22 22 22 23 23 23 23 23 23 23 23 23 22 21 21 21 21 20 20 19 19 17 16 17 18 18 18 17 17 17 18 19 19 19
19 20 20 21 21 21 21 21 21 21 21 22 22 23 22 22 22 22 22 22 22 22 21 20 20 20 20 19 19 18 17 16 16 16 17 16 16 16 16 17 17 17 17

GEFSGL_500_meanwind_198.txt.gz
Wind_Speed
43 40 40 40 40 41 42 43 43 44 45 46 46 45 45 45 46 47 47 47 47 47 47 47 46 47 47 46 45 45 44 43 42 41 41 41 41 42 42 42 42 42 42
41 40 39 38 39 40 40 40 41 42 42 42 42 43 43 44 44 44 45 46 46 46 46 46 45 45 44 43 43 43 43 43 42 41 40 41 41 41 42 42 42 42 42
40 38 37 38 38 37 37 38 39 39 40 40 40 40 41 42 43 42 42 43 44 44 44 44 43 43 42 40 41 41 42 42 41 40 40 40 40 40 42 42 42 42 42
38 37 37 37 37 37 37 37 37 37 37 38 39 39 39 40 40 41 41 41 41 42 42 42 42 41 41 40 40 40 41 40 39 39 39 39 39 39 41 41 42 42 42
38 37 36 36 36 36 37 37 37 36 35 36 37 38 38 38 38 38 39 39 39 40 41 41 41 40 40 41 41 40 39 38 39 39 38 38 38 39 40 41 42 41 41
37 36 36 36 36 35 36 36 36 36 35 35 36 36 36 36 36 36 37 37 37 38 39 40 39 39 39 38 38 37 36 37 38 38 37 38 39 39 40 40 40 40 40
36 35 36 36 36 36 36 35 34 35 34 34 34 34 34 34 35 35 34 34 35 36 37 37 36 37 37 37 35 36 37 37 37 37 38 39 39 38 38 38 39 39 39
35 35 34 34 34 34 34 33 33 32 33 33 33 33 33 33 34 35 34 34 35 35 35 34 34 35 35 35 35 36 36 36 36 36 36 36 35 35 35 36 37 37 38
34 34 33 32 31 31 31 32 31 31 32 33 33 33 34 34 34 34 34 33 33 33 33 34 34 34 33 33 34 33 33 34 34 33 33 32 32 33 34 35 35 36 36
32 31 31 30 29 29 29 29 29 28 28 29 29 30 31 31 31 31 31 31 31 31 31 31 31 32 32 32 32 32 32 32 31 32 32 31 32 33 33 33 33 34 34
30 29 28 28 28 28 28 28 28 27 27 27 27 28 28 29 30 30 30 30 30 30 29 29 29 30 30 30 30 30 30 30 30 31 31 32 32 32 32 31 30 31 31
27 26 26 25 25 25 25 26 27 27 26 26 27 27 26 27 27 27 28 28 27 27 28 28 28 28 28 28 28 28 28 29 29 30 31 31 31 30 30 29 28 28 29
24 24 24 23 23 23 24 25 26 25 25 25 26 26 25 25 25 25 25 26 27 26 27 27 27 27 27 27 27 27 27 28 29 29 29 28 28 28 28 27 27 27 28
22 22 22 22 22 22 23 23 24 24 24 24 24 25 25 25 25 25 24 25 25 25 25 25 25 25 26 26 25 25 26 27 27 27 27 27 27 26 26 26 26 26 28
21 21 21 21 22 21 21 21 22 21 22 22 22 23 24 24 24 24 24 24 23 23 23 23 23 23 24 24 24 25 25 25 25 26 26 25 25 24 24 25 25 27 28
21 21 21 21 21 21 20 20 21 20 20 21 21 22 22 22 23 23 23 24 24 23 23 22 22 22 22 22 22 23 23 24 24 24 24 24 23 23 23 24 25 26 28
21 21 20 21 21 20 20 20 20 20 19 19 20 21 21 21 22 23 23 23 23 23 22 22 22 22 22 22 22 22 23 23 22 22 22 22 22 23 23 23 24 25 26
21 21 21 20 20 20 20 19 19 18 18 18 19 20 20 20 21 22 22 23 23 23 22 21 21 21 21 22 22 21 21 20 20 20 20 20 21 21 21 22 23 25 25
20 20 20 19 19 19 20 19 19 19 18 18 19 20 20 19 20 20 20 21 21 21 20 20 19 19 20 20 20 20 19 19 19 19 19 19 20 20 21 22 23 23 24
19 19 19 19 18 18 18 18 18 18 18 17 17 18 18 18 18 19 19 20 20 20 20 19 19 18 19 19 19 18 17 17 17 17 17 18 18 18 20 21 22 22 23
17 17 17 18 18 18 18 18 18 17 17 17 17 17 18 18 18 18 19 19 19 20 19 18 18 17 18 17 16 15 15 16 15 15 15 16 17 18 19 20 20 21 22
17 16 17 17 17 17 17 17 18 18 18 17 18 18 18 19 19 18 18 19 19 19 18 17 17 16 16 16 15 15 14 14 15 14 15 15 16 17 18 19 19 19 21
17 17 17 17 17 17 17 17 17 18 17 17 17 18 18 19 19 19 19 19 19 19 18 17 17 17 17 16 16 15 14 13 13 13 14 14 15 15 16 17 18 19 20
17 17 17 17 17 17 17 17 17 17 17 18 18 18 18 19 19 19 18 18 19 19 18 18 17 17 17 16 15 14 13 13 13 13 13 12 12 13 14 16 17 18 18
17 17 17 17 17 17 17 17 17 17 17 17 17 18 18 18 18 19 18 18 18 18 17 17 16 16 16 15 14 13 13 12 12 12 12 11 12 13 14 15 15 16 16
17 17 17 17 17 17 16 16 16 17 17 17 17 17 18 18 18 19 18 18 18 17 17 16 16 15 15 14 13 13 13 12 12 11 11 12 12 13 13 14 14 14 14

GEFSGL_500_meanwind_204.txt.gz
Wind_Speed
43 43 43 43 42 43 43 43 43 43 43 43 43 43 43 43 44 45 46 46 46 46 47 47 46 46 46 45 45 46 46 46 46 45 44 44 45 46 46 45 46 45 46
42 41 41 41 40 41 41 41 41 41 41 42 42 42 42 42 43 44 45 45 45 45 46 45 45 44 43 42 43 43 44 44 44 43 42 43 44 44 43 43 42 43 44
41 41 41 40 39 40 40 39 39 40 40 41 41 41 40 40 40 41 41 41 42 42 43 43 42 41 41 40 41 42 43 42 42 41 41 41 41 42 41 41 41 42 43
41 40 40 39 39 38 39 39 39 39 39 40 39 39 39 39 39 38 38 39 39 40 40 41 40 39 39 39 40 41 42 41 40 39 39 39 40 40 41 41 41 41 42
40 39 39 39 39 38 37 38 37 37 37 37 37 37 37 37 37 36 36 37 38 38 38 38 38 37 38 37 38 39 39 39 38 38 38 38 39 39 40 41 41 41 41
39 38 38 37 37 37 36 36 35 35 35 35 35 35 36 36 36 36 35 36 37 36 36 36 36 35 35 35 36 37 37 37 37 36 36 36 37 38 40 41 40 40 40
36 36 36 36 36 36 36 35 34 34 33 34 34 35 36 36 35 36 36 35 35 35 35 35 35 34 35 34 34 35 36 36 36 36 36 35 36 37 39 38 38 38 39
35 35 34 35 34 34 34 34 33 32 32 33 33 34 34 34 34 33 34 34 33 33 33 33 33 33 34 34 34 34 35 36 35 35 35 35 35 36 37 36 36 37 36
35 35 35 34 33 32 32 31 31 31 31 31 31 31 31 31 31 31 32 31 31 31 32 32 32 33 33 33 34 34 35 36 35 34 34 33 34 35 35 35 35 34 33
36 35 34 33 32 32 32 31 30 29 28 28 28 28 29 29 29 30 30 30 31 31 32 33 33 33 33 33 33 34 35 35 34 33 32 32 33 34 34 33 32 32 32
35 35 33 32 32 31 31 30 28 26 25 25 26 26 26 27 28 29 29 30 30 31 31 32 32 32 33 33 33 32 32 32 32 31 31 31 32 31 31 30 31 30 30
34 33 32 31 30 29 28 27 26 25 24 24 25 25 25 26 27 28 29 29 29 30 30 31 31 31 31 31 31 30 30 31 30 30 30 30 30 30 29 29 29 29 29
31 30 29 29 28 27 26 24 25 25 25 24 24 24 24 24 25 26 27 27 27 27 28 29 29 29 29 29 30 29 29 29 28 29 28 28 28 28 28 29 29 28 28
26 26 25 25 25 25 25 24 24 24 24 23 23 23 22 23 24 24 24 23 24 25 26 26 26 26 26 26 27 26 26 27 27 26 26 26 25 25 26 27 27 26 26
24 24 24 23 23 23 23 22 22 22 22 22 22 22 22 21 21 22 22 22 22 23 23 23 23 23 23 23 23 24 24 24 24 25 24 24 23 24 24 25 25 24 23
23 23 23 22 22 22 22 21 22 22 21 20 20 21 20 20 20 20 20 20 21 21 21 20 20 20 20 20 20 20 20 21 23 23 23 22 22 23 23 22 22 21 21
23 22 22 22 22 22 21 21 21 21 20 19 19 19 19 19 20 20 19 19 19 19 18 18 18 18 18 18 18 18 19 20 20 21 21 21 21 20 20 20 20 19 19
20 20 20 20 20 20 19 19 19 19 18 18 17 17 17 17 18 18 18 18 18 17 17 17 18 18 18 18 18 18 18 19 18 18 18 18 17 17 17 17 17 18 18
17 17 17 17 17 16 16 16 17 17 17 16 16 16 16 16 16 17 17 17 17 17 16 17 18 18 18 18 17 17 17 16 16 15 15 15 15 15 15 16 16 16 17
15 14 15 15 15 15 15 15 15 15 15 15 15 15 15 16 16 16 16 16 17 17 17 18 18 18 17 16 16 15 14 14 14 14 14 14 14 14 14 14 15 15 15
14 14 14 13 13 14 14 14 14 14 14 14 14 14 14 15 15 15 15 16 16 17 17 17 16 16 16 15 15 14 13 13 13 13 12 12 12 13 13 13 14 14 14
13 12 12 12 12 13 14 14 14 15 15 15 14 14 14 14 14 15 15 15 15 16 16 15 15 15 15 14 13 13 12 12 12 12 12 11 11 11 12 12 12 12 13
14 13 12 12 12 12 13 14 14 14 14 14 14 14 14 14 14 15 15 14 15 15 14 14 14 14 13 13 12 12 12 11 11 11 11 11 10 10 10 11 11 11 11
14 13 13 12 13 13 14 14 14 14 15 15 15 15 14 14 14 14 15 15 15 15 14 14 13 13 13 13 12 12 11 11 10 10 10 10 10 9 9 9 9 9 10
15 14 13 13 13 13 13 13 13 14 15 15 14 14 14 14 14 14 15 15 15 15 14 14 13 13 13 13 11 11 10 10 9 9 9 9 8 8 8 8 7 7 8
14 14 13 13 13 13 13 12 12 13 13 13 13 13 14 13 14 14 14 14 15 15 15 14 13 13 12 12 11 10 9 8 8 7 7 7 7 7 6 6 6 6 6

GEFSGL_500_meanwind_210.txt.gz
Wind_Speed
47 48 48 49 50 50 50 49 49 48 48 48 47 48 49 49 49 48 47 46 46 46 47 46 46 45 45 45 45 46 46 46 45 44 44 44 45 45 46 46 46 46 46
47 47 47 47 47 47 46 46 46 46 46 46 46 47 47 47 47 46 45 45 45 45 45 45 45 46 45 45 45 45 45 45 45 43 43 43 42 42 42 43 42 43 43
46 46 45 45 44 44 43 44 45 45 44 44 44 44 45 45 45 44 43 43 42 42 42 43 43 43 43 43 43 42 42 42 42 42 41 40 40 39 40 41 41 41 41
44 44 44 43 42 41 41 43 43 43 43 43 43 43 43 42 41 41 40 41 41 40 41 42 43 43 42 42 41 39 39 39 39 40 39 38 38 38 39 39 39 40 40
42 42 41 41 41 41 40 40 40 40 41 41 41 42 40 39 38 39 39 39 39 39 39 40 40 40 39 38 38 37 36 36 37 37 37 37 36 36 37 38 39 39 39
41 40 40 41 40 39 39 38 39 39 39 39 40 39 38 37 37 37 37 37 37 37 36 36 35 36 36 35 35 35 35 34 35 36 35 35 34 34 36 38 38 37 37
40 40 40 40 40 39 39 39 40 38 37 38 38 37 36 35 35 36 36 35 34 33 33 33 33 33 33 33 33 32 32 32 34 34 33 34 34 35 35 35 36 36 36
39 39 40 40 39 38 38 38 38 37 36 36 35 34 32 32 32 32 33 33 32 31 31 32 32 31 30 31 31 30 29 31 32 32 32 33 34 34 34 34 34 34 34
37 38 38 38 37 36 35 35 35 35 35 33 32 32 31 30 30 31 31 30 30 29 29 29 30 28 28 29 29 29 29 30 30 30 31 31 32 32 32 33 32 32 31
38 38 38 37 36 35 35 35 34 34 33 31 30 30 30 30 29 29 29 29 28 28 28 28 28 28 28 28 29 30 30 30 31 30 30 29 29 30 30 30 30 29 30
37 37 37 37 36 35 35 35 34 32 31 30 30 29 29 28 29 28 28 28 28 28 28 28 28 28 28 28 29 30 30 29 30 30 29 29 28 28 28 28 28 28 29
37 37 37 37 37 36 35 33 32 31 30 30 29 28 28 28 27 27 27 27 28 28 27 27 27 28 28 29 29 29 28 27 28 28 27 27 27 27 27 27 27 28 27
35 35 36 36 35 34 33 31 31 30 29 29 28 26 26 26 26 26 26 27 27 27 27 27 27 28 28 27 27 27 27 25 25 25 25 25 26 26 26 26 26 26 26
33 33 33 33 32 31 30 30 29 28 27 26 26 25 24 25 25 26 26 26 26 26 27 27 27 26 26 25 25 26 26 25 25 24 24 24 25 25 25 25 25 25 25
31 30 29 29 28 28 28 28 27 26 26 25 24 24 24 23 24 24 24 25 25 25 24 24 24 23 24 24 24 24 24 24 23 22 22 23 24 23 24 24 24 23 24
29 28 27 26 26 26 26 26 25 25 24 24 23 23 22 21 21 22 22 22 22 22 21 21 22 22 22 21 21 21 21 21 20 20 20 21 21 21 21 22 22 22 21
26 26 26 25 25 25 25 24 24 23 23 23 22 21 20 19 19 19 19 20 20 19 19 18 19 18 18 18 19 19 19 19 19 19 19 20 19 19 20 20 20 19 19
24 24 24 24 24 23 23 23 23 22 22 22 21 21 20 19 19 19 19 18 17 17 17 16 16 16 16 17 17 18 18 18 18 18 18 18 18 18 18 18 18 17 17
22 22 22 21 21 21 21 21 21 21 21 21 20 19 18 18 18 17 17 17 17 16 16 16 16 17 16 16 16 17 17 17 18 17 17 16 16 16 16 16 15 15 15
20 20 20 19 19 19 19 19 19 19 19 18 18 17 17 16 16 15 15 16 15 15 15 15 15 16 16 16 16 16 16 16 16 16 15 15 15 15 15 14 14 14 13
18 18 17 17 16 16 16 15 15 15 16 16 16 16 16 15 15 14 14 14 14 14 14 14 14 14 15 15 14 14 13 13 14 14 13 13 13 13 12 12 12 11 11
16 15 14 14 13 13 13 13 13 13 14 14 14 14 14 14 13 13 13 12 12 12 12 12 13 13 13 13 13 12 12 12 12 12 12 11 11 10 10 10 9 9 10
13 13 12 12 12 11 11 11 11 11 12 12 12 13 13 12 12 12 11 11 11 11 11 11 11 11 12 12 12 12 11 11 11 11 10 9 9 9 9 9 9 9 9
13 12 12 11 11 11 11 11 11 11 11 11 11 11 11 11 11 11 11 10 10 10 10 9 9 9 10 10 10 10 9 9 9 9 9 9 9 8 8 7 7 8 8
13 12 12 11 10 10 10 10 9 9 9 9 9 9 9 10 10 10 10 10 10 10 9 9 9 9 9 9 9 9 9 9 9 8 8 7 7 6 6 6 6 6 7
13 12 12 11 11 10 10 9 9 8 8 8 8 8 9 9 9 9 9 9 10 10 9 9 9 9 9 10 9 9 9 8 8 8 7 6 5 5 5 5 5 5 5

GEFSGL_500_meanwind_216.txt.gz
Wind_Speed
46 47 47 48 48 49 50 52 53 53 53 54 54 54 54 53 53 53 53 53 53 52 52 51 51 51 50 51 50 49 48 48 48 46 46 47 47 47 46 47 48 48 49
45 47 48 48 48 49 50 51 51 51 52 52 53 52 51 51 50 50 50 50 50 49 49 48 48 48 47 47 47 46 46 46 46 45 45 45 45 45 44 44 45 45 45
45 46 46 46 47 48 49 49 50 50 50 50 50 50 49 49 48 47 47 47 46 45 45 45 44 44 44 44 44 45 45 45 44 44 42 42 42 42 42 42 43 42 41
44 44 44 45 46 46 47 47 48 48 48 48 48 47 47 47 46 45 45 44 43 42 42 42 41 40 40 41 43 43 43 43 43 42 40 39 39 38 37 37 37 38 38
42 41 42 43 44 45 45 46 46 47 47 46 45 44 44 44 45 43 43 42 41 40 40 40 39 38 38 39 40 40 40 40 40 38 37 36 35 35 34 33 33 34 34
40 41 42 42 43 44 44 44 45 45 44 43 43 43 42 43 42 42 41 39 39 39 39 38 37 36 36 37 37 37 37 37 36 36 35 34 33 32 31 31 32 33 33
40 40 41 41 42 42 42 43 43 42 42 41 41 40 40 39 40 40 39 38 37 37 37 36 35 35 35 35 35 35 34 34 34 34 32 32 31 31 30 31 31 32 31
39 40 40 40 41 40 41 40 40 39 39 39 39 39 39 39 38 38 37 37 36 35 34 34 34 34 34 34 34 33 33 33 33 32 30 30 29 29 29 29 30 30 30
38 39 38 39 39 38 38 38 37 37 37 37 37 38 38 37 36 35 35 35 34 33 32 32 32 32 32 31 31 31 31 31 31 31 30 30 30 29 29 29 28 27 27
36 37 37 37 37 37 37 36 36 36 36 35 35 35 34 33 33 33 34 33 31 30 29 29 29 29 29 29 28 28 27 27 28 28 29 29 28 28 27 27 26 26 26
35 36 36 36 36 36 36 36 35 34 33 33 33 32 31 31 31 31 30 29 28 28 28 27 27 27 27 27 26 26 26 26 26 27 28 28 27 27 25 25 25 25 25
34 35 35 35 34 34 35 34 33 33 32 31 31 30 30 29 29 29 28 29 28 27 26 26 25 25 25 25 25 24 25 25 26 26 26 26 26 25 24 24 24 23 23
35 34 34 33 33 33 32 32 32 31 30 30 29 29 29 29 29 28 28 28 28 27 26 25 25 25 25 25 25 24 24 23 23 23 23 23 24 23 23 23 22 22 22
32 32 32 32 31 31 31 30 29 29 28 28 27 28 28 28 27 27 27 26 25 25 24 24 24 24 24 24 24 23 22 21 21 21 21 21 21 21 21 21 21 21 21
30 30 30 30 30 29 29 28 27 27 27 27 27 27 27 27 26 26 25 25 24 24 24 23 23 23 22 22 22 21 20 19 19 19 19 19 18 18 18 19 19 19 20
28 28 28 27 28 28 27 27 26 26 26 26 26 26 26 25 25 25 25 24 24 24 23 23 22 21 21 20 19 19 18 17 17 17 17 16 16 16 17 17 18 18 18
26 26 26 26 26 26 26 26 26 26 26 26 26 26 25 25 24 24 24 24 23 22 21 21 20 19 18 17 17 17 17 17 17 17 17 17 16 16 16 16 16 16 16
25 25 24 24 24 24 24 25 25 25 25 25 25 25 25 24 23 23 22 22 21 20 19 18 18 17 16 15 15 16 16 17 17 16 16 15 15 14 14 14 14 13 13
22 22 22 22 22 22 23 23 22 23 23 23 23 24 23 23 22 22 21 20 19 18 18 17 16 15 15 15 15 15 16 16 16 16 15 14 13 12 12 12 11 11 11
20 20 20 20 20 20 21 21 21 21 22 21 21 22 22 21 21 20 19 18 17 16 16 15 15 15 14 14 14 15 15 15 15 14 13 13 11 11 10 10 10 10 11
20 20 20 20 20 20 20 20 20 21 21 21 20 20 19 19 18 17 16 16 15 15 15 14 13 13 13 13 13 13 13 13 13 13 12 11 10 10 10 10 10 10 10
19 20 20 20 20 19 19 19 19 18 18 17 17 17 17 16 15 15 14 14 14 14 13 12 12 12 12 11 11 11 11 12 12 12 12 11 10 10 10 10 10 10 10
18 18 18 18 17 17 17 17 16 15 15 14 14 14 13 13 13 13 13 13 14 13 12 12 11 11 11 11 10 10 10 11 11 11 11 10 10 9 9 9 9 9 9
16 15 15 15 14 14 14 14 14 13 12 12 11 11 11 10 10 10 11 12 12 12 12 11 11 11 11 10 10 9 10 11 11 10 9 9 9 9 8 8 8 7 7
14 14 14 14 13 12 12 12 12 11 11 10 9 9 9 9 8 8 9 9 10 11 11 11 11 10 10 9 9 9 10 10 10 9 8 8 8 8 7 7 6 6 5
13 12 12 12 11 11 11 10 11 10 10 9 8 8 8 7 7 8 8 8 9 9 10 11 10 10 9 8 8 9 9 9 9 8 8 8 7 6 6 5 4 4 4

GEFSGL_500_meanwind_222.txt.gz
Wind_Speed
45 46 46 47 47 47 47 48 49 50 50 50 50 51 52 53 53 54 54 54 54 54 54 53 52 51 50 49 49 50 50 51 51 49 49 49 49 49 49 49 49 49 48
45 46 47 46 46 46 46 47 47 48 49 50 50 51 52 53 53 54 54 54 53 53 52 51 50 49 48 48 48 47 48 49 49 49 47 47 47 48 47 46 45 45 44
44 44 44 44 44 45 45 45 45 47 48 49 50 50 52 52 52 52 53 51 50 50 49 48 47 47 46 46 46 47 47 48 48 49 47 47 46 45 44 43 42 41 40
42 43 42 42 43 44 45 45 45 45 46 47 48 50 50 50 50 50 49 48 47 46 45 45 45 45 44 45 45 45 46 46 46 46 46 45 43 41 41 39 38 37 37
41 41 42 42 43 43 44 44 44 45 46 47 47 48 47 48 48 47 45 45 44 43 43 43 44 44 43 43 43 43 44 44 44 43 42 41 39 38 36 35 35 34 33
41 41 42 42 43 43 43 43 43 44 44 45 46 46 46 46 45 44 43 42 42 42 42 42 42 42 42 42 41 42 42 41 40 40 39 37 35 34 33 32 32 32 32
40 41 42 42 42 42 42 42 42 43 43 44 44 44 44 43 42 41 40 40 40 41 40 40 40 40 41 41 39 39 39 38 38 37 36 33 32 32 31 30 30 30 31
40 40 41 41 42 42 42 42 41 41 41 42 42 42 41 40 39 39 40 39 39 39 38 39 38 38 38 38 37 36 36 36 35 35 34 32 32 31 31 30 30 29 29
39 39 40 40 41 41 41 41 41 41 41 40 39 39 38 38 38 39 39 38 37 37 37 37 37 36 36 36 36 36 35 34 33 32 31 30 30 30 30 30 29 27 26
39 39 39 39 40 40 40 40 40 40 40 39 38 37 37 37 37 37 36 36 35 35 35 35 35 35 34 34 34 33 33 32 31 30 30 29 29 29 29 29 28 27 26
38 38 38 39 39 39 38 38 38 38 38 37 36 36 36 36 36 35 34 34 34 33 33 33 33 33 33 33 33 32 31 30 29 29 29 29 29 28 28 28 27 26 24
37 38 38 39 38 37 37 36 36 35 35 35 34 34 35 35 34 34 33 33 33 33 32 32 32 32 32 31 31 31 30 29 28 28 29 28 28 27 26 26 25 23 22
36 37 37 37 36 35 35 33 32 32 33 33 33 33 33 33 33 33 32 32 32 32 31 31 32 32 31 31 30 29 28 27 27 27 27 26 26 25 24 23 23 22 22
35 35 35 35 34 33 32 31 31 31 32 32 32 32 32 31 30 30 31 31 32 31 31 32 31 31 29 28 26 25 25 25 24 24 24 24 24 23 22 22 21 21 20
33 33 33 33 32 31 31 31 30 31 32 32 31 30 29 28 28 29 29 30 30 30 30 29 28 27 25 24 23 22 22 22 22 22 22 22 22 21 21 20 19 19 18
31 31 31 31 30 30 30 30 30 30 30 30 29 28 27 27 27 27 28 28 28 28 28 27 25 24 24 23 22 22 22 21 21 21 21 20 20 19 18 17 17 16 15
30 30 29 29 29 29 29 29 29 28 28 28 28 27 27 27 27 27 27 27 27 27 26 25 25 24 23 22 21 20 20 20 20 19 18 17 17 16 15 15 15 14 14
29 29 29 28 27 27 27 27 27 26 26 26 26 26 25 26 26 25 25 26 25 25 25 25 24 22 22 21 20 19 19 18 18 17 15 14 14 14 14 14 13 13 13
29 28 28 27 27 26 26 26 25 25 25 24 24 25 25 25 25 25 25 24 23 23 23 22 21 20 20 19 18 17 17 17 16 14 13 12 12 12 12 11 11 11 11
28 28 27 27 26 26 26 25 25 25 24 24 24 24 24 24 24 24 24 23 21 21 20 19 19 18 17 16 15 14 14 13 12 12 12 11 10 10 10 9 9 9 9
26 26 26 25 25 25 25 25 24 24 23 23 23 24 24 24 24 24 23 21 20 18 18 17 17 16 15 14 13 11 10 10 10 10 10 9 9 8 8 8 8 8 8
23 24 24 23 23 23 23 23 22 22 22 22 22 22 22 22 22 21 21 19 18 17 16 15 14 13 12 11 11 10 9 9 8 8 8 8 8 8 8 8 7 7 7
22 21 21 21 21 21 21 21 20 20 20 20 20 19 19 19 19 18 17 17 16 15 14 13 12 12 11 11 10 9 9 8 7 7 7 7 7 7 7 7 6 6 6
20 20 20 20 20 20 20 20 19 19 19 19 18 17 17 16 15 14 13 13 13 12 12 12 12 12 11 10 9 9 9 8 7 7 7 6 6 5 5 5 5 5 5
20 19 19 19 19 19 18 18 18 17 17 17 16 15 14 13 12 11 10 10 10 10 11 10 10 10 10 10 9 8 8 7 6 6 5 5 4 4 4 4 4 4 4
19 19 18 18 17 17 16 16 15 15 15 14 13 12 11 10 9 9 8 8 8 9 9 9 9 9 9 9 9 8 8 7 6 5 5 4 4 4 4 4 3 3 3

GEFSGL_500_meanwind_228.txt.gz
Wind_Speed
44 44 44 45 45 45 46 46 47 48 49 49 49 50 49 49 49 50 50 50 51 50 51 52 52 52 51 51 50 50 50 51 50 48 48 47 48 48 48 48 47 47 47
44 44 45 45 45 45 46 46 47 47 48 48 48 48 48 48 49 49 49 50 50 51 51 51 51 50 49 49 49 50 50 50 49 48 46 46 46 46 46 45 45 44 44
43 44 44 45 45 45 45 46 46 46 46 46 46 46 47 47 47 47 48 48 49 49 49 49 48 48 48 48 49 48 48 48 48 48 46 46 45 44 44 43 43 44 44
42 43 43 44 44 44 45 44 45 45 45 44 44 44 45 45 45 45 46 47 48 48 48 47 46 47 47 47 47 46 46 46 46 46 45 44 43 42 42 41 41 42 41
42 43 43 44 44 44 43 44 44 44 43 43 43 43 43 43 44 45 46 47 47 47 46 46 46 46 45 45 45 45 45 45 45 44 43 42 41 40 40 39 39 39 38
41 42 42 42 42 42 43 43 43 43 42 43 43 43 43 43 43 44 44 45 44 44 44 45 45 44 44 44 44 44 44 43 42 42 41 40 39 38 37 37 37 36 35
40 41 41 41 41 41 42 43 42 42 42 42 43 43 43 43 43 44 44 44 44 44 44 44 43 43 43 43 43 42 42 41 41 41 40 39 38 37 37 37 36 34 35
40 40 40 40 40 42 42 42 43 42 42 43 43 42 42 42 43 44 44 44 43 43 43 42 42 42 42 42 41 41 40 40 39 39 38 38 37 37 36 35 33 34 35
40 40 40 40 41 42 42 42 42 42 42 42 42 42 41 42 43 43 43 42 42 41 41 41 42 41 41 41 41 40 39 38 38 37 37 37 36 36 35 34 33 32 32
40 40 40 40 40 41 41 41 41 41 41 41 41 41 41 41 42 41 41 41 40 40 40 40 41 40 40 40 40 39 38 37 37 36 35 35 34 34 33 32 31 30 30
39 39 39 39 39 39 39 39 40 40 41 40 40 40 40 40 40 39 40 40 40 39 39 38 38 38 37 38 38 37 36 35 35 34 34 33 32 31 31 31 30 29 29
38 38 39 39 38 38 38 39 39 39 39 39 39 38 37 37 37 37 38 38 38 38 37 37 36 36 36 36 36 35 34 34 33 33 32 31 30 30 30 30 29 28 28
38 38 38 38 38 38 38 37 37 37 37 37 36 36 36 36 36 37 37 37 37 37 36 35 34 34 34 35 34 34 33 33 32 31 31 29 29 28 27 26 26 25 25
37 37 37 37 36 36 36 36 36 36 36 35 35 35 35 35 36 36 35 35 34 33 33 33 33 33 33 33 31 31 31 30 30 29 28 27 26 25 24 23 23 23 24
36 35 35 35 35 35 35 35 35 35 34 34 34 34 34 34 35 34 32 31 31 31 31 32 32 32 31 30 29 29 28 27 27 26 25 24 23 22 22 22 22 22 22
34 34 34 34 34 34 34 34 34 33 33 32 32 32 32 32 31 30 30 30 30 30 30 30 30 29 28 28 27 26 25 24 23 23 22 21 21 21 21 20 21 21 20
34 34 33 33 33 33 32 32 32 32 32 31 31 30 30 29 29 28 28 29 29 29 29 28 27 27 26 25 24 23 22 21 21 20 19 19 20 20 20 19 19 19 19
33 33 33 32 32 32 31 31 31 30 29 29 29 29 29 29 29 28 28 28 28 27 27 26 25 24 24 23 22 21 20 19 19 18 18 18 19 19 19 18 18 17 17
32 33 33 32 32 31 30 30 29 29 29 28 28 29 29 29 29 29 28 27 27 26 26 25 23 22 22 21 19 18 18 18 17 17 17 17 18 17 17 16 16 15 14
30 30 31 30 30 29 29 28 28 28 28 28 28 29 29 29 29 28 28 27 26 26 24 23 22 21 20 19 18 18 17 17 16 17 17 16 16 15 15 14 13 13 12
29 29 28 28 28 28 27 27 27 26 26 27 27 28 28 27 27 27 27 26 25 24 23 22 21 20 19 18 18 17 17 17 16 16 15 15 14 14 13 12 12 11 10
27 27 26 26 26 26 26 26 25 25 25 25 25 25 25 24 24 24 24 23 22 21 20 19 19 18 17 17 17 16 16 15 15 14 13 13 12 11 11 10 10 9 8
25 25 25 24 24 24 24 24 23 23 22 22 22 22 22 21 21 20 20 19 18 18 17 17 16 16 15 15 15 14 13 12 12 11 10 10 10 9 9 8 8 8 7
24 24 23 23 22 22 22 21 21 20 19 19 19 19 18 18 17 17 17 16 16 15 14 14 13 13 13 12 12 11 11 10 10 10 9 9 9 8 7 7 7 7 6
22 22 22 21 20 20 19 19 19 18 18 17 17 16 16 16 16 16 15 15 14 14 13 12 11 11 11 10 10 10 9 9 8 8 8 7 7 7 7 7 7 7 7
20 20 19 19 18 18 17 17 17 17 17 17 16 16 15 15 15 14 14 13 12 12 11 11 10 9 9 8 8 8 8 8 7 7 7 7 6 6 7 7 7 7 7

GEFSGL_500_meanwind_234.txt.gz
Wind_Speed
46 46 46 46 46 46 46 46 47 47 48 47 48 47 47 47 47 47 47 47 47 47 48 49 49 50 50 50 50 52 53 53 52 50 50 50 50 49 48 48 47 46 46
46 46 46 46 46 46 47 47 48 48 47 47 47 47 47 47 47 47 47 47 48 48 48 48 48 49 49 50 51 52 53 52 52 51 50 49 48 46 46 46 45 45 45
46 46 46 46 46 46 47 47 47 47 46 46 46 46 47 47 47 47 48 48 48 48 48 47 48 49 50 50 51 52 53 52 51 50 48 46 45 45 45 44 44 44 44
46 46 45 45 46 46 46 47 47 46 45 45 45 46 46 46 46 47 47 48 48 48 48 47 48 49 50 51 52 53 52 51 50 48 46 45 44 44 44 43 42 42 41
45 45 45 45 45 45 46 46 46 45 45 45 45 46 46 46 46 47 47 47 48 48 48 48 48 49 50 51 51 50 49 48 47 46 45 45 44 42 41 41 40 40 39
44 44 44 45 45 44 44 45 45 45 45 45 46 46 46 46 46 47 46 47 47 47 48 48 48 49 49 49 49 47 46 45 44 44 44 43 42 41 40 39 39 39 38
44 43 43 43 43 43 43 43 44 44 45 45 46 46 46 46 46 46 46 46 46 47 47 48 48 48 47 47 46 45 44 44 44 43 42 41 40 40 39 39 38 38 37
43 42 42 42 42 42 42 42 42 43 44 45 45 45 45 46 46 46 46 46 47 47 47 47 46 46 45 44 44 43 43 43 43 42 41 40 40 39 39 38 37 37 37
42 42 43 43 43 43 42 42 42 43 43 44 44 44 44 44 45 45 46 47 47 47 46 45 45 44 44 43 42 42 41 41 41 40 40 39 39 38 38 38 38 37 35
43 43 43 44 43 43 43 43 43 43 43 43 43 44 44 44 45 45 46 46 46 45 44 44 44 44 43 42 41 41 40 40 39 39 39 39 38 38 38 38 37 36 35
42 42 43 43 43 43 43 43 43 42 42 42 42 43 44 44 44 45 44 44 44 43 42 42 42 42 41 41 41 40 39 39 38 37 37 37 37 37 36 36 35 35 34
41 42 42 43 43 43 43 42 41 41 41 41 41 42 42 42 42 42 42 42 41 41 40 40 39 39 39 38 38 38 37 36 36 35 35 35 35 35 34 32 32 31 31
40 40 41 41 41 41 40 40 40 40 40 40 41 42 41 41 40 40 40 40 40 39 38 37 37 36 36 36 36 36 35 35 34 34 34 33 33 32 31 30 29 29 28
39 39 39 39 39 39 39 39 39 40 40 40 40 40 39 38 38 38 38 38 37 36 35 35 35 35 35 34 33 33 32 32 32 31 30 30 30 29 29 28 27 26 26
38 38 38 38 38 38 38 38 39 39 39 38 38 37 36 36 36 36 36 35 34 34 34 34 34 34 33 31 30 30 30 29 29 28 28 28 28 27 26 25 24 24 24
38 37 37 37 38 38 38 38 38 37 37 36 35 35 34 34 33 33 33 33 33 34 34 34 33 32 30 29 29 28 28 27 27 27 27 26 26 24 23 22 22 22 22
37 37 36 37 37 37 37 36 36 36 35 35 34 33 32 32 32 32 32 32 33 34 34 33 31 30 29 28 28 27 26 26 25 25 25 24 23 21 21 21 21 21 21
36 36 36 35 35 35 35 35 34 33 32 32 32 32 31 30 30 31 31 31 32 33 32 31 30 29 28 28 27 26 25 25 24 23 22 21 21 20 20 20 20 19 19
35 35 34 34 33 33 33 33 33 32 31 31 31 30 30 30 30 31 31 31 31 31 30 29 29 28 28 27 26 25 24 24 22 21 21 20 20 20 20 19 19 18 18
33 33 33 32 32 32 32 32 32 32 32 31 31 30 30 30 30 30 31 31 31 31 30 29 28 28 27 26 25 24 23 22 21 20 20 20 19 19 18 18 18 18 18
31 31 30 30 31 31 31 31 31 31 30 31 30 30 29 29 29 29 29 30 30 29 29 28 27 27 27 25 24 23 22 21 20 20 19 19 19 18 18 18 18 17 17
29 30 30 30 30 29 29 29 29 29 29 29 28 27 27 27 26 27 27 28 28 27 27 26 26 25 24 23 22 21 20 20 20 19 19 18 18 18 17 17 17 17 16
27 28 28 28 28 28 28 28 28 27 27 26 26 25 25 25 25 25 24 24 24 23 23 23 23 22 22 21 20 20 19 19 19 19 18 17 16 16 16 16 15 15 14
25 25 26 26 26 26 26 25 25 25 24 24 24 24 24 24 23 22 22 22 21 20 20 20 20 20 19 19 19 19 18 18 17 16 16 15 15 14 14 14 13 13 12
23 24 25 25 24 24 23 23 23 23 23 22 22 22 22 21 21 20 19 19 18 18 17 17 16 16 16 16 16 16 15 15 14 13 13 13 13 13 12 12 11 10 10
23 22 22 22 22 22 22 21 21 21 20 20 20 20 20 19 18 18 18 17 16 16 15 15 14 14 14 14 13 13 12 11 10 10 10 10 10 10 9 9 9 8 8